[[{"header":{"parameterUnit":"m.s-1","parameterCategory":1,"la1":31.0,"la2":29.5877,"lo1":-88.7671,"lo2":-86.6584,"dy":0.0162,"dx":0.0185,"nx":115,"ny":88,"refTime":"2026-04-26T12:00:00:Z","depth":0,"parameterNumber":2,"parameterNumberName":"U-component_of_WINDS"},"data":[0.0,0.0,0.0,0.0,0.0,0.0,0.0,0.0,0.0,0.0,0.0,0.0,0.0,0.0,0.0,0.0,0.0,0.0,0.0,0.0,0.0,0.0,0.0,0.0,0.0,0.0,0.0,0.0,0.0,0.0,0.0,0.0,0.0,0.0,0.0,0.0,0.0,0.0,0.0,0.0,0.0,0.0,0.0,0.0,0.0,0.0,0.0,0.0,0.0,0.0,0.0,0.0,0.0,0.0,0.0,0.0,0.0,0.0,0.0,0.0,0.0,0.0,0.0,0.0,0.0,0.0,0.0,0.0,0.0,0.0,0.0,0.0,0.0,0.0,0.0,0.0,0.0,0.0,0.0,0.0,0.0,0.0,0.0,0.0,0.0,0.0,0.0,0.0,0.0,0.0,0.0,0.0,0.0,0.0,0.0,0.0,0.0,0.0,0.0,0.0,0.0,0.0,0.0,0.0,0.0,0.0,0.0,0.0,0.0,0.0,0.0,0.0,0.0,0.0,0.0,0.0,0.0,0.0,0.0,0.0,0.0,0.0,0.0,0.0,0.0,0.0,0.0,0.0,0.0,0.0,0.0,0.0,0.0,0.0,0.0,0.0,0.0,0.0,0.0,0.0,0.0,0.0,0.0,0.0,0.0,0.0,0.0,0.0,0.0,0.0,0.0,0.0,0.0,0.0,0.0,0.0,0.0,0.0,0.0,0.0,0.0,0.0,0.0,0.0,0.0,0.0,0.0,0.0,0.0,0.0,0.0,0.0,0.0,0.0,0.0,0.0,0.0,0.0,0.0,0.0,0.0,0.0,0.0,0.0,0.0,0.0,0.0,0.0,0.0,0.0,0.0,0.0,0.0,0.0,0.0,0.0,0.0,0.0,0.0,0.0,0.0,0.0,0.0,0.0,0.0,0.0,0.0,0.0,0.0,0.0,0.0,0.0,0.0,0.0,0.0,0.0,0.0,0.0,0.0,0.0,0.0,0.0,0.0,0.0,0.0,0.0,0.0,0.0,0.0,0.0,0.0,0.0,0.0,0.0,0.0,0.0,0.0,0.0,0.0,0.0,0.0,0.0,0.0,0.0,0.0,0.0,0.0,0.0,0.0,0.0,0.0,0.0,0.0,0.0,0.0,0.0,0.0,0.0,0.0,0.0,0.0,0.0,0.0,0.0,0.0,0.0,0.0,0.0,0.0,0.0,0.0,0.0,0.0,0.0,0.0,0.0,0.0,0.0,0.0,0.0,0.0,0.0,0.0,0.0,0.0,0.0,0.0,0.0,0.0,0.0,0.0,0.0,0.0,0.0,0.0,0.0,0.0,0.0,0.0,0.0,0.0,0.0,0.0,0.0,0.0,0.0,0.0,0.0,0.0,0.0,0.0,0.0,0.0,0.0,0.0,0.0,0.0,0.0,0.0,0.0,0.0,0.0,0.0,0.0,0.0,0.0,0.0,0.0,0.0,0.0,0.0,0.0,0.0,0.0,0.0,0.0,0.0,0.0,0.0,0.0,0.0,0.0,0.0,0.0,0.0,0.0,0.0,0.0,0.0,0.0,0.0,0.0,0.0,0.0,0.0,0.0,0.0,0.0,0.0,0.0,0.0,0.0,0.0,0.0,0.0,0.0,0.0,0.0,0.0,0.0,0.0,0.0,0.0,0.0,0.0,0.0,0.0,0.0,0.0,0.0,0.0,0.0,0.0,0.0,0.0,0.0,0.0,0.0,0.0,0.0,0.0,0.0,0.0,0.0,0.0,0.0,0.0,0.0,0.0,0.0,0.0,0.0,0.0,0.0,0.0,0.0,0.0,0.0,0.0,0.0,0.0,0.0,0.0,0.0,0.0,0.0,0.0,0.0,0.0,0.0,0.0,0.0,0.0,0.0,0.0,0.0,0.0,0.0,0.0,0.0,0.0,0.0,0.0,0.0,0.0,0.0,0.0,0.0,0.0,0.0,0.0,0.0,0.0,0.0,0.0,0.0,0.0,0.0,0.0,0.0,0.0,0.0,0.0,0.0,0.0,0.0,0.0,0.0,0.0,0.0,0.0,0.0,0.0,0.0,0.0,0.0,0.0,0.0,0.0,0.0,0.0,0.0,0.0,0.0,0.0,0.0,0.0,0.0,0.0,0.0,0.0,0.0,0.0,0.0,0.0,0.0,0.0,0.0,0.0,0.0,0.0,0.0,0.0,0.0,0.0,0.0,0.0,0.0,0.0,0.0,0.0,0.0,0.0,0.0,0.0,0.0,0.0,0.0,0.0,0.0,0.0,0.0,0.0,0.0,0.0,0.0,0.0,0.0,0.0,0.0,0.0,0.0,0.0,0.0,0.0,0.0,0.0,0.0,0.0,0.0,0.0,0.0,0.0,0.0,0.0,0.0,0.0,0.0,0.0,0.0,0.0,0.0,0.0,0.0,0.0,0.0,0.0,0.0,0.0,0.0,0.0,0.0,0.0,0.0,0.0,0.0,0.0,0.0,0.0,0.0,0.0,0.0,0.0,0.0,0.0,0.0,0.0,0.0,0.0,0.0,0.0,0.0,0.0,0.0,0.0,0.0,0.0,0.0,0.0,0.0,0.0,0.0,0.0,0.0,0.0,0.0,0.0,0.0,0.0,0.0,0.0,0.0,0.0,0.0,0.0,0.0,0.0,0.0,0.0,0.0,0.0,0.0,0.0,0.0,0.0,0.0,0.0,0.0,0.0,0.0,0.0,0.0,0.0,0.0,0.0,0.0,0.0,0.0,0.0,0.0,0.0,0.0,0.0,0.0,0.0,0.0,0.0,0.0,0.0,0.0,0.0,0.0,0.0,0.0,0.0,0.0,0.0,0.0,0.0,0.0,0.0,0.0,0.0,0.0,0.0,0.0,0.0,0.0,0.0,0.0,0.0,0.0,0.0,0.0,0.0,0.0,0.0,0.0,0.0,0.0,0.0,0.0,0.0,0.0,0.0,0.0,0.0,0.0,0.0,0.0,0.0,0.0,0.0,0.0,0.0,0.0,0.0,0.0,0.0,0.0,0.0,0.0,0.0,0.0,0.0,0.0,0.0,0.0,0.0,0.0,0.0,0.0,0.0,0.0,0.0,0.0,0.0,0.0,0.0,0.0,0.0,0.0,0.0,0.0,0.0,0.0,0.0,0.0,0.0,0.0,0.0,0.0,0.0,0.0,0.0,0.0,0.0,0.0,0.0,0.0,0.0,0.0,0.0,0.0,0.0,0.0,0.0,0.0,0.0,0.0,0.0,0.0,0.0,0.0,0.0,0.0,0.0,0.0,0.0,0.0,0.0,0.0,0.0,0.0,0.0,0.0,0.0,0.0,0.0,0.0,0.0,0.0,0.0,0.0,0.0,0.0,0.0,0.0,0.0,0.0,0.0,0.0,0.0,0.0,0.0,0.0,0.0,0.0,0.0,0.0,0.0,0.0,0.0,0.0,0.0,0.0,0.0,0.0,0.0,0.0,0.0,0.0,0.0,0.0,0.0,0.0,0.0,0.0,0.0,0.0,0.0,0.0,0.0,0.0,0.0,0.0,0.0,0.0,0.0,0.0,0.0,0.0,0.0,0.0,0.0,0.0,0.0,0.0,0.0,0.0,0.0,0.0,0.0,0.0,0.0,0.0,0.0,0.0,0.0,0.0,0.0,0.0,0.0,0.0,0.0,0.0,0.0,0.0,0.0,0.0,0.0,0.0,0.0,0.0,0.0,0.0,0.0,0.0,0.0,0.0,0.0,0.0,0.0,0.0,0.0,0.0,0.0,0.0,0.0,0.0,0.0,0.0,0.0,0.0,0.0,0.0,0.0,0.0,0.0,0.0,0.0,0.0,0.0,0.0,0.0,0.0,0.0,0.0,0.0,0.0,0.0,0.0,0.0,0.0,0.0,0.0,0.0,0.0,0.0,0.0,0.0,0.0,0.0,0.0,0.0,0.0,0.0,0.0,0.0,0.0,0.0,0.0,0.0,0.0,0.0,0.0,0.0,0.0,0.0,0.0,0.0,0.0,0.0,0.0,0.0,0.0,0.0,0.0,0.0,0.0,0.0,0.0,0.0,0.0,0.0,0.0,0.0,0.0,0.0,0.0,0.0,0.0,0.0,0.0,0.0,0.0,0.0,0.0,0.0,0.0,0.0,0.0,0.0,0.0,0.0,0.0,0.0,0.0,0.0,0.0,0.0,0.0,0.0,0.0,0.0,0.0,0.0,0.0,0.0,0.0,0.0,0.0,0.0,0.0,0.0,0.0,0.0,0.0,0.0,0.0,0.0,0.0,0.0,0.0,0.0,0.0,-2.4002,0.0,0.0,0.0,0.0,0.0,0.0,0.0,0.0,0.0,0.0,0.0,0.0,0.0,0.0,0.0,0.0,0.0,0.0,0.0,0.0,0.0,0.0,0.0,0.0,0.0,0.0,0.0,0.0,0.0,0.0,0.0,0.0,0.0,0.0,0.0,0.0,0.0,0.0,0.0,0.0,0.0,0.0,0.0,0.0,0.0,0.0,0.0,0.0,0.0,0.0,0.0,0.0,0.0,0.0,0.0,0.0,0.0,0.0,0.0,0.0,0.0,0.0,0.0,0.0,0.0,0.0,0.0,0.0,0.0,0.0,0.0,0.0,0.0,0.0,0.0,0.0,0.0,0.0,0.0,0.0,0.0,0.0,0.0,0.0,0.0,0.0,0.0,0.0,0.0,0.0,0.0,0.0,0.0,0.0,0.0,0.0,0.0,0.0,0.0,0.0,0.0,0.0,0.0,0.0,0.0,0.0,0.0,0.0,0.0,0.0,-2.5308,-2.5293,-2.5356,-2.4782,-2.351,0.0,0.0,0.0,0.0,0.0,0.0,0.0,0.0,0.0,0.0,0.0,0.0,0.0,0.0,0.0,0.0,0.0,0.0,0.0,0.0,0.0,0.0,0.0,0.0,0.0,0.0,0.0,0.0,0.0,0.0,0.0,0.0,0.0,0.0,0.0,0.0,0.0,0.0,0.0,0.0,0.0,0.0,0.0,0.0,0.0,0.0,0.0,0.0,0.0,0.0,0.0,0.0,0.0,0.0,0.0,0.0,0.0,0.0,0.0,0.0,0.0,0.0,0.0,0.0,0.0,0.0,0.0,0.0,0.0,0.0,0.0,0.0,0.0,0.0,0.0,0.0,0.0,0.0,0.0,0.0,0.0,0.0,0.0,0.0,0.0,0.0,0.0,0.0,0.0,0.0,0.0,0.0,0.0,0.0,0.0,0.0,0.0,0.0,0.0,0.0,0.0,0.0,0.0,0.0,0.0,0.0,0.0,0.0,0.0,0.0,0.0,0.0,-2.599,-2.5305,-2.3841,0.0,0.0,0.0,0.0,0.0,0.0,0.0,0.0,0.0,0.0,0.0,0.0,0.0,0.0,0.0,0.0,0.0,0.0,0.0,0.0,0.0,0.0,0.0,0.0,0.0,0.0,0.0,0.0,0.0,0.0,0.0,0.0,0.0,0.0,0.0,0.0,0.0,0.0,0.0,0.0,0.0,0.0,0.0,0.0,0.0,0.0,0.0,0.0,0.0,0.0,0.0,0.0,0.0,0.0,0.0,0.0,0.0,0.0,0.0,0.0,0.0,0.0,0.0,0.0,0.0,0.0,0.0,0.0,0.0,0.0,0.0,0.0,0.0,0.0,0.0,0.0,0.0,0.0,0.0,0.0,0.0,0.0,0.0,0.0,0.0,0.0,0.0,0.0,0.0,0.0,0.0,0.0,0.0,0.0,0.0,0.0,0.0,0.0,0.0,0.0,0.0,0.0,0.0,0.0,0.0,0.0,0.0,0.0,0.0,0.0,-2.6237,-2.7787,-2.7831,0.0,-2.6401,0.0,0.0,0.0,0.0,0.0,0.0,0.0,0.0,0.0,0.0,0.0,0.0,0.0,0.0,0.0,0.0,0.0,0.0,0.0,0.0,0.0,0.0,0.0,0.0,0.0,0.0,0.0,0.0,0.0,0.0,0.0,0.0,0.0,0.0,0.0,0.0,0.0,0.0,0.0,0.0,0.0,0.0,0.0,0.0,0.0,0.0,0.0,0.0,0.0,0.0,0.0,0.0,0.0,0.0,0.0,0.0,0.0,0.0,0.0,0.0,0.0,0.0,0.0,0.0,0.0,0.0,0.0,0.0,0.0,0.0,0.0,0.0,0.0,0.0,0.0,0.0,0.0,0.0,0.0,0.0,0.0,0.0,0.0,0.0,0.0,0.0,0.0,0.0,0.0,0.0,0.0,0.0,0.0,0.0,0.0,0.0,0.0,0.0,0.0,0.0,0.0,0.0,0.0,0.0,0.0,0.0,0.0,0.0,0.0,0.0,-2.7374,-2.8097,-2.7104,-2.6356,0.0,0.0,0.0,0.0,0.0,0.0,0.0,0.0,0.0,0.0,0.0,0.0,0.0,0.0,0.0,0.0,0.0,0.0,0.0,0.0,0.0,0.0,0.0,0.0,0.0,0.0,0.0,0.0,0.0,0.0,0.0,0.0,0.0,0.0,0.0,0.0,0.0,0.0,0.0,0.0,0.0,0.0,0.0,0.0,0.0,0.0,0.0,0.0,0.0,0.0,0.0,0.0,0.0,0.0,0.0,0.0,0.0,0.0,0.0,0.0,0.0,0.0,0.0,0.0,0.0,0.0,0.0,0.0,0.0,0.0,0.0,0.0,0.0,0.0,0.0,0.0,0.0,0.0,0.0,0.0,0.0,0.0,0.0,0.0,0.0,0.0,0.0,0.0,0.0,0.0,0.0,0.0,0.0,0.0,0.0,0.0,0.0,0.0,0.0,0.0,0.0,0.0,0.0,0.0,0.0,0.0,0.0,0.0,0.0,0.0,-2.7532,-2.8021,-2.8411,-2.6819,-2.5663,-2.5132,0.0,0.0,0.0,0.0,0.0,0.0,0.0,0.0,0.0,0.0,0.0,0.0,0.0,0.0,0.0,0.0,0.0,0.0,0.0,0.0,0.0,0.0,0.0,0.0,0.0,0.0,0.0,0.0,0.0,0.0,0.0,0.0,0.0,0.0,0.0,0.0,0.0,0.0,0.0,0.0,0.0,0.0,0.0,0.0,0.0,0.0,0.0,0.0,0.0,0.0,0.0,0.0,0.0,0.0,0.0,0.0,0.0,0.0,0.0,0.0,0.0,0.0,0.0,0.0,0.0,0.0,0.0,0.0,0.0,0.0,0.0,0.0,0.0,0.0,0.0,0.0,0.0,0.0,0.0,0.0,0.0,0.0,0.0,0.0,0.0,0.0,0.0,0.0,0.0,0.0,0.0,0.0,0.0,0.0,0.0,0.0,0.0,0.0,0.0,0.0,0.0,0.0,0.0,0.0,0.0,0.0,0.0,0.0,0.0,-2.8242,-2.7851,-2.9434,-2.7779,-2.6085,0.0,0.0,0.0,0.0,0.0,0.0,0.0,0.0,0.0,0.0,0.0,0.0,0.0,0.0,0.0,0.0,0.0,0.0,0.0,0.0,0.0,0.0,0.0,0.0,0.0,0.0,0.0,0.0,0.0,0.0,0.0,0.0,0.0,0.0,0.0,0.0,0.0,0.0,0.0,0.0,0.0,0.0,0.0,0.0,0.0,0.0,0.0,0.0,0.0,0.0,0.0,0.0,0.0,0.0,0.0,0.0,0.0,0.0,0.0,0.0,0.0,0.0,0.0,0.0,0.0,0.0,0.0,0.0,0.0,0.0,0.0,0.0,0.0,0.0,0.0,0.0,0.0,0.0,0.0,0.0,0.0,0.0,0.0,0.0,0.0,0.0,0.0,0.0,0.0,0.0,0.0,0.0,0.0,0.0,0.0,0.0,0.0,0.0,0.0,0.0,0.0,0.0,0.0,0.0,0.0,0.0,0.0,0.0,0.0,-2.5918,-2.6074,-2.7539,-3.0156,-2.7108,-2.5012,0.0,0.0,0.0,0.0,0.0,0.0,0.0,0.0,0.0,0.0,0.0,0.0,0.0,0.0,0.0,0.0,0.0,0.0,0.0,0.0,0.0,0.0,0.0,0.0,0.0,0.0,0.0,0.0,0.0,0.0,0.0,0.0,0.0,0.0,0.0,0.0,0.0,0.0,0.0,0.0,0.0,0.0,0.0,0.0,0.0,0.0,0.0,0.0,0.0,0.0,0.0,0.0,0.0,0.0,0.0,0.0,0.0,0.0,0.0,0.0,0.0,0.0,0.0,0.0,0.0,0.0,0.0,0.0,0.0,0.0,0.0,0.0,0.0,0.0,0.0,0.0,0.0,0.0,0.0,0.0,0.0,0.0,0.0,0.0,0.0,0.0,0.0,0.0,0.0,0.0,0.0,0.0,0.0,0.0,0.0,0.0,0.0,0.0,0.0,0.0,0.0,0.0,0.0,0.0,0.0,0.0,0.0,0.0,0.0,-2.4473,0.0,-2.7851,0.0,-2.6523,-2.4296,0.0,0.0,0.0,0.0,0.0,0.0,0.0,0.0,0.0,0.0,0.0,0.0,0.0,0.0,0.0,0.0,0.0,0.0,0.0,0.0,0.0,0.0,0.0,0.0,0.0,0.0,0.0,0.0,0.0,0.0,0.0,0.0,0.0,0.0,0.0,0.0,0.0,0.0,0.0,0.0,0.0,0.0,0.0,0.0,0.0,0.0,0.0,0.0,0.0,0.0,0.0,0.0,0.0,0.0,0.0,0.0,0.0,0.0,0.0,0.0,0.0,0.0,0.0,0.0,0.0,0.0,0.0,0.0,0.0,0.0,0.0,0.0,0.0,0.0,0.0,0.0,0.0,0.0,0.0,0.0,0.0,0.0,0.0,0.0,0.0,0.0,0.0,0.0,0.0,0.0,0.0,0.0,0.0,0.0,0.0,0.0,0.0,0.0,0.0,0.0,0.0,0.0,0.0,0.0,0.0,0.0,0.0,0.0,-2.4414,-2.6855,-2.8555,-2.8691,-2.7129,-2.6152,-2.4082,0.0,0.0,0.0,0.0,0.0,0.0,0.0,0.0,0.0,0.0,0.0,0.0,0.0,0.0,0.0,0.0,0.0,0.0,0.0,0.0,0.0,0.0,0.0,0.0,0.0,0.0,0.0,0.0,0.0,0.0,0.0,0.0,0.0,0.0,0.0,0.0,0.0,0.0,0.0,0.0,0.0,0.0,0.0,0.0,0.0,0.0,0.0,0.0,0.0,0.0,0.0,0.0,0.0,0.0,0.0,0.0,0.0,0.0,0.0,0.0,0.0,0.0,0.0,0.0,0.0,0.0,0.0,0.0,0.0,0.0,0.0,0.0,0.0,0.0,0.0,0.0,0.0,0.0,0.0,0.0,0.0,0.0,0.0,0.0,0.0,0.0,0.0,0.0,0.0,0.0,0.0,0.0,0.0,0.0,0.0,0.0,0.0,0.0,0.0,0.0,0.0,0.0,0.0,0.0,0.0,0.0,0.0,0.0,0.0,-2.6133,-2.7207,-2.8418,-2.9512,-2.5977,-2.4023,0.0,0.0,0.0,0.0,0.0,0.0,0.0,0.0,0.0,0.0,0.0,0.0,0.0,0.0,0.0,0.0,0.0,0.0,0.0,0.0,0.0,0.0,0.0,0.0,0.0,0.0,0.0,0.0,0.0,0.0,0.0,0.0,0.0,0.0,0.0,0.0,0.0,0.0,0.0,0.0,0.0,0.0,0.0,0.0,0.0,0.0,0.0,0.0,0.0,0.0,0.0,0.0,0.0,0.0,0.0,0.0,0.0,0.0,0.0,0.0,0.0,0.0,0.0,0.0,0.0,0.0,0.0,0.0,0.0,0.0,0.0,0.0,0.0,0.0,0.0,0.0,0.0,0.0,0.0,0.0,0.0,0.0,0.0,0.0,0.0,0.0,0.0,0.0,0.0,0.0,0.0,0.0,0.0,0.0,0.0,0.0,0.0,0.0,0.0,0.0,0.0,0.0,0.0,0.0,0.0,0.0,0.0,0.0,0.0,-2.8613,-2.9101,-2.9844,-3.0859,-2.7129,-2.498,-2.4707,0.0,0.0,0.0,0.0,0.0,0.0,0.0,0.0,0.0,0.0,0.0,0.0,0.0,0.0,0.0,0.0,0.0,0.0,0.0,0.0,0.0,0.0,0.0,0.0,0.0,0.0,0.0,0.0,0.0,0.0,0.0,0.0,0.0,0.0,0.0,0.0,0.0,0.0,0.0,0.0,0.0,0.0,0.0,0.0,0.0,0.0,0.0,0.0,0.0,0.0,0.0,0.0,0.0,0.0,0.0,0.0,0.0,0.0,0.0,0.0,0.0,0.0,0.0,0.0,0.0,0.0,0.0,0.0,0.0,0.0,0.0,0.0,0.0,0.0,0.0,0.0,0.0,0.0,0.0,0.0,0.0,0.0,0.0,0.0,0.0,0.0,0.0,0.0,0.0,0.0,0.0,0.0,0.0,0.0,0.0,0.0,0.0,0.0,0.0,0.0,0.0,0.0,0.0,0.0,0.0,0.0,0.0,0.0,-3.3516,-3.3652,-3.293,-3.1367,-2.9375,-2.6855,0.0,0.0,0.0,0.0,0.0,0.0,0.0,0.0,0.0,0.0,0.0,0.0,0.0,0.0,0.0,0.0,0.0,0.0,0.0,0.0,0.0,0.0,0.0,0.0,0.0,0.0,0.0,0.0,0.0,0.0,0.0,0.0,0.0,0.0,0.0,0.0,0.0,0.0,0.0,0.0,0.0,0.0,0.0,0.0,0.0,0.0,0.0,0.0,0.0,0.0,0.0,0.0,0.0,0.0,0.0,0.0,0.0,0.0,0.0,0.0,0.0,0.0,0.0,0.0,0.0,0.0,0.0,0.0,0.0,0.0,0.0,0.0,0.0,0.0,0.0,0.0,0.0,0.0,0.0,0.0,0.0,0.0,0.0,0.0,0.0,0.0,0.0,0.0,0.0,0.0,0.0,0.0,0.0,0.0,0.0,0.0,0.0,0.0,0.0,0.0,0.0,0.0,0.0,0.0,0.0,0.0,0.0,0.0,0.0,-3.5234,-3.6582,-3.6738,-3.5566,-3.1484,-2.8848,0.0,0.0,0.0,0.0,0.0,0.0,0.0,0.0,0.0,0.0,0.0,0.0,0.0,0.0,0.0,0.0,0.0,0.0,0.0,0.0,0.0,0.0,0.0,0.0,0.0,0.0,0.0,0.0,0.0,0.0,0.0,0.0,0.0,0.0,0.0,0.0,0.0,0.0,0.0,0.0,0.0,0.0,0.0,0.0,0.0,0.0,0.0,0.0,0.0,0.0,0.0,0.0,0.0,0.0,0.0,0.0,0.0,0.0,0.0,0.0,0.0,0.0,0.0,0.0,0.0,0.0,0.0,0.0,0.0,0.0,0.0,0.0,0.0,0.0,0.0,0.0,0.0,0.0,0.0,0.0,0.0,0.0,0.0,0.0,0.0,0.0,0.0,0.0,0.0,0.0,0.0,0.0,0.0,0.0,0.0,0.0,0.0,0.0,0.0,0.0,0.0,0.0,0.0,0.0,0.0,0.0,0.0,0.0,-3.4316,-3.7578,-3.9316,-3.9961,-3.9473,-3.4805,-3.1426,0.0,0.0,0.0,0.0,0.0,0.0,0.0,0.0,0.0,0.0,0.0,0.0,0.0,0.0,0.0,0.0,0.0,0.0,0.0,0.0,0.0,0.0,0.0,0.0,0.0,0.0,0.0,0.0,0.0,0.0,0.0,0.0,0.0,0.0,0.0,0.0,0.0,0.0,0.0,0.0,0.0,0.0,0.0,0.0,0.0,0.0,0.0,0.0,0.0,0.0,0.0,0.0,0.0,0.0,0.0,0.0,0.0,0.0,0.0,0.0,0.0,0.0,0.0,0.0,0.0,0.0,0.0,0.0,0.0,0.0,0.0,0.0,0.0,0.0,0.0,0.0,0.0,0.0,0.0,0.0,0.0,0.0,0.0,0.0,0.0,0.0,0.0,0.0,0.0,0.0,0.0,0.0,0.0,0.0,0.0,0.0,0.0,0.0,0.0,0.0,0.0,0.0,0.0,0.0,0.0,0.0,0.0,0.0,-3.5742,-3.9961,-4.166,-4.2519,-4.2422,-3.8281,-3.4082,0.0,0.0,0.0,0.0,0.0,0.0,0.0,0.0,0.0,0.0,0.0,0.0,0.0,0.0,0.0,0.0,0.0,0.0,0.0,0.0,0.0,0.0,0.0,0.0,0.0,0.0,0.0,0.0,0.0,0.0,0.0,0.0,0.0,0.0,0.0,0.0,0.0,0.0,0.0,0.0,0.0,0.0,0.0,0.0,0.0,0.0,0.0,0.0,0.0,0.0,0.0,0.0,0.0,0.0,0.0,0.0,0.0,0.0,0.0,0.0,0.0,0.0,0.0,0.0,0.0,0.0,0.0,0.0,0.0,0.0,0.0,0.0,0.0,0.0,0.0,0.0,0.0,0.0,0.0,0.0,0.0,0.0,0.0,0.0,0.0,0.0,0.0,0.0,0.0,0.0,0.0,0.0,0.0,0.0,0.0,0.0,0.0,0.0,0.0,0.0,0.0,0.0,0.0,0.0,0.0,0.0,0.0,0.0,-3.7226,-4.082,-4.2558,-4.3418,-4.3398,-3.8594,-3.4629,0.0,0.0,0.0,0.0,0.0,0.0,0.0,0.0,0.0,0.0,0.0,0.0,0.0,0.0,0.0,0.0,0.0,0.0,0.0,0.0,0.0,0.0,0.0,0.0,0.0,0.0,0.0,0.0,0.0,0.0,0.0,0.0,0.0,0.0,0.0,0.0,0.0,0.0,0.0,0.0,0.0,0.0,0.0,0.0,0.0,0.0,0.0,0.0,-1.46,0.0,0.0,0.0,0.0,0.0,0.0,0.0,0.0,0.0,0.0,0.0,0.0,0.0,0.0,0.0,0.0,0.0,0.0,0.0,0.0,0.0,0.0,0.0,0.0,0.0,0.0,0.0,0.0,0.0,0.0,0.0,0.0,0.0,0.0,0.0,0.0,0.0,0.0,0.0,0.0,0.0,0.0,0.0,0.0,0.0,0.0,0.0,0.0,0.0,0.0,0.0,0.0,0.0,0.0,0.0,0.0,0.0,0.0,0.0,-3.8281,-4.1641,-4.3047,-4.3711,-4.3555,-3.9492,-3.5801,0.0,0.0,0.0,0.0,0.0,0.0,0.0,0.0,0.0,0.0,0.0,0.0,0.0,0.0,0.0,0.0,0.0,0.0,0.0,0.0,0.0,0.0,0.0,0.0,0.0,0.0,0.0,0.0,0.0,0.0,0.0,0.0,0.0,0.0,0.0,0.0,0.0,0.0,0.0,0.0,0.0,0.0,0.0,0.0,0.0,0.0,0.0,0.0,0.0,0.0,0.0,0.0,0.0,0.0,0.0,0.0,0.0,0.0,0.0,0.0,0.0,0.0,0.0,0.0,0.0,0.0,0.0,0.0,0.0,0.0,0.0,0.0,0.0,0.0,0.0,0.0,0.0,0.0,0.0,0.0,0.0,0.0,0.0,0.0,0.0,0.0,0.0,0.0,0.0,0.0,0.0,0.0,0.0,0.0,0.0,0.0,0.0,0.0,0.0,0.0,0.0,0.0,0.0,0.0,0.0,0.0,0.0,-3.5369,-3.9023,-4.2441,-4.3457,-4.3828,-4.3672,-4.0527,-3.7109,-3.3516,0.0,0.0,0.0,0.0,0.0,0.0,0.0,0.0,0.0,0.0,0.0,0.0,0.0,0.0,0.0,0.0,0.0,0.0,0.0,0.0,0.0,0.0,0.0,0.0,0.0,0.0,0.0,0.0,0.0,0.0,0.0,0.0,0.0,0.0,0.0,0.0,0.0,0.0,-1.5192,-1.8327,0.0,0.0,0.0,0.0,0.0,0.0,0.0,0.0,-1.7356,0.0,0.0,0.0,0.0,0.0,0.0,0.0,0.0,0.0,0.0,0.0,0.0,0.0,0.0,0.0,0.0,0.0,0.0,0.0,0.0,0.0,0.0,0.0,0.0,0.0,0.0,0.0,0.0,0.0,0.0,0.0,0.0,0.0,0.0,0.0,0.0,0.0,0.0,0.0,0.0,0.0,0.0,0.0,0.0,0.0,0.0,0.0,0.0,0.0,0.0,0.0,0.0,0.0,0.0,0.0,0.0,-3.4963,-3.6541,-3.9316,-4.3359,-4.4336,-4.4453,-4.3672,-4.1094,-3.7715,-3.3535,0.0,0.0,0.0,0.0,0.0,0.0,0.0,0.0,0.0,0.0,0.0,0.0,0.0,0.0,0.0,0.0,0.0,0.0,0.0,0.0,0.0,0.0,0.0,0.0,0.0,0.0,0.0,0.0,0.0,0.0,0.0,0.0,0.0,0.0,0.0,0.0,0.0,0.0,0.0,-1.9196,-2.1019,0.0,0.0,0.0,0.0,0.0,0.0,0.0,0.0,-1.7047,0.0,0.0,0.0,0.0,0.0,0.0,0.0,0.0,0.0,0.0,0.0,0.0,0.0,0.0,0.0,0.0,0.0,0.0,0.0,0.0,0.0,0.0,0.0,0.0,0.0,0.0,0.0,0.0,0.0,0.0,0.0,0.0,0.0,0.0,0.0,0.0,0.0,0.0,0.0,0.0,0.0,0.0,0.0,0.0,0.0,0.0,0.0,0.0,0.0,0.0,0.0,0.0,0.0,0.0,0.0,-3.4398,-3.7693,-4.0742,-4.3594,-4.4101,-4.4141,-4.3652,-3.9922,-3.6484,0.0,0.0,0.0,0.0,0.0,0.0,0.0,0.0,0.0,0.0,0.0,0.0,0.0,0.0,0.0,0.0,0.0,0.0,0.0,0.0,0.0,0.0,0.0,0.0,0.0,0.0,0.0,0.0,0.0,0.0,0.0,0.0,0.0,0.0,0.0,0.0,0.0,0.0,0.0,0.0,-2.0327,-2.187,-2.1038,0.0,0.0,0.0,0.0,0.0,0.0,-1.8811,-1.8125,0.0,0.0,0.0,0.0,0.0,0.0,0.0,0.0,0.0,0.0,0.0,0.0,0.0,0.0,0.0,0.0,0.0,0.0,0.0,0.0,0.0,0.0,0.0,0.0,0.0,0.0,0.0,0.0,0.0,0.0,0.0,0.0,0.0,0.0,0.0,0.0,0.0,0.0,0.0,0.0,0.0,0.0,0.0,0.0,0.0,0.0,0.0,0.0,0.0,0.0,0.0,0.0,0.0,0.0,0.0,-3.3302,-3.7986,-4.1406,-4.332,-4.3437,-4.3437,-4.3359,-3.8769,-3.5371,0.0,0.0,0.0,0.0,0.0,0.0,0.0,0.0,0.0,0.0,0.0,0.0,0.0,0.0,0.0,0.0,0.0,0.0,0.0,0.0,0.0,0.0,0.0,0.0,0.0,0.0,0.0,0.0,0.0,0.0,0.0,0.0,0.0,0.0,0.0,0.0,0.0,0.0,0.0,0.0,0.0,-2.2928,-2.1927,-2.1679,0.0,0.0,0.0,0.0,-2.0122,-2.0337,0.0,0.0,0.0,0.0,0.0,0.0,0.0,0.0,0.0,0.0,0.0,0.0,0.0,0.0,0.0,0.0,0.0,0.0,0.0,0.0,0.0,0.0,0.0,0.0,0.0,0.0,0.0,0.0,0.0,0.0,0.0,0.0,0.0,0.0,0.0,0.0,0.0,0.0,0.0,0.0,0.0,0.0,0.0,0.0,0.0,0.0,0.0,0.0,0.0,0.0,0.0,0.0,0.0,0.0,0.0,0.0,-3.3186,-3.6229,-3.9297,-4.2363,-4.2539,-4.2539,-4.25,-3.9023,-3.5976,0.0,0.0,0.0,0.0,0.0,0.0,0.0,0.0,0.0,0.0,0.0,0.0,0.0,0.0,0.0,0.0,0.0,0.0,0.0,0.0,0.0,0.0,0.0,0.0,0.0,0.0,0.0,0.0,0.0,0.0,0.0,0.0,0.0,0.0,0.0,0.0,0.0,0.0,0.0,0.0,0.0,-2.4442,-2.2874,-2.263,-2.2748,0.0,0.0,-2.2932,-2.2771,-2.3269,0.0,0.0,0.0,0.0,0.0,0.0,0.0,0.0,0.0,0.0,0.0,0.0,0.0,0.0,0.0,0.0,0.0,0.0,0.0,0.0,0.0,0.0,0.0,0.0,0.0,0.0,0.0,0.0,0.0,0.0,0.0,0.0,0.0,0.0,0.0,0.0,0.0,0.0,0.0,0.0,0.0,0.0,0.0,0.0,0.0,0.0,0.0,0.0,0.0,0.0,0.0,0.0,0.0,0.0,0.0,-2.8708,-3.3278,-3.6914,-3.9941,-4.2285,-4.2383,-4.2187,-4.1719,-3.7891,-3.4609,0.0,0.0,0.0,0.0,0.0,0.0,0.0,0.0,0.0,0.0,0.0,0.0,0.0,0.0,0.0,0.0,0.0,0.0,0.0,0.0,0.0,0.0,0.0,0.0,0.0,0.0,0.0,0.0,0.0,0.0,0.0,0.0,0.0,0.0,0.0,0.0,0.0,0.0,0.0,0.0,0.0,0.0,-2.348,-2.3792,0.0,0.0,0.0,-2.3923,-2.3211,0.0,0.0,0.0,0.0,0.0,0.0,0.0,0.0,0.0,0.0,0.0,0.0,0.0,0.0,0.0,0.0,0.0,0.0,0.0,0.0,0.0,0.0,0.0,0.0,0.0,0.0,0.0,0.0,0.0,0.0,0.0,0.0,0.0,0.0,0.0,0.0,0.0,0.0,0.0,0.0,0.0,0.0,0.0,0.0,0.0,0.0,0.0,0.0,0.0,0.0,0.0,0.0,0.0,0.0,0.0,0.0,0.0,-3.3379,-3.748,-4.0391,-4.2031,-4.2109,-4.1719,-4.084,-3.707,0.0,0.0,0.0,0.0,0.0,0.0,0.0,0.0,0.0,0.0,0.0,0.0,0.0,0.0,0.0,0.0,0.0,0.0,0.0,0.0,0.0,0.0,0.0,0.0,0.0,0.0,0.0,-1.0094,0.0,0.0,0.0,0.0,0.0,0.0,0.0,0.0,0.0,0.0,0.0,0.0,0.0,0.0,-2.4361,-2.4189,-2.5118,-2.5209,0.0,0.0,-2.5225,-2.3815,-2.4063,-2.3541,0.0,0.0,0.0,0.0,0.0,0.0,0.0,0.0,0.0,0.0,0.0,0.0,0.0,0.0,0.0,0.0,0.0,0.0,0.0,0.0,0.0,0.0,0.0,0.0,0.0,0.0,0.0,0.0,0.0,0.0,0.0,0.0,0.0,0.0,0.0,0.0,0.0,0.0,0.0,0.0,0.0,0.0,0.0,0.0,0.0,0.0,0.0,0.0,0.0,0.0,0.0,0.0,0.0,0.0,0.0,-3.334,-3.6875,-3.9531,-4.1211,-4.1289,-4.0879,-3.998,-3.7344,-3.4336,0.0,0.0,0.0,0.0,0.0,0.0,0.0,0.0,0.0,0.0,0.0,0.0,0.0,0.0,0.0,0.0,0.0,0.0,0.0,0.0,0.0,0.0,0.0,0.0,0.0,0.0,0.0,0.0,0.0,0.0,0.0,0.0,0.0,0.0,0.0,0.0,0.0,0.0,0.0,0.0,0.0,-2.5226,-2.5197,-2.6643,-2.7502,0.0,0.0,-2.7479,-2.5537,-2.6505,-2.5899,-2.1263,0.0,0.0,0.0,0.0,0.0,0.0,0.0,0.0,0.0,0.0,0.0,0.0,0.0,0.0,0.0,0.0,0.0,0.0,0.0,0.0,0.0,0.0,0.0,0.0,0.0,0.0,0.0,0.0,0.0,0.0,0.0,0.0,0.0,0.0,0.0,0.0,0.0,0.0,0.0,0.0,0.0,0.0,0.0,0.0,0.0,0.0,0.0,0.0,0.0,0.0,0.0,0.0,0.0,-2.8574,-3.3359,-3.6816,-3.9453,-4.1113,-4.1191,-4.0527,-3.9141,-3.707,-3.4141,0.0,0.0,0.0,0.0,0.0,0.0,0.0,0.0,0.0,0.0,0.0,0.0,0.0,0.0,0.0,0.0,0.0,0.0,0.0,0.0,0.0,0.0,0.0,0.0,0.0,0.0,0.0,0.0,-1.2135,-1.2017,-1.1021,0.0,0.0,0.0,0.0,0.0,0.0,0.0,0.0,0.0,0.0,-2.6065,-2.5958,-2.747,0.0,0.0,-2.7783,-2.7704,-2.5703,-2.5907,-2.5191,-2.1849,-2.0859,0.0,0.0,0.0,0.0,0.0,0.0,0.0,0.0,0.0,0.0,0.0,0.0,0.0,0.0,0.0,0.0,0.0,0.0,0.0,0.0,0.0,0.0,0.0,0.0,0.0,0.0,0.0,0.0,0.0,0.0,0.0,0.0,0.0,0.0,0.0,0.0,0.0,0.0,0.0,0.0,0.0,0.0,0.0,0.0,0.0,0.0,0.0,0.0,0.0,0.0,0.0,0.0,-2.8223,-3.3359,-3.6836,-3.9453,-4.1172,-4.0957,-4.0117,-3.8613,-3.666,-3.373,0.0,0.0,0.0,0.0,0.0,0.0,0.0,0.0,0.0,0.0,0.0,0.0,0.0,0.0,0.0,0.0,0.0,0.0,0.0,0.0,0.0,0.0,0.0,0.0,0.0,0.0,0.0,0.0,-1.2983,-1.2594,-1.1156,0.0,0.0,0.0,0.0,0.0,0.0,0.0,0.0,0.0,0.0,-2.6606,-2.6683,-2.8217,-2.8966,-2.7811,-2.8015,-2.7717,-2.6033,-2.576,-2.4952,-2.2538,0.0,0.0,0.0,0.0,0.0,0.0,0.0,0.0,0.0,0.0,0.0,0.0,0.0,0.0,0.0,0.0,0.0,0.0,0.0,0.0,0.0,0.0,0.0,0.0,0.0,0.0,0.0,-2.1914,0.0,0.0,-2.0684,0.0,0.0,0.0,0.0,0.0,0.0,0.0,0.0,0.0,0.0,0.0,0.0,0.0,0.0,0.0,0.0,0.0,0.0,0.0,0.0,0.0,0.0,-2.8242,-3.332,-3.6816,-3.9434,-4.1055,-4.0371,-3.9512,-3.8574,-3.6094,-3.3125,-2.9648,0.0,0.0,0.0,0.0,0.0,0.0,0.0,0.0,0.0,0.0,0.0,0.0,0.0,0.0,0.0,0.0,0.0,0.0,0.0,0.0,0.0,0.0,0.0,0.0,0.0,0.0,-1.2832,-1.1988,-1.1177,0.0,0.0,0.0,0.0,0.0,0.0,0.0,0.0,0.0,0.0,-2.4986,-2.6806,-2.7389,-2.8893,-2.9785,-2.937,-2.8659,-2.7761,-2.6746,-2.6576,-2.5768,0.0,0.0,0.0,0.0,0.0,0.0,0.0,0.0,0.0,0.0,0.0,0.0,0.0,0.0,0.0,0.0,0.0,0.0,0.0,0.0,0.0,0.0,0.0,0.0,0.0,0.0,0.0,-2.7207,-2.6133,0.0,0.0,0.0,0.0,0.0,0.0,0.0,0.0,0.0,0.0,0.0,-3.0508,-3.1601,0.0,0.0,0.0,0.0,0.0,0.0,0.0,0.0,0.0,0.0,0.0,0.0,-2.8555,-3.2578,-3.6562,-3.8887,-3.9453,-3.9746,-3.9199,-3.7754,-3.6328,-3.3144,-2.8027,0.0,0.0,0.0,0.0,0.0,0.0,0.0,0.0,0.0,0.0,0.0,0.0,0.0,0.0,0.0,0.0,0.0,0.0,0.0,0.0,0.0,0.0,0.0,0.0,0.0,-1.4712,0.0,0.0,0.0,0.0,0.0,0.0,0.0,0.0,0.0,0.0,0.0,-2.1735,-2.3456,-2.5699,-2.7281,-2.7483,-2.8814,-2.9713,0.0,0.0,0.0,0.0,0.0,0.0,0.0,0.0,0.0,0.0,0.0,0.0,0.0,0.0,-2.0756,-1.6518,-1.4525,-1.3572,-1.3744,0.0,0.0,0.0,0.0,0.0,0.0,0.0,0.0,0.0,0.0,0.0,0.0,0.0,0.0,-3.0898,0.0,-2.9199,0.0,0.0,0.0,0.0,0.0,0.0,0.0,0.0,-3.2539,-3.4023,-3.4023,-3.5098,-3.5019,0.0,-3.2812,-3.0371,0.0,0.0,0.0,0.0,0.0,0.0,0.0,0.0,-2.916,-3.2598,-3.6269,-3.8281,-3.8594,-3.8867,-3.8457,-3.7305,-3.5586,-3.2539,-2.8047,-2.4883,-2.2559,0.0,0.0,0.0,0.0,0.0,0.0,0.0,0.0,0.0,0.0,0.0,0.0,0.0,0.0,0.0,0.0,0.0,0.0,0.0,0.0,0.0,0.0,0.0,-1.5708,0.0,0.0,0.0,0.0,0.0,0.0,0.0,0.0,0.0,-2.1023,-2.2139,-2.3466,-2.5202,-2.6937,-2.7987,-2.7837,0.0,0.0,0.0,0.0,0.0,0.0,0.0,-2.6741,-2.5933,-2.5613,-2.5283,-2.4713,-2.5283,-2.5562,-2.481,0.0,0.0,-1.8777,-1.6812,-1.5882,-1.6065,-1.6661,-1.7202,-1.749,-1.8521,-1.9355,0.0,0.0,0.0,0.0,0.0,0.0,0.0,0.0,-3.4687,-3.4512,0.0,-3.2812,0.0,0.0,0.0,0.0,0.0,-3.1484,0.0,0.0,-3.7832,-3.9023,-3.7519,-3.748,-3.7461,-3.7422,-3.7285,-3.5898,-3.3184,-2.6777,0.0,0.0,0.0,0.0,0.0,0.0,-3.0039,-3.334,-3.5996,-3.7695,-3.8437,-3.7734,-3.7285,-3.7109,-3.4004,-3.1484,-2.9648,-2.7129,-2.4609,-2.2129,-2.0312,0.0,0.0,0.0,0.0,0.0,0.0,0.0,0.0,0.0,0.0,0.0,0.0,0.0,0.0,0.0,0.0,0.0,0.0,0.0,0.0,-1.5573,0.0,0.0,0.0,0.0,0.0,0.0,0.0,0.0,0.0,0.0,-2.3009,-2.4327,-2.5962,-2.7645,0.0,0.0,0.0,0.0,-2.9542,-2.9133,-2.8374,-2.7926,-2.7952,-2.7908,-2.7585,-2.6869,0.0,0.0,-2.5778,-2.6172,-2.6444,-2.5627,-2.4995,-2.4256,-2.3502,-2.1424,-2.0166,-2.0801,-2.0365,-2.0335,-2.0987,-2.1414,-2.2073,-4.2363,0.0,0.0,0.0,0.0,-3.793,-3.9785,-4.248,-4.0879,-3.9746,-3.8867,-3.7422,0.0,0.0,0.0,0.0,0.0,0.0,-3.5586,-3.6348,-3.9394,-4.0859,-4.0957,-4.0937,-4.0625,-4.0039,-3.8828,-3.7539,-3.6074,-3.2949,-2.9394,-2.5586,0.0,0.0,0.0,0.0,-3.123,-3.3418,-3.5976,-3.7109,-3.6758,-3.7109,-3.6699,-3.5488,-3.3906,-3.2266,-3.0566,-2.8613,-2.6641,-2.4687,-2.2402,0.0,0.0,0.0,0.0,0.0,0.0,0.0,0.0,0.0,0.0,0.0,0.0,0.0,0.0,0.0,0.0,0.0,0.0,0.0,-1.652,-1.7118,-1.7353,0.0,0.0,0.0,0.0,0.0,0.0,0.0,0.0,0.0,-2.6202,-2.6294,-2.6659,0.0,0.0,-2.8786,-2.8428,-2.9026,-2.9578,-2.9834,-2.9659,0.0,-3.0265,-2.9402,-2.8767,-2.9108,-2.8895,-2.8491,-2.8051,-2.8161,-2.8061,-2.7302,-2.6592,-2.5872,-2.5031,-2.3175,-2.1654,-2.1309,-2.1414,-2.1515,-2.1309,-2.1786,-2.2313,-4.7266,-4.3125,-4.2285,-4.1914,-4.1914,-4.1933,-4.3398,-4.5703,-4.4473,-4.3496,-4.2656,-4.1582,-3.9414,-3.6445,-3.541,0.0,0.0,0.0,-3.8516,-3.9394,-4.1308,-4.2441,-4.2871,-4.2558,-4.2148,-4.1621,-4.0293,-3.918,-3.832,-3.7266,-3.4668,-3.0644,0.0,0.0,-2.9121,-3.0937,-3.2559,-3.3926,-3.5801,-3.6523,-3.6016,-3.6523,-3.6113,-3.4746,-3.3848,-3.2773,-3.1445,-2.9414,-2.7656,-2.625,-2.3769,-2.1582,0.0,0.0,0.0,0.0,0.0,0.0,0.0,0.0,0.0,0.0,0.0,-1.2085,-1.0875,0.0,0.0,0.0,-1.462,-1.6731,-1.8628,-1.9029,0.0,0.0,0.0,0.0,0.0,0.0,0.0,-2.4009,-2.5337,-2.6645,-2.8165,-2.8525,-2.8832,-2.9333,-2.9711,-2.9932,-2.9918,0.0,-3.0543,-3.0655,-3.0687,-3.0852,-3.1305,-3.0595,-3.0026,-3.0173,-2.9537,-2.9023,-2.8987,-2.8987,-2.8846,-2.8389,-2.7745,-2.7081,-2.6597,-2.5145,-2.3697,-2.273,-2.2866,-2.2902,-2.2223,-2.2429,-2.2665,-5.0957,-5.0019,-4.6836,-4.543,-4.5312,-4.5312,-4.5312,-4.5371,-4.6074,-4.5918,-4.5098,-4.5019,-4.3672,-4.1269,-3.8906,0.0,-3.9082,-4.0723,-4.1875,-4.2656,-4.3516,-4.3887,-4.3867,-4.3027,-4.2578,-4.25,-4.168,-4.0859,-4.0,-3.998,-3.875,-3.6309,-3.3984,-3.2676,-3.2441,-3.3203,-3.4004,-3.4805,-3.5605,-3.6016,-3.6016,-3.6016,-3.5547,-3.4609,-3.375,-3.2871,-3.1973,-2.9609,-2.7891,-2.6992,-2.457,-2.248,-2.084,0.0,0.0,0.0,0.0,0.0,0.0,0.0,0.0,0.0,0.0,0.0,0.0,0.0,0.0,0.0,-1.7228,0.0,-2.0312,-2.1058,0.0,0.0,0.0,-2.1273,-2.3004,-2.3836,-2.4952,-2.6621,0.0,0.0,-2.93,-3.0698,-3.1756,-3.1872,-3.1833,-3.1902,-3.2191,-3.2166,-3.2058,-3.1598,-3.1538,-3.1532,-3.1721,-3.147,-3.0999,-3.0301,-2.9519,-2.9023,-2.8987,-2.8987,-2.8994,-2.8815,-2.8352,-2.7823,-2.7791,-2.6992,-2.6268,-2.488,-2.4592,-2.4355,-2.3613,-2.346,-2.3274,-5.1308,-5.1055,-5.0234,-4.9141,-4.7969,-4.7969,-4.7969,-4.793,-4.75,-4.6816,-4.5957,-4.5293,-4.4277,-4.3066,-4.2461,-4.2285,-4.2539,-4.3594,-4.4199,-4.4433,-4.5273,-4.5683,-4.5625,-4.4785,-4.4023,-4.3359,-4.2519,-4.168,-4.0918,-4.0879,-4.0234,-3.9004,-3.8359,-3.6738,-3.4238,-3.4961,-3.5488,-3.5703,-3.5898,-3.6016,-3.6016,-3.6016,-3.5273,-3.375,-3.291,-3.1777,-3.0273,-2.8984,-2.7891,-2.7012,-2.5137,-2.3633,-2.2598,-1.8848,0.0,0.0,0.0,0.0,0.0,0.0,0.0,0.0,0.0,-1.5717,-1.2725,0.0,-1.6411,0.0,-1.8776,-2.0323,-2.1119,-2.1385,0.0,0.0,-2.3678,-2.4105,-2.6409,-2.6294,-2.6659,-2.8294,-2.8857,-2.9608,-3.091,-3.1448,-3.2179,-3.3372,-3.3026,-3.2582,-3.2534,-3.2493,-3.2531,-3.2594,-3.2595,-3.2772,-3.3015,-3.2155,-3.1146,-3.0338,-2.9519,-2.9005,-2.8987,-2.8987,-2.8846,-2.8313,-2.8037,-2.7695,-2.7131,-2.6825,-2.6623,-2.6234,-2.5743,-2.5118,-2.4406,-2.4237,-2.4034,-5.1387,-5.1387,-5.1387,-5.0664,-4.9453,-4.9062,-4.8887,-4.8828,-4.7988,-4.7109,-4.6269,-4.5801,-4.5312,-4.4863,-4.4863,-4.4863,-4.4883,-4.5351,-4.5566,-4.5605,-4.6074,-4.6289,-4.6269,-4.541,-4.4551,-4.3691,-4.2812,-4.1973,-4.123,-4.1191,-4.0937,-4.0488,-4.0469,-3.9316,-3.709,-3.6719,-3.6582,-3.6582,-3.6191,-3.6016,-3.5996,-3.5625,-3.4766,-3.3457,-3.2617,-3.1387,-2.9668,-2.875,-2.7891,-2.7012,-2.5352,-2.4199,-2.3711,-2.0742,-1.9043,0.0,0.0,0.0,0.0,0.0,0.0,0.0,0.0,0.0,0.0,0.0,-1.8957,-1.9416,-2.1324,-2.2712,-2.3135,-2.3889,-2.4928,-2.6313,-2.6063,-2.6491,-2.8261,-2.8011,-2.8376,-3.0044,-3.0256,-3.0737,-3.2064,-3.2564,-3.3122,-3.409,-3.4103,-3.3978,-3.3761,-3.3608,-3.3545,-3.3553,-3.343,-3.3438,-3.3778,-3.2761,-3.1678,-3.087,-3.0069,-2.9427,-2.9078,-2.8987,-2.8851,-2.8469,-2.812,-2.7765,-2.7317,-2.6906,-2.6708,-2.664,-2.637,-2.5845,-2.5135,-2.4983,-2.478,-5.1387,-5.1387,-5.1387,-5.1016,-5.0273,-4.9433,-4.8945,-4.8672,-4.793,-4.7109,-4.6289,-4.6289,-4.6289,-4.6289,-4.6289,-4.6289,-4.6289,-4.6289,-4.6289,-4.6289,-4.6289,-4.6289,-4.625,-4.5527,-4.4707,-4.3848,-4.2988,-4.2129,-4.1348,-4.125,-4.1191,-4.1191,-4.1191,-4.082,-4.0019,-3.832,-3.7344,-3.7129,-3.6387,-3.6016,-3.5996,-3.5156,-3.4277,-3.3418,-3.2402,-3.1113,-2.9492,-2.8496,-2.7617,-2.6836,-2.5273,-2.4336,-2.4199,-2.2754,-2.1523,0.0,-1.9883,0.0,0.0,0.0,0.0,0.0,0.0,0.0,0.0,-2.0536,-2.2068,-2.2013,-2.4212,-2.5596,-2.5481,-2.6928,-2.7928,-2.803,-2.8049,-2.8396,-2.93,-2.9434,-3.0063,-3.1679,-3.1852,-3.216,-3.2968,-3.3763,-3.4205,-3.443,-3.4968,-3.5232,-3.5133,-3.484,-3.4552,-3.4304,-3.3981,-3.376,-3.3715,-3.3096,-3.2326,-3.1623,-3.0742,-2.9971,-2.9317,-2.9078,-2.8952,-2.8791,-2.8281,-2.7869,-2.7783,-2.7129,-2.6725,-2.6691,-2.6657,-2.6454,-2.5913,-2.5727,-2.549,-5.1387,-5.1387,-5.1387,-5.1308,-5.1113,-5.0293,-4.916,-4.7832,-4.7676,-4.7109,-4.6308,-4.6289,-4.6289,-4.6289,-4.6289,-4.6289,-4.6289,-4.6289,-4.6289,-4.6289,-4.6289,-4.6289,-4.6289,-4.6133,-4.5605,-4.4726,-4.3887,-4.3008,-4.2148,-4.1504,-4.1191,-4.1191,-4.1191,-4.1133,-4.0859,0.0,0.0,0.0,-3.6094,-3.6016,-3.5976,-3.5137,-3.4277,-3.3379,-3.125,0.0,-2.8574,-2.7031,-2.6113,-2.5918,-2.4961,0.0,0.0,0.0,0.0,0.0,0.0,0.0,0.0,0.0,0.0,0.0,-2.4199,-2.2907,-1.9446,-2.2469,-2.4664,-2.463,-2.6294,-2.7121,-2.6447,-2.728,-2.8165,-2.878,-2.8876,-2.9492,-3.0987,-3.1198,-3.1621,-3.2526,-3.266,-3.3006,-3.3821,-3.4109,-3.4468,-3.5096,-3.5404,-3.5467,-3.5432,-3.5182,-3.4907,-3.4624,-3.4123,-3.382,-3.3807,-3.3146,-3.2619,-3.2234,-3.1127,-3.0265,-2.9941,-2.939,-2.8785,-2.8326,-2.7996,-2.7681,-2.7099,-2.6791,-2.6708,-2.6708,-2.6708,-2.6674,-2.6505,-2.6471,-2.6268,-5.1387,0.0,-5.1387,-5.1387,0.0,-5.0957,-5.0058,-4.8828,-4.7969,-4.7129,-4.6308,-4.6289,-4.6289,-4.6289,-4.6289,-4.6289,-4.6289,-4.6289,-4.6289,-4.6289,-4.6289,-4.6289,-4.6289,-4.6289,-4.584,-4.4961,-4.4121,-4.3242,-4.2383,-4.1582,-4.1191,-4.1191,-4.1191,-4.1191,-4.1133,-3.9473,-3.7754,-3.6016,-3.6016,-3.6016,-3.5976,-3.5137,-3.4277,-3.3379,-3.1777,0.0,0.0,0.0,0.0,0.0,0.0,0.0,0.0,0.0,0.0,-2.3789,-2.416,-2.4394,-2.4434,-2.4414,-2.4785,-2.5625,-2.6113,-2.5562,-2.3697,-2.511,-2.6184,-2.6578,-2.7741,-2.8313,-2.7928,-2.8986,-2.9948,-3.0333,-3.0743,-3.1352,-3.2122,-3.2295,-3.2622,-3.3372,-3.3551,-3.3872,-3.4718,-3.4834,-3.5007,-3.5423,-3.55,-3.55,-3.5453,-3.5166,-3.4764,-3.4348,-3.403,-3.382,-3.3788,-3.3513,-3.3018,-3.2583,-3.1922,-3.1109,-3.0338,-2.9879,-2.9326,-2.859,-2.8161,-2.7722,-2.7396,-2.7004,-2.6708,-2.6708,-2.6708,-2.6708,-2.6708,-2.6708,-2.6607,-5.1387,-5.1387,-5.1387,-5.1387,-5.1387,-5.1387,-5.0859,-4.9863,0.0,0.0,0.0,-4.6289,-4.6289,-4.6289,-4.6289,-4.6289,-4.6289,-4.6289,-4.6289,-4.6289,-4.6289,-4.6289,-4.6289,-4.6289,-4.5937,-4.5195,-4.4199,-4.332,-4.2617,-4.168,-4.1191,-4.1191,-4.1191,-4.1113,-4.0879,-3.9394,-3.7832,-3.6289,-3.6094,-3.6016,-3.5996,-3.5156,-3.4355,-3.3633,-3.2559,-3.1289,-2.9883,-2.8848,-2.7969,-2.7246,-2.6543,-2.6074,-2.5977,-2.6758,-2.7168,-2.7031,-2.7812,-2.7988,-2.7285,-2.7226,-2.6992,-2.6426,-2.7187,-2.7883,-2.8335,-2.7608,-2.7497,-2.8289,-2.8964,-2.9396,-2.955,-3.0814,-3.1756,-3.1891,-3.2506,-3.291,-3.3103,-3.3122,-3.3468,-3.4237,-3.4417,-3.468,-3.5346,-3.5442,-3.55,-3.55,-3.55,-3.546,-3.5376,-3.5016,-3.4508,-3.3979,-3.3834,-3.3807,-3.3807,-3.3788,-3.3532,-3.2986,-3.2693,-3.2106,-3.1005,-3.0393,-2.9929,-2.9211,-2.8486,-2.801,-2.7797,-2.7257,-2.6791,-2.6708,-2.6708,-2.6708,-2.6708,-2.6708,-2.6691,-5.1387,-5.1387,-5.1387,-5.1387,-5.1387,-5.1387,-5.0508,-4.9023,-4.8027,-4.7129,-4.6308,-4.6289,-4.6289,-4.6289,-4.6289,-4.6289,-4.6289,-4.6289,-4.6289,-4.6289,-4.6289,-4.6289,-4.6289,-4.6289,-4.625,-4.5996,-4.4473,-4.3633,-4.3359,-4.1953,-4.1191,-4.1191,-4.1191,-4.084,-4.0078,-3.9101,-3.8105,-3.7129,-3.6367,-3.6016,-3.5996,-3.5156,-3.4648,-3.4434,-3.2305,-3.0996,-3.0703,-2.918,-2.8242,-2.8105,-2.8008,-2.7598,-2.6894,-2.7656,-2.7773,-2.7109,-2.7832,-2.8242,-2.8144,-2.8125,-2.8398,-2.9023,-2.9844,-3.0056,-2.9361,-2.9073,-2.9281,-3.004,-3.0188,-3.0519,-3.1237,-3.1602,-3.2058,-3.2622,-3.2852,-3.3179,-3.391,-3.4013,-3.4334,-3.5141,-3.5308,-3.5288,-3.5442,-3.55,-3.55,-3.55,-3.55,-3.5432,-3.5198,-3.4908,-3.4472,-3.3972,-3.3807,-3.3807,-3.3807,-3.3807,-3.3715,-3.3678,-3.3041,-3.2564,-3.2142,-3.1072,-3.0161,-2.9606,-2.8871,-2.8151,-2.7589,-2.7301,-2.7051,-2.6808,-2.6708,-2.6708,-2.6708,-2.6708,-2.6691,-5.1387,-5.1387,-5.1387,-5.1387,-5.1387,-5.1387,-5.0449,-4.8926,-4.8476,-4.7539,-4.6348,-4.6289,-4.6289,-4.6289,-4.6289,-4.6289,-4.6289,-4.6289,-4.6289,-4.6289,-4.6289,-4.6289,-4.6289,-4.6289,-4.6289,-4.6191,-4.4531,-4.3711,-4.3555,-4.2012,-4.1191,-4.1191,-4.1191,-4.0996,-4.0547,-3.9258,-3.8418,-3.7988,-3.668,-3.6016,-3.5996,-3.5605,-3.5195,-3.4726,-3.3516,-3.2519,-3.1621,-3.0391,-2.9492,-2.9023,-2.8535,-2.8125,-2.7773,-2.8535,-2.8828,-2.8476,-2.9238,-2.9707,-2.9726,-2.9707,-2.9883,-3.0293,-3.1113,-3.1445,-3.101,-3.0798,-3.0831,-3.1128,-3.1503,-3.191,-3.2333,-3.2776,-3.3199,-3.3564,-3.4007,-3.4462,-3.4814,-3.4911,-3.5077,-3.5423,-3.55,-3.55,-3.55,-3.55,-3.55,-3.55,-3.55,-3.5391,-3.5138,-3.499,-3.4695,-3.4141,-3.3902,-3.382,-3.3807,-3.3807,-3.3807,-3.3807,-3.3513,-3.3078,-3.2674,-3.1586,-3.0735,-2.9995,-2.9121,-2.8291,-2.7707,-2.7424,-2.7162,-2.6825,-2.6708,-2.6708,-2.6708,-2.6708,-2.6556,-5.1387,-5.1387,-5.1387,-5.1387,-5.1387,-5.1387,-5.0566,-4.9219,-4.8984,-4.8027,-4.668,-4.6406,-4.6289,-4.6289,-4.6289,-4.6289,-4.6289,-4.6289,-4.6289,-4.6289,-4.6289,-4.6289,-4.6289,-4.6289,-4.6289,-4.6094,-4.4531,-4.3711,-4.3516,-4.2012,-4.1191,-4.1191,-4.1191,-4.1191,-4.1172,-3.9492,-3.8613,-3.8496,-3.6894,-3.6016,-3.6016,-3.6016,-3.5664,-3.5059,-3.4805,-3.4082,-3.2812,-3.1758,-3.0879,-3.0215,-2.9355,-2.8887,-2.8926,-2.9531,-2.9902,-2.9961,-3.0527,-3.0918,-3.0918,-3.1094,-3.1191,-3.1211,-3.1992,-3.2461,-3.2439,-3.2516,-3.2375,-3.2173,-3.2517,-3.2929,-3.3199,-3.3737,-3.4282,-3.4487,-3.5084,-3.5404,-3.5481,-3.55,-3.55,-3.55,-3.55,-3.55,-3.55,-3.55,-3.55,-3.55,-3.55,-3.5417,-3.5231,-3.5138,-3.486,-3.4456,-3.4068,-3.3876,-3.3834,-3.3807,-3.3807,-3.3807,-3.3788,-3.3495,-3.2944,-3.2228,-3.1421,-3.0632,-2.9612,-2.8688,-2.8081,-2.7663,-2.727,-2.6874,-2.6708,-2.6708,-2.6708,-2.6708,-2.6556,-5.1387,-5.1387,-5.1387,-5.1387,-5.1387,-5.1387,-5.0879,-5.0,-4.9238,-4.8398,-4.7422,-4.6641,-4.6289,-4.6289,-4.6289,-4.6289,-4.6289,-4.6289,-4.6289,-4.6289,-4.6289,-4.6289,-4.625,-4.625,-4.6289,-4.6035,-4.4473,-4.3613,-4.3535,-4.1992,-4.1191,-4.1191,-4.1191,-4.1191,-4.1016,-3.9473,-3.8613,-3.8574,-3.6875,-3.6016,-3.6016,-3.6016,-3.5976,-3.5879,-3.5117,-3.4629,-3.4336,-3.293,-3.2051,-3.1914,-3.1133,-3.0664,-3.0664,-3.0742,-3.0781,-3.0801,-3.0898,-3.0918,-3.0976,-3.1621,-3.209,-3.2129,-3.2812,-3.328,-3.3246,-3.3893,-3.3958,-3.3335,-3.2995,-3.3352,-3.3955,-3.4205,-3.4564,-3.518,-3.5404,-3.55,-3.55,-3.55,-3.55,-3.55,-3.55,-3.55,-3.55,-3.55,-3.55,-3.55,-3.55,-3.5493,-3.5424,-3.5266,-3.5016,-3.4704,-3.4386,-3.408,-3.3881,-3.3807,-3.3807,-3.3807,-3.3807,-3.3715,-3.344,-3.2894,-3.2216,-3.139,-3.0497,-2.9457,-2.8433,-2.7808,-2.7545,-2.6906,-2.6708,-2.6708,-2.6708,-2.6708,-2.6607,-5.1387,-5.1387,-5.1387,-5.1387,-5.1387,-5.1387,-5.0937,-5.0117,-4.9277,-4.8418,-4.7539,-4.668,-4.6289,-4.6289,-4.6289,-4.6289,-4.6289,-4.6289,-4.6289,-4.625,-4.5781,-4.5547,-4.5488,-4.498,-4.4766,-4.4668,-4.3516,-4.293,-4.2734,-4.1758,-4.1191,-4.1191,-4.1191,-4.1191,-4.1074,-3.9473,-3.8613,-3.8555,-3.6894,-3.6016,-3.6016,-3.6016,-3.6016,-3.5957,-3.5644,-3.5195,-3.4726,-3.4004,-3.3437,-3.2949,-3.2559,-3.2383,-3.2363,-3.1934,-3.1894,-3.2324,-3.2383,-3.2363,-3.2383,-3.2734,-3.291,-3.291,-3.3691,-3.416,-3.4156,-3.4882,-3.5158,-3.4773,-3.4555,-3.4658,-3.4892,-3.4968,-3.5115,-3.5442,-3.55,-3.55,-3.55,-3.55,-3.55,-3.55,-3.55,-3.55,-3.55,-3.55,-3.55,-3.55,-3.55,-3.55,-3.5493,-3.541,-3.5174,-3.4793,-3.4572,-3.4307,-3.3934,-3.3807,-3.3807,-3.3807,-3.3807,-3.3807,-3.3697,-3.3146,-3.2454,-3.2118,-3.1109,-3.0012,-2.8849,-2.8131,-2.7648,-2.7004,-2.6708,-2.6708,-2.6708,-2.6708,-2.6708,-5.1387,-5.1387,-5.1387,-5.1387,-5.1387,-5.1387,-5.1055,-5.041,-4.9375,-4.8555,-4.7871,-4.6797,-4.6289,-4.6289,-4.6289,-4.6289,-4.6289,-4.6289,-4.6172,-4.5898,-4.5273,-4.4863,-4.459,-4.4023,-4.3711,-4.3555,-4.2832,-4.2305,-4.2051,-4.1504,-4.1191,-4.1191,-4.1191,-4.1191,-4.1016,-3.9473,-3.8613,-3.8437,-3.6894,-3.6016,-3.6016,-3.6016,-3.6016,-3.6016,-3.6016,-3.5684,-3.5098,-3.4844,-3.4414,-3.3809,-3.3535,-3.3379,-3.3359,-3.2832,-3.2793,-3.3301,-3.3379,-3.3379,-3.3398,-3.3613,-3.3769,-3.3828,-3.4551,-3.5059,-3.5156,-3.5598,-3.5843,-3.5708,-3.5694,-3.5542,-3.5502,-3.55,-3.55,-3.55,-3.55,-3.55,-3.55,-3.55,-3.55,-3.55,-3.55,-3.55,-3.55,-3.55,-3.55,-3.55,-3.55,-3.55,-3.55,-3.5486,-3.5304,-3.4812,-3.4713,-3.4431,-3.3947,-3.3807,-3.3807,-3.3807,-3.3807,-3.3807,-3.3807,-3.3238,-3.2711,-3.243,-3.1403,-3.0503,-2.9583,-2.8771,-2.7809,-2.7055,-2.6708,-2.6708,-2.6708,-2.6708,-2.6708,-5.1387,-5.1387,-5.1387,-5.1387,-5.1387,-5.1387,-5.1367,-5.1133,-4.9609,-4.8848,-4.8555,-4.7031,-4.6289,-4.6289,-4.6289,-4.6289,-4.6289,-4.6289,-4.5879,-4.5176,-4.498,-4.4531,-4.3769,-4.3711,-4.3652,-4.3418,-4.2676,-4.1973,-4.1328,-4.125,-4.1191,-4.1191,-4.1191,-4.1191,-4.0976,-3.9473,-3.8613,-3.8418,-3.6894,-3.6016,-3.6016,-3.6016,-3.6016,-3.6016,-3.6016,-3.5957,-3.582,-3.5156,-3.4687,-3.4668,-3.3945,-3.3476,-3.3437,-3.3437,-3.3437,-3.3437,-3.3457,-3.3457,-3.3594,-3.4219,-3.4648,-3.4746,-3.5371,-3.5918,-3.582,-3.5918,-3.5951,-3.5901,-3.5755,-3.5644,-3.5541,-3.5494,-3.5481,-3.55,-3.55,-3.55,-3.55,-3.55,-3.55,-3.55,-3.55,-3.55,-3.55,-3.55,-3.55,-3.55,-3.55,-3.5538,-3.5596,-3.5558,-3.5285,-3.4946,-3.472,-3.4505,-3.3959,-3.3807,-3.3807,-3.3807,-3.3807,-3.3807,-3.3788,-3.3678,-3.3256,-3.2908,-3.2381,-3.1596,-3.0466,-2.9372,-2.8289,-2.7462,-2.686,-2.6725,-2.6708,-2.6708,-2.6708,-5.1387,-5.1387,-5.1387,-5.1387,-5.1387,-5.1387,-5.1387,-5.123,-4.9629,-4.8887,-4.8594,-4.707,-4.6289,-4.6289,-4.6289,-4.6289,-4.6289,-4.6289,-4.584,-4.5,-4.4433,-4.3711,-4.2871,-4.2363,-4.209,-4.2031,-4.1777,-4.1504,-4.125,-4.1191,-4.1191,-4.1191,-4.1191,-4.1191,-4.0898,-3.9473,-3.8613,-3.8437,-3.6875,-3.6016,-3.6016,-3.6016,-3.6016,-3.6016,-3.6016,-3.6016,-3.6016,-3.5684,-3.5527,-3.5527,-3.5215,-3.5059,-3.5059,-3.5059,-3.4785,-3.4355,-3.4766,-3.5059,-3.5098,-3.5351,-3.5527,-3.5547,-3.5801,-3.6016,-3.6016,-3.5996,-3.5974,-3.5887,-3.5772,-3.5659,-3.5574,-3.5515,-3.55,-3.55,-3.55,-3.55,-3.55,-3.55,-3.55,-3.55,-3.55,-3.55,-3.5538,-3.55,-3.55,-3.55,-3.55,-3.5769,-3.6058,-3.5865,-3.5553,-3.541,-3.5004,-3.4486,-3.3895,-3.3807,-3.3807,-3.3807,-3.3807,-3.3807,-3.3807,-3.3807,-3.3476,-3.333,-3.3036,-3.2419,-3.1182,-2.9814,-2.873,-2.7944,-2.7318,-2.7029,-2.6708,-2.686,-2.681,-5.1387,-5.1387,-5.1387,-5.1387,-5.1387,-5.1387,-5.1387,-5.1191,-4.9629,-4.8887,-4.8574,-4.707,-4.6289,-4.6289,-4.6289,-4.6289,-4.6289,-4.6289,-4.5683,-4.459,-4.3965,-4.3105,-4.207,-4.1445,-4.1191,-4.1211,-4.1191,-4.1191,-4.1191,-4.1191,-4.1191,-4.1191,-4.1191,-4.1191,-4.0957,-3.9746,-3.8906,-3.8398,-3.7148,-3.6309,-3.6074,-3.6016,-3.6016,-3.6016,-3.6016,-3.6016,-3.6016,-3.6016,-3.6016,-3.6016,-3.6016,-3.6016,-3.6016,-3.6016,-3.5742,-3.5273,-3.5664,-3.6016,-3.6016,-3.6016,-3.5996,-3.5996,-3.6016,-3.6016,-3.6016,-3.6016,-3.5996,-3.5921,-3.5841,-3.5788,-3.5993,-3.5991,-3.5836,-3.5597,-3.55,-3.5635,-3.5827,-3.5635,-3.5519,-3.55,-3.55,-3.5596,-3.5827,-3.5885,-3.6058,-3.625,-3.6295,-3.6577,-3.6885,-3.6704,-3.6251,-3.6234,-3.5601,-3.4982,-3.4367,-3.41,-3.388,-3.3844,-3.3807,-3.3807,-3.3807,-3.3807,-3.3788,-3.3678,-3.3336,-3.2776,-3.1776,-3.0362,-2.936,-2.8528,-2.8081,-2.7825,-2.7469,-2.7131,-2.7097,-5.1387,-5.1387,-5.1387,-5.1387,-5.1387,-5.1387,-5.1387,-5.1113,-4.9687,-4.9004,-4.8711,-4.7109,-4.6406,-4.6289,-4.6289,-4.6289,-4.6289,-4.6289,-4.5469,-4.4043,-4.3769,-4.2871,-4.1465,-4.1269,-4.1191,-4.1191,-4.1191,-4.1191,-4.1191,-4.1191,-4.1191,-4.1191,-4.1191,-4.1191,-4.1191,-4.0234,-3.9414,-3.8574,-3.7637,-3.6816,-3.6113,-3.6016,-3.6016,-3.6016,-3.6016,-3.6016,-3.6016,-3.6016,-3.6016,-3.6016,-3.6016,-3.6016,-3.6016,-3.6016,-3.5996,-3.5918,-3.5996,-3.6016,-3.6016,-3.6016,-3.6016,-3.6016,-3.6016,-3.6016,-3.6016,-3.6016,-3.6035,-3.6133,-3.6076,-3.6226,-3.6855,-3.693,-3.6598,-3.5746,-3.5808,-3.6096,-3.6404,-3.6038,-3.5558,-3.5692,-3.5788,-3.5923,-3.6462,-3.6712,-3.6962,-3.7488,-3.768,-3.7777,-3.793,-3.7777,-3.7608,-3.7184,-3.6459,-3.5732,-3.5051,-3.4412,-3.41,-3.3862,-3.3825,-3.3807,-3.3807,-3.3807,-3.3807,-3.3733,-3.3733,-3.3195,-3.2477,-3.1158,-3.0342,-2.9575,-2.9127,-2.8555,-2.8146,-2.7791,-2.7537,-5.1387,-5.1387,-5.1387,-5.1387,-5.1387,-5.1387,-5.1387,-5.1289,-5.0234,-4.9453,-4.8769,-4.7695,-4.6875,-4.6406,-4.6289,-4.6289,-4.6289,-4.6269,-4.5683,-4.4648,-4.3984,-4.3105,-4.209,-4.1465,-4.1191,-4.1191,-4.1191,-4.1191,-4.1191,-4.1191,-4.1191,-4.1191,-4.1191,-4.1191,-4.1152,-4.0332,-3.9453,-3.8594,-3.7734,-3.6875,-3.6094,-3.6016,-3.6016,-3.6016,-3.6016,-3.6016,-3.6016,-3.6016,-3.6016,-3.6016,-3.6016,-3.6016,-3.6016,-3.6016,-3.6016,-3.6016,-3.6016,-3.6016,-3.6016,-3.6016,-3.6016,-3.6016,-3.6016,-3.6016,-3.6016,-3.6035,-3.6309,-3.6738,-3.6843,-3.7104,-3.7742,-3.7851,-3.763,-3.7259,-3.7219,-3.7212,-3.743,-3.7334,-3.7257,-3.7219,-3.7219,-3.7353,-3.7507,-3.7603,-3.7738,-3.8027,-3.8123,-3.8257,-3.8681,-3.8469,-3.8212,-3.8166,-3.7354,-3.6622,-3.6056,-3.5376,-3.4816,-3.4376,-3.4119,-3.3844,-3.3807,-3.3807,-3.3807,-3.3807,-3.3807,-3.3538,-3.2821,-3.2089,-3.1236,-3.0421,-2.9763,-2.9242,-2.8775,-2.8501,-2.8315,-5.1387,-5.1387,-5.1387,-5.1387,-5.1387,-5.1387,-5.1387,-5.1269,-5.0547,-4.9707,-4.8848,-4.7988,-4.7109,-4.6426,-4.6289,-4.6289,-4.6289,-4.6289,-4.5996,-4.5332,-4.418,-4.3242,-4.2383,-4.1582,-4.1191,-4.1191,-4.1191,-4.1191,-4.1191,-4.1191,-4.1191,-4.1191,-4.1191,-4.1191,-4.1172,-4.0664,-3.9961,-3.9082,-3.8223,-3.7363,-3.6601,-3.6172,-3.6016,-3.6016,-3.6016,-3.6016,-3.6016,-3.6016,-3.6016,-3.6016,-3.6016,-3.6016,-3.6016,-3.6016,-3.6016,-3.6016,-3.6016,-3.6016,-3.6016,-3.6016,-3.6016,-3.6016,-3.6016,-3.6191,-3.6387,-3.6484,-3.6875,-3.7598,-3.7749,-3.8047,-3.8688,-3.8805,-3.8811,-3.8987,-3.832,-3.8053,-3.8046,-3.8315,-3.8238,-3.8046,-3.793,-3.8142,-3.8373,-3.8488,-3.8642,-3.8823,-3.8931,-3.9027,-3.9515,-3.9296,-3.9262,-3.9021,-3.8255,-3.7623,-3.7131,-3.6419,-3.5615,-3.5037,-3.4504,-3.4082,-3.3807,-3.3807,-3.3807,-3.3807,-3.3807,-3.3793,-3.3193,-3.2724,-3.2001,-3.1213,-3.0472,-3.0154,-2.9802,-2.9468,-2.9194,-5.1387,-5.1387,-5.1387,-5.1387,-5.1387,-5.1387,-5.1387,-5.1289,-5.0664,-4.9805,-4.8867,-4.8125,-4.7207,-4.6465,-4.6289,-4.6289,-4.6289,-4.6289,-4.6289,-4.5781,-4.4629,-4.334,-4.2207,-4.1504,-4.1211,-4.1191,-4.1191,-4.1191,-4.1191,-4.1191,-4.1191,-4.1191,-4.1191,-4.1191,-4.1172,-4.1172,-4.0664,-3.9785,-3.9043,-3.8242,-3.7402,-3.6699,-3.6211,-3.6191,-3.6172,-3.6133,-3.6016,-3.6016,-3.6016,-3.6016,-3.6016,-3.6016,-3.6016,-3.6016,-3.6016,-3.6016,-3.6016,-3.6016,-3.6016,-3.6016,-3.6094,-3.6191,-3.625,-3.6426,-3.7207,-3.7383,-3.7734,-3.8555,-3.8672,-3.8981,-3.9587,-3.9757,-4.0016,-4.0311,-3.9269,-3.8484,-3.8257,-3.8938,-3.9027,-3.8488,-3.8219,-3.843,-3.9258,-3.9361,-3.9669,-4.0054,-4.0246,-4.0246,-4.0265,-4.0127,-4.0257,-3.9775,-3.9029,-3.8599,-3.8078,-3.7133,-3.6387,-3.6046,-3.5367,-3.4706,-3.4082,-3.3954,-3.3825,-3.3807,-3.3807,-3.3793,-3.363,-3.31,-3.2686,-3.2062,-3.1533,-3.1194,-3.0762,-3.0302,-3.004,-5.1387,-5.1387,-5.1387,-5.1387,-5.1387,-5.1387,-5.1387,-5.1387,-5.1191,-5.0215,-4.9082,-4.8672,-4.7676,-4.6406,-4.6289,-4.6289,-4.6289,-4.6289,-4.6289,-4.6133,-4.5215,-4.3418,-4.1875,-4.1328,-4.1191,-4.1191,-4.1191,-4.1191,-4.1191,-4.1191,-4.1191,-4.1191,-4.1191,-4.1191,-4.1191,-4.1191,-4.0742,-4.0019,-3.9726,-3.9121,-3.8359,-3.8008,-3.7598,-3.7012,-3.6973,-3.6641,-3.6094,-3.6016,-3.6016,-3.6016,-3.6016,-3.6016,-3.6016,-3.6016,-3.6016,-3.6016,-3.6035,-3.6035,-3.6035,-3.6094,-3.6328,-3.6875,-3.6953,-3.7344,-3.8164,-3.8242,-3.8691,-3.9336,-3.957,-3.9883,-4.0566,-4.0663,-4.0698,-4.0613,-4.0049,-3.9696,-3.9765,-4.0015,-4.0073,-3.9881,-3.9765,-3.9881,-3.9996,-4.0131,-4.0227,-4.0439,-4.0496,-4.0496,-4.0496,-4.0489,-4.0433,-4.0285,-3.9767,-3.9432,-3.8877,-3.7886,-3.7224,-3.7048,-3.6413,-3.5605,-3.4871,-3.427,-3.4027,-3.3807,-3.3807,-3.3807,-3.3666,-3.3378,-3.3027,-3.2632,-3.2143,-3.1563,-3.124,-3.0869,-3.0801,-5.1387,-5.1387,-5.1387,-5.1387,-5.1387,-5.1387,-5.1387,-5.1387,-5.1367,-5.0469,-4.916,-4.8887,-4.793,-4.6406,-4.6289,-4.6289,-4.6289,-4.6289,-4.6289,-4.6152,-4.5371,-4.3769,-4.209,-4.1445,-4.1191,-4.1191,-4.1191,-4.1191,-4.1191,-4.1191,-4.1191,-4.1191,-4.1191,-4.1191,-4.1191,-4.1191,-4.0976,-4.0469,-4.0137,-3.9609,-3.918,-3.8769,-3.8379,-3.791,-3.7851,-3.7539,-3.7148,-3.7109,-3.6816,-3.623,-3.6016,-3.6016,-3.6016,-3.6016,-3.6016,-3.6016,-3.6309,-3.6562,-3.6621,-3.6855,-3.7324,-3.7734,-3.7851,-3.8301,-3.8926,-3.9141,-3.9492,-4.0293,-4.041,-4.0703,-4.1016,-4.108,-4.0911,-4.0767,-4.0642,-4.0547,-4.0512,-4.0439,-4.0496,-4.0496,-4.0496,-4.0496,-4.0496,-4.0496,-4.0496,-4.0496,-4.0496,-4.0496,-4.0496,-4.0496,-4.0481,-4.0345,-4.0167,-3.9756,-3.9397,-3.8558,-3.7996,-3.7794,-3.7309,-3.6505,-3.5807,-3.4968,-3.4491,-3.4247,-3.4009,-3.378,-3.368,-3.3522,-3.3196,-3.2793,-3.2332,-3.1896,-3.1506,-3.119,-3.119,-5.1387,-5.1387,-5.1387,-5.1387,-5.1387,-5.1387,-5.1387,-5.1387,-5.1387,-5.0469,-4.916,-4.8887,-4.791,-4.6308,-4.6289,-4.6289,-4.6289,-4.6289,-4.6289,-4.6035,-4.5351,-4.4062,-4.2637,-4.1777,-4.1387,-4.123,-4.1191,-4.1191,-4.1191,-4.1191,-4.1191,-4.1191,-4.1191,-4.1191,-4.1191,-4.1191,-4.1191,-4.0996,-4.0488,-4.0195,-3.9961,-3.9473,-3.9062,-3.8769,-3.8476,-3.8457,-3.8398,-3.8379,-3.7851,-3.6348,-3.6269,-3.6445,-3.6406,-3.6348,-3.6367,-3.6543,-3.709,-3.7441,-3.7519,-3.8047,-3.8574,-3.8672,-3.873,-3.9121,-3.9805,-4.0059,-4.0312,-4.0976,-4.1172,-4.1133,-4.1152,-4.108,-4.095,-4.0809,-4.0731,-4.063,-4.053,-4.0496,-4.0496,-4.0496,-4.0496,-4.0496,-4.0496,-4.0496,-4.0496,-4.0496,-4.0496,-4.0496,-4.0496,-4.0496,-4.0496,-4.0473,-4.023,-3.9963,-3.9615,-3.9201,-3.8827,-3.8501,-3.8021,-3.7386,-3.6817,-3.6068,-3.5353,-3.4876,-3.4491,-3.4119,-3.3793,-3.3564,-3.335,-3.2965,-3.2533,-3.2021,-3.1543,-3.1291,-3.119,-5.1387,-5.1387,-5.1387,-5.1387,-5.1387,-5.1387,-5.1387,-5.1387,-5.1387,-5.0469,-4.918,-4.8887,-4.791,-4.6308,-4.6289,-4.6289,-4.6289,-4.6289,-4.6289,-4.6172,-4.541,-4.4473,-4.3379,-4.2519,-4.1816,-4.1387,-4.1191,-4.1191,-4.1191,-4.1191,-4.1191,-4.1191,-4.1191,-4.1191,-4.1191,-4.1191,-4.1191,-4.1152,-4.0957,-4.0859,-4.084,-4.0625,-4.0195,-3.9668,-3.9043,-3.8672,-3.8613,-3.8613,-3.8398,-3.8125,-3.8027,-3.8027,-3.7891,-3.7891,-3.7871,-3.791,-3.8105,-3.832,-3.8379,-3.8594,-3.8926,-3.9551,-3.9668,-4.0,-4.0801,-4.0879,-4.0957,-4.1191,-4.1191,-4.1191,-4.1191,-4.108,-4.0955,-4.0832,-4.0738,-4.0649,-4.0549,-4.0496,-4.0496,-4.0496,-4.0496,-4.0496,-4.0496,-4.0496,-4.0496,-4.0496,-4.0496,-4.0496,-4.0496,-4.0496,-4.0496,-4.0496,-4.0356,-4.0072,-3.9622,-3.9282,-3.8966,-3.8777,-3.8441,-3.8175,-3.7624,-3.7092,-3.6325,-3.5591,-3.4912,-3.4564,-3.4394,-3.3908,-3.3751,-3.3241,-3.2784,-3.2371,-3.1976,-3.1604,-3.1495,-5.1387,-5.1387,-5.1387,-5.1387,-5.1387,-5.1387,-5.1387,-5.1387,-5.1387,-5.0469,-4.916,-4.8887,-4.791,-4.6348,-4.6289,-4.6289,-4.6289,-4.6289,-4.6289,-4.6211,-4.5762,-4.4922,-4.3828,-4.3164,-4.2441,-4.1406,-4.1191,-4.1191,-4.1191,-4.1191,-4.1191,-4.1191,-4.1191,-4.1191,-4.1191,-4.1191,-4.1191,-4.1191,-4.1191,-4.1191,-4.1191,-4.1191,-4.1074,-4.0586,-4.0059,-3.9805,-3.9863,-3.9844,-3.9844,-3.9805,-3.9785,-3.9375,-3.873,-3.8613,-3.8613,-3.8633,-3.9043,-3.918,-3.9219,-3.9609,-4.0059,-4.043,-4.0488,-4.0723,-4.1074,-4.1191,-4.1191,-4.1191,-4.1191,-4.1191,-4.1191,-4.115,-4.1021,-4.0847,-4.0785,-4.0676,-4.0533,-4.0496,-4.0496,-4.0496,-4.0496,-4.0496,-4.0496,-4.0496,-4.0496,-4.0496,-4.0496,-4.0496,-4.0496,-4.0496,-4.0496,-4.0473,-4.0389,-4.0139,-3.9656,-3.9249,-3.8884,-3.8747,-3.8631,-3.8524,-3.8303,-3.779,-3.7257,-3.6509,-3.5793,-3.5555,-3.5312,-3.477,-3.4233,-3.3876,-3.3471,-3.2948,-3.261,-3.2464,-3.2459,-5.1387,-5.1387,-5.1387,-5.1387,-5.1387,-5.1387,-5.1387,-5.1387,-5.1387,-5.0469,-4.9121,-4.8887,-4.793,-4.6582,-4.6289,-4.6289,-4.6289,-4.6289,-4.6289,-4.625,-4.623,-4.5156,-4.4023,-4.3476,-4.2734,-4.1348,-4.1191,-4.1191,-4.1191,-4.1191,-4.1191,-4.1191,-4.1191,-4.1191,-4.1191,-4.1191,-4.1191,-4.1191,-4.1191,-4.1191,-4.1191,-4.1191,-4.1152,-4.1074,-4.0996,-4.0937,-4.0918,-4.0957,-4.1074,-4.1191,-4.1191,-4.041,-3.9473,-3.8984,-3.8984,-3.9082,-3.9785,-4.0059,-4.0176,-4.0644,-4.1055,-4.1191,-4.1172,-4.1152,-4.1191,-4.1191,-4.1191,-4.1191,-4.1191,-4.1191,-4.1191,-4.1191,-4.1055,-4.0886,-4.0816,-4.0713,-4.0584,-4.0519,-4.0496,-4.0496,-4.0496,-4.0496,-4.0496,-4.0496,-4.0496,-4.0496,-4.0496,-4.0496,-4.0496,-4.0496,-4.0496,-4.0496,-4.0441,-4.0157,-3.9679,-3.9282,-3.8909,-3.8716,-3.8707,-3.8707,-3.8707,-3.8358,-3.7826,-3.7382,-3.685,-3.6523,-3.6101,-3.5555,-3.5071,-3.4669,-3.4215,-3.3741,-3.3517,-3.3394,-3.3342,-5.1387,-5.1387,-5.1387,-5.1387,-5.1387,-5.1387,-5.1387,-5.1387,-5.1367,-5.0449,-4.9023,-4.8848,-4.7871,-4.666,-4.6289,-4.6289,-4.6289,-4.6289,-4.6289,-4.6289,-4.623,-4.5351,-4.3984,-4.3672,-4.2773,-4.1601,-4.1191,-4.1191,-4.1191,-4.1191,-4.1191,-4.1191,-4.1191,-4.1191,-4.1191,-4.1191,-4.1191,-4.1191,-4.1191,-4.1191,-4.1191,-4.1191,-4.1191,-4.1191,-4.1191,-4.1191,-4.1191,-4.1191,-4.1191,-4.1191,-4.1191,-4.1016,-4.0664,-4.0566,-4.0566,-4.0586,-4.0703,-4.082,-4.0898,-4.1055,-4.1191,-4.1191,-4.1191,-4.1191,-4.1191,-4.1191,-4.1191,-4.123,-4.123,-4.123,-4.1211,-4.1406,-4.1211,-4.1048,-4.0954,-4.0824,-4.0686,-4.0574,-4.0496,-4.0496,-4.0496,-4.0496,-4.0496,-4.0496,-4.0496,-4.0496,-4.0496,-4.0496,-4.0496,-4.0496,-4.0496,-4.0496,-4.0489,-4.0129,-3.9701,-3.9346,-3.8985,-3.8777,-3.8707,-3.8707,-3.8707,-3.8707,-3.8377,-3.7878,-3.7511,-3.7162,-3.6725,-3.634,-3.608,-3.5778,-3.5218,-3.4624,-3.4529,-3.4434,-3.3902,-5.1387,-5.1387,-5.1387,-5.1387,-5.1387,-5.1387,-5.1387,-5.1328,-5.0937,-5.0078,-4.9062,-4.8398,-4.7539,-4.6562,-4.6289,-4.6289,-4.6289,-4.6289,-4.6289,-4.6289,-4.6211,-4.5371,-4.3887,-4.373,-4.2676,-4.1621,-4.1191,-4.1191,-4.1191,-4.1191,-4.1191,-4.1191,-4.1191,-4.1191,-4.1191,-4.1191,-4.1191,-4.1191,-4.1191,-4.1191,-4.1191,-4.1191,-4.1191,-4.1191,-4.1191,-4.1191,-4.1191,-4.1191,-4.1191,-4.1191,-4.1191,-4.1191,-4.1191,-4.1191,-4.1191,-4.1191,-4.1191,-4.1191,-4.1191,-4.1191,-4.1191,-4.1191,-4.1191,-4.1191,-4.1191,-4.1191,-4.1191,-4.1289,-4.1719,-4.1816,-4.1875,-4.2148,-4.2207,-4.1782,-4.1503,-4.1172,-4.0837,-4.0614,-4.0534,-4.0504,-4.0496,-4.0496,-4.0496,-4.0496,-4.0496,-4.0496,-4.0496,-4.0496,-4.0496,-4.0496,-4.0496,-4.0473,-4.0457,-4.0157,-3.9775,-3.9414,-3.9072,-3.8855,-3.8707,-3.8707,-3.8707,-3.8707,-3.8615,-3.8322,-3.7991,-3.7734,-3.7661,-3.7386,-3.7147,-3.6861,-3.6293,-3.5808,-3.567,-3.5393,-3.4915,-5.1387,-5.1387,-5.1387,-5.1387,-5.1387,-5.1387,-5.1387,-5.123,-5.0547,-4.9746,-4.8828,-4.8008,-4.7148,-4.6484,-4.6289,-4.6289,-4.6289,-4.6289,-4.6289,-4.6289,-4.6269,-4.541,-4.4355,-4.3594,-4.293,-4.1797,-4.123,-4.1211,-4.1191,-4.1191,-4.1191,-4.1191,-4.1191,-4.1191,-4.1191,-4.1191,-4.1191,-4.1191,-4.1191,-4.1191,-4.1191,-4.1191,-4.1191,-4.1191,-4.1191,-4.1191,-4.1191,-4.1191,-4.1191,-4.1191,-4.1191,-4.1191,-4.1191,-4.1191,-4.1191,-4.1191,-4.1191,-4.1191,-4.1191,-4.1191,-4.1191,-4.1191,-4.1191,-4.1191,-4.1191,-4.1191,-4.1211,-4.1328,-4.1875,-4.2324,-4.2344,-4.293,-4.291,-4.2442,-4.1941,-4.1614,-4.0974,-4.0623,-4.0571,-4.0534,-4.0504,-4.0496,-4.0496,-4.0496,-4.0496,-4.0496,-4.0496,-4.0496,-4.0496,-4.0496,-4.0489,-4.0457,-4.0364,-4.0139,-3.9829,-3.9522,-3.9205,-3.8933,-3.8773,-3.8707,-3.8707,-3.8707,-3.8597,-3.8524,-3.8542,-3.8322,-3.8358,-3.8303,-3.7973,-3.761,-3.7223,-3.6941,-3.6736,-3.6448,-3.605,-5.1387,-5.1387,-5.1387,-5.1387,-5.1367,-5.1348,-5.1367,-5.1191,-5.041,-4.9726,-4.873,-4.7949,-4.7051,-4.6465,-4.6289,-4.6289,-4.6289,-4.6289,-4.6289,-4.6289,-4.6269,-4.5762,-4.4785,-4.4004,-4.3183,-4.2109,-4.1465,-4.123,-4.1191,-4.1191,-4.1191,-4.1191,-4.1191,-4.1191,-4.1191,-4.1191,-4.1191,-4.1191,-4.1191,-4.1191,-4.1191,-4.1191,-4.1191,-4.1191,-4.1191,-4.1191,-4.1191,-4.1191,-4.1191,-4.1191,-4.1191,-4.1191,-4.1191,-4.1191,-4.1191,-4.1191,-4.1191,-4.1191,-4.1191,-4.1191,-4.1191,-4.1191,-4.1191,-4.1191,-4.1191,-4.1191,-4.1211,-4.123,-4.1933,-4.2344,-4.2402,-4.2558,-4.25,-4.2241,-4.1846,-4.1356,-4.0816,-4.0684,-4.0603,-4.0534,-4.0496,-4.0496,-4.0496,-4.0496,-4.0496,-4.0496,-4.0496,-4.0496,-4.0496,-4.0496,-4.0496,-4.0473,-4.0433,-4.0232,-4.0012,-3.969,-3.9352,-3.9049,-3.8894,-3.8732,-3.8707,-3.8707,-3.8707,-3.867,-3.8707,-3.8707,-3.8597,-3.8524,-3.8524,-3.8306,-3.7879,-3.7772,-3.775,-3.7433,-3.6962,-5.1387,-5.1387,-5.1387,-5.1133,-5.0742,-5.0723,-5.043,-4.9883,-4.9101,-4.8516,-4.8027,-4.7246,-4.6621,-4.6328,-4.6289,-4.6289,-4.6289,-4.6289,-4.6289,-4.6289,-4.623,-4.5859,-4.4961,-4.4101,-4.3242,-4.2461,-4.168,-4.123,-4.1191,-4.1191,-4.1191,-4.1191,-4.1191,-4.1191,-4.1191,-4.1191,-4.1191,-4.1191,-4.1191,-4.1191,-4.1191,-4.1191,-4.1191,-4.1191,-4.1191,-4.1191,-4.1191,-4.1191,-4.1191,-4.1191,-4.1191,-4.1191,-4.1191,-4.1191,-4.1191,-4.1191,-4.1191,-4.1191,-4.1191,-4.1191,-4.1191,-4.1191,-4.1191,-4.1191,-4.1191,-4.1191,-4.1191,-4.1211,-4.1933,-4.2344,-4.2519,-4.2851,-4.2734,-4.2422,-4.1855,-4.1332,-4.0937,-4.0771,-4.0642,-4.0574,-4.0496,-4.0496,-4.0496,-4.0496,-4.0496,-4.0496,-4.0496,-4.0496,-4.0496,-4.0496,-4.0496,-4.0489,-4.0457,-4.0372,-4.0177,-3.9912,-3.9552,-3.9257,-3.9044,-3.8894,-3.875,-3.8707,-3.8707,-3.8707,-3.8707,-3.8707,-3.8707,-3.867,-3.8615,-3.8572,-3.8512,-3.8366,-3.82,-3.7859,-3.736,-5.1094,-5.1133,-5.1328,-5.0937,-5.0234,-5.0195,-4.9726,-4.8848,-4.8047,-4.7637,-4.7363,-4.6738,-4.6328,-4.6289,-4.6289,-4.6289,-4.6289,-4.6289,-4.6289,-4.6289,-4.623,-4.5957,-4.5332,-4.4492,-4.3613,-4.2695,-4.2012,-4.1484,-4.123,-4.1191,-4.1191,-4.1191,-4.1191,-4.1191,-4.1191,-4.1191,-4.1191,-4.1191,-4.1191,-4.1191,-4.1191,-4.1191,-4.1191,-4.1191,-4.1191,-4.1191,-4.1191,-4.1191,-4.1191,-4.1191,-4.1191,-4.1191,-4.1191,-4.1191,-4.1191,-4.1191,-4.1191,-4.1191,-4.1191,-4.1191,-4.1191,-4.1191,-4.1191,-4.1191,-4.1191,-4.1191,-4.1191,-4.1211,-4.1953,-4.2305,-4.2519,-4.2969,-4.2812,-4.2461,-4.2064,-4.1538,-4.1059,-4.0844,-4.0701,-4.063,-4.0559,-4.0496,-4.0496,-4.0496,-4.0496,-4.0496,-4.0496,-4.0496,-4.0496,-4.0496,-4.0496,-4.0496,-4.0481,-4.0449,-4.033,-4.0091,-3.9735,-3.9445,-3.9225,-3.8985,-3.8773,-3.8689,-3.8707,-3.8707,-3.8707,-3.8707,-3.8707,-3.8707,-3.8707,-3.8643,-3.8611,-3.8643,-3.8496,-3.8181,-3.7825,-5.0293,-5.0351,-5.1055,-5.084,-5.0098,-5.0195,-4.9648,-4.8613,-4.7891,-4.7539,-4.7363,-4.6719,-4.6289,-4.6289,-4.6289,-4.6289,-4.6289,-4.6289,-4.6289,-4.6289,-4.6269,-4.6211,-4.5762,-4.5137,-4.4375,-4.3574,-4.2617,-4.1816,-4.1387,-4.123,-4.1211,-4.1191,-4.1191,-4.1191,-4.1191,-4.1191,-4.1191,-4.1191,-4.1191,-4.1191,-4.1191,-4.1191,-4.1191,-4.1191,-4.1191,-4.1191,-4.1191,-4.1191,-4.1191,-4.1191,-4.1191,-4.1191,-4.1191,-4.1191,-4.1191,-4.1191,-4.1191,-4.1191,-4.1191,-4.1191,-4.1191,-4.1191,-4.1191,-4.1191,-4.1191,-4.1191,-4.1191,-4.125,-4.1836,-4.2187,-4.2305,-4.2422,-4.2363,-4.2168,-4.1797,-4.143,-4.1033,-4.0878,-4.0738,-4.0678,-4.0603,-4.0534,-4.0496,-4.0496,-4.0496,-4.0496,-4.0496,-4.0496,-4.0496,-4.0496,-4.0496,-4.0496,-4.0496,-4.0481,-4.0465,-4.0221,-3.9944,-3.9634,-3.9352,-3.904,-3.8762,-3.8719,-3.8707,-3.8707,-3.8707,-3.8707,-3.8707,-3.8707,-3.8707,-3.8707,-3.8707,-3.8707,-3.8627,-3.8348,-3.8099,-4.9394,-4.9433,-4.9726,-4.9375,-4.8613,-4.8613,-4.8105,-4.7363,-4.6953,-4.6797,-4.6797,-4.6445,-4.6289,-4.6289,-4.6289,-4.6289,-4.6289,-4.6289,-4.6289,-4.6289,-4.6289,-4.6289,-4.5996,-4.5527,-4.4785,-4.4219,-4.3164,-4.2324,-4.1973,-4.1543,-4.125,-4.1191,-4.123,-4.1191,-4.1191,-4.1191,-4.1191,-4.1191,-4.1191,-4.1191,-4.1191,-4.1191,-4.1191,-4.1191,-4.1191,-4.1191,-4.1191,-4.1191,-4.1191,-4.1191,-4.1191,-4.1191,-4.1191,-4.1191,-4.1191,-4.1191,-4.1191,-4.1191,-4.1191,-4.1191,-4.1191,-4.1191,-4.1191,-4.1191,-4.1191,-4.1191,-4.1191,-4.1328,-4.1484,-4.1758,-4.168,-4.166,-4.1621,-4.1562,-4.1426,-4.1172,-4.1028,-4.0892,-4.0777,-4.0721,-4.0604,-4.0504,-4.0496,-4.0496,-4.0496,-4.0496,-4.0496,-4.0496,-4.0496,-4.0496,-4.0496,-4.0496,-4.0496,-4.0496,-4.0481,-4.0319,-4.0157,-3.9821,-3.9505,-3.9157,-3.8859,-3.8704,-3.8707,-3.8707,-3.8707,-3.8707,-3.8707,-3.8707,-3.8707,-3.8707,-3.8707,-3.8707,-3.8593,-3.8481,-3.83,-4.8516,-4.8476,-4.8223,-4.7949,-4.7617,-4.7617,-4.7109,-4.6387,-4.6328,-4.6289,-4.6289,-4.6289,-4.6289,-4.6289,-4.6289,-4.6289,-4.6289,-4.6289,-4.6289,-4.6289,-4.6289,-4.6289,-4.6074,-4.5742,-4.5293,-4.4785,-4.4004,-4.3183,-4.2754,-4.1953,-4.1719,-4.1582,-4.1308,-4.123,-4.1191,-4.1191,-4.1191,-4.1191,-4.1191,-4.1191,-4.1191,-4.1191,-4.1191,-4.1191,-4.1191,-4.1191,-4.1191,-4.1191,-4.1191,-4.1191,-4.1191,-4.1191,-4.1191,-4.1191,-4.1191,-4.1191,-4.1191,-4.1191,-4.1191,-4.1191,-4.1191,-4.1191,-4.1191,-4.1191,-4.1191,-4.1191,-4.1191,-4.1211,-4.123,-4.1191,-4.1191,-4.1289,-4.1328,-4.1348,-4.1348,-4.115,-4.1081,-4.0966,-4.0866,-4.0752,-4.0654,-4.0559,-4.0496,-4.0496,-4.0496,-4.0496,-4.0496,-4.0496,-4.0496,-4.0496,-4.0496,-4.0496,-4.0496,-4.0496,-4.0489,-4.0389,-4.0276,-3.9983,-3.9645,-3.932,-3.9045,-3.8844,-3.8689,-3.8707,-3.8707,-3.8707,-3.8707,-3.8707,-3.8707,-3.8707,-3.8707,-3.8707,-3.8673,-3.8578,-3.8496,-4.7617,-4.7519,-4.6777,-4.6894,-4.748,-4.7578,-4.707,-4.6348,-4.6289,-4.6289,-4.6289,-4.6289,-4.6289,-4.6289,-4.6289,-4.6289,-4.6289,-4.6289,-4.6289,-4.6289,-4.6289,-4.6289,-4.6269,-4.6074,-4.5742,-4.5176,-4.4609,-4.4121,-4.3652,-4.2812,-4.2461,-4.2168,-4.1797,-4.1308,-4.123,-4.1191,-4.1191,-4.1191,-4.1191,-4.1191,-4.1191,-4.1191,-4.1191,-4.1191,-4.1191,-4.1191,-4.1191,-4.1191,-4.1191,-4.1191,-4.1191,-4.1191,-4.1191,-4.1191,-4.1191,-4.1191,-4.1191,-4.1191,-4.1191,-4.1191,-4.1191,-4.1191,-4.1191,-4.1191,-4.1191,-4.1191,-4.1191,-4.1191,-4.1191,-4.1191,-4.1191,-4.1191,-4.1191,-4.1191,-4.1191,-4.1191,-4.1113,-4.1026,-4.0899,-4.0794,-4.0735,-4.0662,-4.0559,-4.0496,-4.0496,-4.0496,-4.0496,-4.0496,-4.0496,-4.0496,-4.0496,-4.0496,-4.0496,-4.0496,-4.0496,-4.0496,-4.0372,-4.011,-3.9786,-3.942,-3.9122,-3.8873,-3.8762,-3.8704,-3.8707,-3.8707,-3.8707,-3.8707,-3.8707,-3.8707,-3.8707,-3.8707,-3.8707,-3.8673,-3.8593,-4.6738,-4.6699,-4.6426,-4.6465,-4.6719,-4.6738,-4.6562,-4.6348,-4.6289,-4.6289,-4.6289,-4.6289,-4.6289,-4.6289,-4.6289,-4.6289,-4.6289,-4.6289,-4.6289,-4.6289,-4.6289,-4.6289,-4.6289,-4.6269,-4.6133,-4.5781,-4.5391,-4.498,-4.4551,-4.3691,-4.334,-4.3066,-4.2383,-4.1719,-4.1348,-4.1191,-4.1191,-4.1191,-4.1191,-4.1191,-4.1191,-4.1191,-4.1191,-4.1191,-4.1191,-4.1191,-4.1191,-4.1191,-4.1191,-4.1191,-4.1191,-4.1191,-4.1191,-4.1191,-4.1191,-4.1191,-4.1191,-4.1191,-4.1191,-4.1191,-4.1191,-4.1191,-4.1191,-4.1191,-4.1191,-4.1191,-4.1191,-4.1191,-4.1191,-4.1191,-4.1191,-4.1191,-4.1191,-4.1191,-4.1191,-4.1191,-4.1152,-4.1055,-4.0944,-4.0836,-4.0752,-4.0642,-4.0545,-4.0504,-4.0496,-4.0496,-4.0496,-4.0496,-4.0496,-4.0496,-4.0496,-4.0496,-4.0496,-4.0496,-4.0496,-4.0496,-4.0433,-4.0204,-3.9851,-3.9481,-3.9171,-3.8937,-3.8758,-3.8719,-3.8707,-3.8707,-3.8707,-3.8707,-3.8707,-3.8707,-3.8707,-3.8707,-3.8707,-3.8707,-3.8673,-4.6289,-4.6289,-4.6289,-4.6289,-4.6289,-4.6289,-4.6289,-4.6289,-4.6289,-4.6289,-4.6289,-4.6289,-4.6289,-4.6289,-4.6289,-4.6289,-4.6289,-4.6289,-4.6289,-4.6289,-4.6289,-4.6289,-4.6289,-4.6289,-4.625,-4.6113,-4.584,-4.5449,-4.541,-4.457,-4.4004,-4.3555,-4.3144,-4.2695,-4.2148,-4.1758,-4.1191,-4.1191,-4.1191,-4.1191,-4.1191,-4.1191,-4.1191,-4.1191,-4.1191,-4.1191,-4.1191,-4.1191,-4.1191,-4.1191,-4.1191,-4.1191,-4.1191,-4.1191,-4.1191,-4.1191,-4.1191,-4.1191,-4.1191,-4.1191,-4.1191,-4.1191,-4.1191,-4.1191,-4.1191,-4.1191,-4.1191,-4.1191,-4.1191,-4.1191,-4.1191,-4.1191,-4.1191,-4.1191,-4.1191,-4.1191,-4.1172,-4.1074,-4.1021,-4.0912,-4.0776,-4.0666,-4.0549,-4.0527,-4.0496,-4.0496,-4.0496,-4.0496,-4.0496,-4.0496,-4.0496,-4.0496,-4.0496,-4.0496,-4.0496,-4.0496,-4.0417,-4.0278,-3.9963,-3.9611,-3.9339,-3.9117,-3.8927,-3.8719,-3.8704,-3.8707,-3.8707,-3.8707,-3.8707,-3.8707,-3.8707,-3.8707,-3.8707,-3.8707,-3.8707,-4.6289,-4.6289,-4.6289,-4.6269,-4.6289,-4.6289,-4.6289,-4.6289,-4.6289,-4.6289,-4.6289,-4.6289,-4.6289,-4.6289,-4.6289,-4.6289,-4.6289,-4.6289,-4.6289,-4.6289,-4.6289,-4.6289,-4.6289,-4.6289,-4.6289,-4.6289,-4.6172,-4.5996,-4.6133,-4.5449,-4.4648,-4.4023,-4.3828,-4.3516,-4.3008,-4.2363,-4.166,-4.1562,-4.1465,-4.1387,-4.1269,-4.1191,-4.1191,-4.1191,-4.1191,-4.1191,-4.1191,-4.1191,-4.1191,-4.1191,-4.1191,-4.1191,-4.1191,-4.1191,-4.1191,-4.1191,-4.1191,-4.1191,-4.1191,-4.1191,-4.1191,-4.1191,-4.1191,-4.1191,-4.1191,-4.1191,-4.1191,-4.1191,-4.1191,-4.1191,-4.1191,-4.1191,-4.1191,-4.1191,-4.1191,-4.1191,-4.1191,-4.1152,-4.1113,-4.1007,-4.0855,-4.0707,-4.0547,-4.0496,-4.0496,-4.0496,-4.0496,-4.0496,-4.0496,-4.0496,-4.0496,-4.0496,-4.0496,-4.0496,-4.0496,-4.0496,-4.0473,-4.0364,-4.0177,-3.9861,-3.9599,-3.9289,-3.904,-3.884,-3.8732,-3.8689,-3.8707,-3.8707,-3.8707,-3.8707,-3.8707,-3.8707,-3.8707,-3.8707,-3.8658,-4.617,-4.6147,-4.6067,-4.6055,-4.6171,-4.6248,-4.6289,-4.6289,-4.6289,-4.6289,-4.6289,-4.6289,-4.6289,-4.6289,-4.6289,-4.6289,-4.6289,-4.6289,-4.6289,-4.6289,-4.6289,-4.6289,-4.6289,-4.6289,-4.6289,-4.6289,-4.6289,-4.6289,-4.625,-4.5879,-4.543,-4.4785,-4.4648,-4.4336,-4.3848,-4.3223,-4.2715,-4.2266,-4.2129,-4.1758,-4.1426,-4.1308,-4.1269,-4.123,-4.1191,-4.1191,-4.1191,-4.1191,-4.1191,-4.1191,-4.1191,-4.1191,-4.1191,-4.1191,-4.1191,-4.1191,-4.1191,-4.1191,-4.1191,-4.1191,-4.1191,-4.1191,-4.1191,-4.1191,-4.1191,-4.123,-4.123,-4.1191,-4.1328,-4.1406,-4.1426,-4.1406,-4.1406,-4.1406,-4.1348,-4.1191,-4.1191,-4.1191,-4.1133,-4.0983,-4.0832,-4.0701,-4.0547,-4.0496,-4.0496,-4.0496,-4.0496,-4.0496,-4.0496,-4.0496,-4.0496,-4.0496,-4.0496,-4.0496,-4.0496,-4.0496,-4.0496,-4.0457,-4.0267,-4.0072,-3.9808,-3.9505,-3.9178,-3.8947,-3.8788,-3.8719,-3.8707,-3.8707,-3.8707,-3.8707,-3.8707,-3.8707,-3.8707,-3.8707,-3.8673,-4.6055,-4.6005,-4.5948,-4.5981,-4.6108,-4.6177,-4.6223,-4.6225,-4.6288,-4.6289,-4.6289,-4.6289,-4.6289,-4.6289,-4.6289,-4.6289,-4.6289,-4.6289,-4.6289,-4.6289,-4.6289,-4.6289,-4.6289,-4.6289,-4.6289,-4.6289,-4.6289,-4.6289,-4.6289,-4.6269,-4.5898,-4.5586,-4.5527,-4.5215,-4.4902,-4.4726,-4.4277,-4.3652,-4.3066,-4.2461,-4.1992,-4.166,-4.1523,-4.1328,-4.1269,-4.1269,-4.123,-4.123,-4.1211,-4.1211,-4.1191,-4.1191,-4.1191,-4.1191,-4.1191,-4.1191,-4.1191,-4.1191,-4.1191,-4.1191,-4.1191,-4.1211,-4.125,-4.1426,-4.1445,-4.1465,-4.1328,-4.123,-4.1504,-4.1699,-4.1699,-4.168,-4.1699,-4.1699,-4.1465,-4.1211,-4.1191,-4.1191,-4.1094,-4.0937,-4.0816,-4.0682,-4.0577,-4.0537,-4.0496,-4.0496,-4.0496,-4.0496,-4.0496,-4.0496,-4.0496,-4.0496,-4.0496,-4.0496,-4.0496,-4.0496,-4.0496,-4.0489,-4.0414,-4.0212,-3.9983,-3.9652,-3.9269,-3.9004,-3.8807,-3.875,-3.8707,-3.8707,-3.8707,-3.8707,-3.8707,-3.8707,-3.8707,-3.8707,-3.8673,-4.6011,-4.5885,-4.5905,-4.5952,-4.6069,-4.6077,-4.6082,-4.6089,-4.62,-4.6269,-4.6269,-4.6289,-4.6289,-4.6289,-4.6289,-4.6289,-4.6289,-4.6289,-4.6289,-4.6289,-4.6289,-4.6289,-4.6289,-4.6289,-4.6289,-4.6289,-4.6289,-4.6289,-4.6289,-4.6269,-4.6269,-4.6289,-4.6211,-4.5976,-4.5879,-4.5879,-4.5449,-4.4922,-4.4277,-4.3652,-4.2793,-4.2402,-4.2187,-4.166,-4.1543,-4.1504,-4.1387,-4.1308,-4.1269,-4.123,-4.1191,-4.1191,-4.1191,-4.1191,-4.1191,-4.1191,-4.1191,-4.1191,-4.1191,-4.1191,-4.1328,-4.1328,-4.1328,-4.1836,-4.207,-4.1836,-4.1641,-4.1973,-4.2344,-4.25,-4.2519,-4.2519,-4.2519,-4.2461,-4.2305,-4.1933,-4.1641,-4.1465,-4.1113,-4.0983,-4.0893,-4.0738,-4.0617,-4.0561,-4.0557,-4.0527,-4.0496,-4.0496,-4.0496,-4.0496,-4.0496,-4.0496,-4.0496,-4.0496,-4.0496,-4.0496,-4.0496,-4.0481,-4.0446,-4.0285,-3.9983,-3.9675,-3.9333,-3.9036,-3.875,-3.8719,-3.8707,-3.8707,-3.8707,-3.8707,-3.8707,-3.8707,-3.8707,-3.8707,-3.8692,-4.5856,-4.584,-4.584,-4.5844,-4.5869,-4.5923,-4.594,-4.594,-4.5981,-4.605,-4.6147,-4.625,-4.6289,-4.6269,-4.6269,-4.6289,-4.6289,-4.6289,-4.6289,-4.6289,-4.6289,-4.6289,-4.6289,-4.6289,-4.6289,-4.6289,-4.6289,-4.6289,-4.6289,-4.6289,-4.6289,-4.6289,-4.6289,-4.6289,-4.6289,-4.6289,-4.6094,-4.5781,-4.5527,-4.4687,-4.3691,-4.3437,-4.3223,-4.3047,-4.2988,-4.2558,-4.2363,-4.2109,-4.1719,-4.1367,-4.123,-4.1191,-4.1191,-4.123,-4.123,-4.1211,-4.1348,-4.1445,-4.1465,-4.1543,-4.1699,-4.1992,-4.2226,-4.2676,-4.2793,-4.2383,-4.2402,-4.2871,-4.3203,-4.3301,-4.3379,-4.3379,-4.3379,-4.3281,-4.3105,-4.2617,-4.2129,-4.166,-4.1211,-4.1028,-4.0937,-4.0824,-4.0682,-4.0623,-4.0602,-4.0552,-4.0519,-4.0496,-4.0496,-4.0496,-4.0496,-4.0496,-4.0496,-4.0496,-4.0496,-4.0496,-4.0496,-4.0496,-4.0481,-4.0267,-3.9983,-3.9576,-3.9178,-3.8927,-3.8707,-3.8707,-3.8707,-3.8707,-3.8707,-3.8707,-3.8707,-3.8707,-3.8707,-3.8707,-3.8707,-4.5756,-4.5723,-4.5715,-4.5747,-4.579,-4.5861,-4.5855,-4.5866,-4.5876,-4.5923,-4.5971,-4.6067,-4.6138,-4.6145,-4.6175,-4.6221,-4.6224,-4.6269,-4.6289,-4.6289,-4.6269,-4.6289,-4.6289,-4.6289,-4.6289,-4.6289,-4.6289,-4.6289,-4.6289,-4.6289,-4.6289,-4.6289,-4.6289,-4.6289,-4.6289,-4.6289,-4.6289,-4.6269,-4.6289,-4.5664,-4.4626,-4.4473,-4.4023,-4.3926,-4.3613,-4.3359,-4.3242,-4.2969,-4.2734,-4.2441,-4.2422,-4.2051,-4.209,-4.2226,-4.2109,-4.2031,-4.209,-4.2305,-4.2246,-4.2266,-4.2422,-4.2793,-4.2969,-4.3379,-4.4062,-4.3711,-4.3359,-4.3789,-4.4121,-4.4258,-4.4277,-4.4277,-4.4277,-4.4238,-4.3672,-4.3066,-4.2558,-4.207,-4.1523,-4.1003,-4.093,-4.0873,-4.0752,-4.0667,-4.063,-4.0542,-4.0496,-4.0496,-4.0496,-4.0496,-4.0496,-4.0496,-4.0496,-4.0496,-4.0496,-4.0496,-4.0496,-4.0496,-4.0496,-4.0203,-3.9893,-3.9426,-3.9036,-3.8859,-3.8735,-3.8707,-3.8707,-3.8707,-3.8707,-3.8707,-3.8707,-3.8707,-3.8707,-3.8707,-3.8707,-4.5688,-4.5603,-4.5594,-4.5665,-4.5768,-4.5769,-4.5769,-4.579,-4.5853,-4.5836,-4.579,-4.5845,-4.5877,-4.5952,-4.6001,-4.6045,-4.6106,-4.6126,-4.6191,-4.6211,-4.6211,-4.6172,-4.6191,-4.625,-4.6269,-4.6289,-4.6289,-4.6289,-4.6289,-4.6289,-4.6289,-4.6289,-4.6289,-4.6289,-4.6289,-4.6289,-4.6289,-4.6289,-4.6269,-4.623,-4.5831,-4.5488,-4.4844,-4.4316,-4.4003,-4.3964,-4.3906,-4.3848,-4.3867,-4.3594,-4.3398,-4.3066,-4.291,-4.3027,-4.2949,-4.2851,-4.3027,-4.3301,-4.3437,-4.3379,-4.3594,-4.3808,-4.3848,-4.4199,-4.4883,-4.4941,-4.459,-4.4648,-4.498,-4.5117,-4.5137,-4.5137,-4.5137,-4.5019,-4.4316,-4.3711,-4.3203,-4.2656,-4.2012,-4.1367,-4.1172,-4.1113,-4.0846,-4.0779,-4.0642,-4.0559,-4.0496,-4.0496,-4.0496,-4.0496,-4.0496,-4.0496,-4.0496,-4.0496,-4.0496,-4.0496,-4.0496,-4.0496,-4.0465,-4.0138,-3.98,-3.9401,-3.909,-3.8884,-3.8773,-3.8735,-3.8707,-3.8707,-3.8707,-3.8707,-3.8707,-3.8707,-3.8707,-3.8707,-3.8707,-4.5637,-4.5594,-4.5594,-4.5601,-4.5643,-4.5643,-4.5635,-4.5643,-4.5645,-4.5629,-4.5657,-4.5661,-4.575,-4.5899,-4.5916,-4.5952,-4.5959,-4.5995,-4.5985,-4.5976,-4.6033,-4.5998,-4.603,-4.6115,-4.6219,-4.625,-4.6269,-4.6289,-4.6289,-4.6289,-4.6289,-4.6289,-4.6289,-4.6289,-4.6289,-4.6289,-4.6289,-4.6289,-4.6269,-4.6225,-4.6119,-4.5902,-4.5884,-4.5673,-4.5656,-4.5264,-4.4941,-4.4766,-4.4316,-4.3926,-4.3808,-4.3711,-4.3691,-4.3769,-4.373,-4.3691,-4.3867,-4.4004,-4.4121,-4.4121,-4.4297,-4.4726,-4.4805,-4.5058,-4.5566,-4.5859,-4.5664,-4.5664,-4.5879,-4.5879,-4.5879,-4.5879,-4.5879,-4.5664,-4.5176,-4.4785,-4.4336,-4.3711,-4.3047,-4.2461,-4.2012,-4.1601,-4.1011,-4.0869,-4.0693,-4.0591,-4.0512,-4.0504,-4.0496,-4.0496,-4.0496,-4.0496,-4.0496,-4.0496,-4.0496,-4.0496,-4.0496,-4.0496,-4.0457,-4.0241,-3.9913,-3.9438,-3.9144,-3.8975,-3.8815,-3.8732,-3.8719,-3.8707,-3.8707,-3.8707,-3.8707,-3.8707,-3.8707,-3.8707,-3.8707]},{"header":{"parameterUnit":"m.s-1","parameterCategory":1,"la1":31.0,"la2":29.5877,"lo1":-88.7671,"lo2":-86.6584,"dy":0.0162,"dx":0.0185,"nx":115,"ny":88,"refTime":"2026-04-26T12:00:00:Z","depth":0,"parameterNumber":3,"parameterNumberName":"V-component_of_WINDS"},"data":[0.0,0.0,0.0,0.0,0.0,0.0,0.0,0.0,0.0,0.0,0.0,0.0,0.0,0.0,0.0,0.0,0.0,0.0,0.0,0.0,0.0,0.0,0.0,0.0,0.0,0.0,0.0,0.0,0.0,0.0,0.0,0.0,0.0,0.0,0.0,0.0,0.0,0.0,0.0,0.0,0.0,0.0,0.0,0.0,0.0,0.0,0.0,0.0,0.0,0.0,0.0,0.0,0.0,0.0,0.0,0.0,0.0,0.0,0.0,0.0,0.0,0.0,0.0,0.0,0.0,0.0,0.0,0.0,0.0,0.0,0.0,0.0,0.0,0.0,0.0,0.0,0.0,0.0,0.0,0.0,0.0,0.0,0.0,0.0,0.0,0.0,0.0,0.0,0.0,0.0,0.0,0.0,0.0,0.0,0.0,0.0,0.0,0.0,0.0,0.0,0.0,0.0,0.0,0.0,0.0,0.0,0.0,0.0,0.0,0.0,0.0,0.0,0.0,0.0,0.0,0.0,0.0,0.0,0.0,0.0,0.0,0.0,0.0,0.0,0.0,0.0,0.0,0.0,0.0,0.0,0.0,0.0,0.0,0.0,0.0,0.0,0.0,0.0,0.0,0.0,0.0,0.0,0.0,0.0,0.0,0.0,0.0,0.0,0.0,0.0,0.0,0.0,0.0,0.0,0.0,0.0,0.0,0.0,0.0,0.0,0.0,0.0,0.0,0.0,0.0,0.0,0.0,0.0,0.0,0.0,0.0,0.0,0.0,0.0,0.0,0.0,0.0,0.0,0.0,0.0,0.0,0.0,0.0,0.0,0.0,0.0,0.0,0.0,0.0,0.0,0.0,0.0,0.0,0.0,0.0,0.0,0.0,0.0,0.0,0.0,0.0,0.0,0.0,0.0,0.0,0.0,0.0,0.0,0.0,0.0,0.0,0.0,0.0,0.0,0.0,0.0,0.0,0.0,0.0,0.0,0.0,0.0,0.0,0.0,0.0,0.0,0.0,0.0,0.0,0.0,0.0,0.0,0.0,0.0,0.0,0.0,0.0,0.0,0.0,0.0,0.0,0.0,0.0,0.0,0.0,0.0,0.0,0.0,0.0,0.0,0.0,0.0,0.0,0.0,0.0,0.0,0.0,0.0,0.0,0.0,0.0,0.0,0.0,0.0,0.0,0.0,0.0,0.0,0.0,0.0,0.0,0.0,0.0,0.0,0.0,0.0,0.0,0.0,0.0,0.0,0.0,0.0,0.0,0.0,0.0,0.0,0.0,0.0,0.0,0.0,0.0,0.0,0.0,0.0,0.0,0.0,0.0,0.0,0.0,0.0,0.0,0.0,0.0,0.0,0.0,0.0,0.0,0.0,0.0,0.0,0.0,0.0,0.0,0.0,0.0,0.0,0.0,0.0,0.0,0.0,0.0,0.0,0.0,0.0,0.0,0.0,0.0,0.0,0.0,0.0,0.0,0.0,0.0,0.0,0.0,0.0,0.0,0.0,0.0,0.0,0.0,0.0,0.0,0.0,0.0,0.0,0.0,0.0,0.0,0.0,0.0,0.0,0.0,0.0,0.0,0.0,0.0,0.0,0.0,0.0,0.0,0.0,0.0,0.0,0.0,0.0,0.0,0.0,0.0,0.0,0.0,0.0,0.0,0.0,0.0,0.0,0.0,0.0,0.0,0.0,0.0,0.0,0.0,0.0,0.0,0.0,0.0,0.0,0.0,0.0,0.0,0.0,0.0,0.0,0.0,0.0,0.0,0.0,0.0,0.0,0.0,0.0,0.0,0.0,0.0,0.0,0.0,0.0,0.0,0.0,0.0,0.0,0.0,0.0,0.0,0.0,0.0,0.0,0.0,0.0,0.0,0.0,0.0,0.0,0.0,0.0,0.0,0.0,0.0,0.0,0.0,0.0,0.0,0.0,0.0,0.0,0.0,0.0,0.0,0.0,0.0,0.0,0.0,0.0,0.0,0.0,0.0,0.0,0.0,0.0,0.0,0.0,0.0,0.0,0.0,0.0,0.0,0.0,0.0,0.0,0.0,0.0,0.0,0.0,0.0,0.0,0.0,0.0,0.0,0.0,0.0,0.0,0.0,0.0,0.0,0.0,0.0,0.0,0.0,0.0,0.0,0.0,0.0,0.0,0.0,0.0,0.0,0.0,0.0,0.0,0.0,0.0,0.0,0.0,0.0,0.0,0.0,0.0,0.0,0.0,0.0,0.0,0.0,0.0,0.0,0.0,0.0,0.0,0.0,0.0,0.0,0.0,0.0,0.0,0.0,0.0,0.0,0.0,0.0,0.0,0.0,0.0,0.0,0.0,0.0,0.0,0.0,0.0,0.0,0.0,0.0,0.0,0.0,0.0,0.0,0.0,0.0,0.0,0.0,0.0,0.0,0.0,0.0,0.0,0.0,0.0,0.0,0.0,0.0,0.0,0.0,0.0,0.0,0.0,0.0,0.0,0.0,0.0,0.0,0.0,0.0,0.0,0.0,0.0,0.0,0.0,0.0,0.0,0.0,0.0,0.0,0.0,0.0,0.0,0.0,0.0,0.0,0.0,0.0,0.0,0.0,0.0,0.0,0.0,0.0,0.0,0.0,0.0,0.0,0.0,0.0,0.0,0.0,0.0,0.0,0.0,0.0,0.0,0.0,0.0,0.0,0.0,0.0,0.0,0.0,0.0,0.0,0.0,0.0,0.0,0.0,0.0,0.0,0.0,0.0,0.0,0.0,0.0,0.0,0.0,0.0,0.0,0.0,0.0,0.0,0.0,0.0,0.0,0.0,0.0,0.0,0.0,0.0,0.0,0.0,0.0,0.0,0.0,0.0,0.0,0.0,0.0,0.0,0.0,0.0,0.0,0.0,0.0,0.0,0.0,0.0,0.0,0.0,0.0,0.0,0.0,0.0,0.0,0.0,0.0,0.0,0.0,0.0,0.0,0.0,0.0,0.0,0.0,0.0,0.0,0.0,0.0,0.0,0.0,0.0,0.0,0.0,0.0,0.0,0.0,0.0,0.0,0.0,0.0,0.0,0.0,0.0,0.0,0.0,0.0,0.0,0.0,0.0,0.0,0.0,0.0,0.0,0.0,0.0,0.0,0.0,0.0,0.0,0.0,0.0,0.0,0.0,0.0,0.0,0.0,0.0,0.0,0.0,0.0,0.0,0.0,0.0,0.0,0.0,0.0,0.0,0.0,0.0,0.0,0.0,0.0,0.0,0.0,0.0,0.0,0.0,0.0,0.0,0.0,0.0,0.0,0.0,0.0,0.0,0.0,0.0,0.0,0.0,0.0,0.0,0.0,0.0,0.0,0.0,0.0,0.0,0.0,0.0,0.0,0.0,0.0,0.0,0.0,0.0,0.0,0.0,0.0,0.0,0.0,0.0,0.0,0.0,0.0,0.0,0.0,0.0,0.0,0.0,0.0,0.0,0.0,0.0,0.0,0.0,0.0,0.0,0.0,0.0,0.0,0.0,0.0,0.0,0.0,0.0,0.0,0.0,0.0,0.0,0.0,0.0,0.0,0.0,0.0,0.0,0.0,0.0,0.0,0.0,0.0,0.0,0.0,0.0,0.0,0.0,0.0,0.0,0.0,0.0,0.0,0.0,0.0,0.0,0.0,0.0,0.0,0.0,0.0,0.0,0.0,0.0,0.0,0.0,0.0,0.0,0.0,0.0,0.0,0.0,0.0,0.0,0.0,0.0,0.0,0.0,0.0,0.0,0.0,0.0,0.0,0.0,0.0,0.0,0.0,0.0,0.0,0.0,0.0,0.0,0.0,0.0,0.0,0.0,0.0,0.0,0.0,0.0,0.0,0.0,0.0,0.0,0.0,0.0,0.0,0.0,0.0,0.0,0.0,0.0,0.0,0.0,0.0,0.0,0.0,0.0,0.0,0.0,0.0,0.0,0.0,0.0,0.0,0.0,0.0,0.0,0.0,0.0,0.0,0.0,0.0,0.0,0.0,0.0,0.0,0.0,0.0,0.0,0.0,0.0,0.0,0.0,0.0,0.0,0.0,0.0,0.0,0.0,0.0,0.0,0.0,0.0,0.0,0.0,0.0,0.0,0.0,0.0,0.0,0.0,0.0,0.0,0.0,0.0,0.0,0.0,0.0,0.0,0.0,0.0,0.0,0.0,0.0,0.0,0.0,0.0,0.0,0.0,0.0,0.0,0.0,0.0,0.0,0.0,0.0,0.0,0.0,0.0,0.0,0.0,0.0,0.0,0.0,0.0,0.0,0.0,0.0,0.0,0.0,0.0,0.0,0.0,0.0,-0.308,0.0,0.0,0.0,0.0,0.0,0.0,0.0,0.0,0.0,0.0,0.0,0.0,0.0,0.0,0.0,0.0,0.0,0.0,0.0,0.0,0.0,0.0,0.0,0.0,0.0,0.0,0.0,0.0,0.0,0.0,0.0,0.0,0.0,0.0,0.0,0.0,0.0,0.0,0.0,0.0,0.0,0.0,0.0,0.0,0.0,0.0,0.0,0.0,0.0,0.0,0.0,0.0,0.0,0.0,0.0,0.0,0.0,0.0,0.0,0.0,0.0,0.0,0.0,0.0,0.0,0.0,0.0,0.0,0.0,0.0,0.0,0.0,0.0,0.0,0.0,0.0,0.0,0.0,0.0,0.0,0.0,0.0,0.0,0.0,0.0,0.0,0.0,0.0,0.0,0.0,0.0,0.0,0.0,0.0,0.0,0.0,0.0,0.0,0.0,0.0,0.0,0.0,0.0,0.0,0.0,0.0,0.0,0.0,0.0,0.0,-0.4491,-0.446,-0.3705,-0.329,-0.3226,0.0,0.0,0.0,0.0,0.0,0.0,0.0,0.0,0.0,0.0,0.0,0.0,0.0,0.0,0.0,0.0,0.0,0.0,0.0,0.0,0.0,0.0,0.0,0.0,0.0,0.0,0.0,0.0,0.0,0.0,0.0,0.0,0.0,0.0,0.0,0.0,0.0,0.0,0.0,0.0,0.0,0.0,0.0,0.0,0.0,0.0,0.0,0.0,0.0,0.0,0.0,0.0,0.0,0.0,0.0,0.0,0.0,0.0,0.0,0.0,0.0,0.0,0.0,0.0,0.0,0.0,0.0,0.0,0.0,0.0,0.0,0.0,0.0,0.0,0.0,0.0,0.0,0.0,0.0,0.0,0.0,0.0,0.0,0.0,0.0,0.0,0.0,0.0,0.0,0.0,0.0,0.0,0.0,0.0,0.0,0.0,0.0,0.0,0.0,0.0,0.0,0.0,0.0,0.0,0.0,0.0,0.0,0.0,0.0,0.0,0.0,0.0,-0.3393,-0.3051,-0.3112,0.0,0.0,0.0,0.0,0.0,0.0,0.0,0.0,0.0,0.0,0.0,0.0,0.0,0.0,0.0,0.0,0.0,0.0,0.0,0.0,0.0,0.0,0.0,0.0,0.0,0.0,0.0,0.0,0.0,0.0,0.0,0.0,0.0,0.0,0.0,0.0,0.0,0.0,0.0,0.0,0.0,0.0,0.0,0.0,0.0,0.0,0.0,0.0,0.0,0.0,0.0,0.0,0.0,0.0,0.0,0.0,0.0,0.0,0.0,0.0,0.0,0.0,0.0,0.0,0.0,0.0,0.0,0.0,0.0,0.0,0.0,0.0,0.0,0.0,0.0,0.0,0.0,0.0,0.0,0.0,0.0,0.0,0.0,0.0,0.0,0.0,0.0,0.0,0.0,0.0,0.0,0.0,0.0,0.0,0.0,0.0,0.0,0.0,0.0,0.0,0.0,0.0,0.0,0.0,0.0,0.0,0.0,0.0,0.0,0.0,-0.2411,-0.2401,-0.2343,0.0,-0.3096,0.0,0.0,0.0,0.0,0.0,0.0,0.0,0.0,0.0,0.0,0.0,0.0,0.0,0.0,0.0,0.0,0.0,0.0,0.0,0.0,0.0,0.0,0.0,0.0,0.0,0.0,0.0,0.0,0.0,0.0,0.0,0.0,0.0,0.0,0.0,0.0,0.0,0.0,0.0,0.0,0.0,0.0,0.0,0.0,0.0,0.0,0.0,0.0,0.0,0.0,0.0,0.0,0.0,0.0,0.0,0.0,0.0,0.0,0.0,0.0,0.0,0.0,0.0,0.0,0.0,0.0,0.0,0.0,0.0,0.0,0.0,0.0,0.0,0.0,0.0,0.0,0.0,0.0,0.0,0.0,0.0,0.0,0.0,0.0,0.0,0.0,0.0,0.0,0.0,0.0,0.0,0.0,0.0,0.0,0.0,0.0,0.0,0.0,0.0,0.0,0.0,0.0,0.0,0.0,0.0,0.0,0.0,0.0,0.0,0.0,-0.2184,-0.2211,-0.2133,-0.2393,0.0,0.0,0.0,0.0,0.0,0.0,0.0,0.0,0.0,0.0,0.0,0.0,0.0,0.0,0.0,0.0,0.0,0.0,0.0,0.0,0.0,0.0,0.0,0.0,0.0,0.0,0.0,0.0,0.0,0.0,0.0,0.0,0.0,0.0,0.0,0.0,0.0,0.0,0.0,0.0,0.0,0.0,0.0,0.0,0.0,0.0,0.0,0.0,0.0,0.0,0.0,0.0,0.0,0.0,0.0,0.0,0.0,0.0,0.0,0.0,0.0,0.0,0.0,0.0,0.0,0.0,0.0,0.0,0.0,0.0,0.0,0.0,0.0,0.0,0.0,0.0,0.0,0.0,0.0,0.0,0.0,0.0,0.0,0.0,0.0,0.0,0.0,0.0,0.0,0.0,0.0,0.0,0.0,0.0,0.0,0.0,0.0,0.0,0.0,0.0,0.0,0.0,0.0,0.0,0.0,0.0,0.0,0.0,0.0,0.0,-0.1594,-0.1591,-0.1613,-0.1728,-0.202,-0.2475,0.0,0.0,0.0,0.0,0.0,0.0,0.0,0.0,0.0,0.0,0.0,0.0,0.0,0.0,0.0,0.0,0.0,0.0,0.0,0.0,0.0,0.0,0.0,0.0,0.0,0.0,0.0,0.0,0.0,0.0,0.0,0.0,0.0,0.0,0.0,0.0,0.0,0.0,0.0,0.0,0.0,0.0,0.0,0.0,0.0,0.0,0.0,0.0,0.0,0.0,0.0,0.0,0.0,0.0,0.0,0.0,0.0,0.0,0.0,0.0,0.0,0.0,0.0,0.0,0.0,0.0,0.0,0.0,0.0,0.0,0.0,0.0,0.0,0.0,0.0,0.0,0.0,0.0,0.0,0.0,0.0,0.0,0.0,0.0,0.0,0.0,0.0,0.0,0.0,0.0,0.0,0.0,0.0,0.0,0.0,0.0,0.0,0.0,0.0,0.0,0.0,0.0,0.0,0.0,0.0,0.0,0.0,0.0,0.0,0.0,0.0,0.0,-0.0879,-0.1224,0.0,0.0,0.0,0.0,0.0,0.0,0.0,0.0,0.0,0.0,0.0,0.0,0.0,0.0,0.0,0.0,0.0,0.0,0.0,0.0,0.0,0.0,0.0,0.0,0.0,0.0,0.0,0.0,0.0,0.0,0.0,0.0,0.0,0.0,0.0,0.0,0.0,0.0,0.0,0.0,0.0,0.0,0.0,0.0,0.0,0.0,0.0,0.0,0.0,0.0,0.0,0.0,0.0,0.0,0.0,0.0,0.0,0.0,0.0,0.0,0.0,0.0,0.0,0.0,0.0,0.0,0.0,0.0,0.0,0.0,0.0,0.0,0.0,0.0,0.0,0.0,0.0,0.0,0.0,0.0,0.0,0.0,0.0,0.0,0.0,0.0,0.0,0.0,0.0,0.0,0.0,0.0,0.0,0.0,0.0,0.0,0.0,0.0,0.0,0.0,0.0,0.0,0.0,0.0,0.0,0.0,0.0,0.0,0.0,0.0,0.0,0.0,0.0,-0.0296,-0.06,0.0,0.0,0.0,0.0,0.0,0.0,0.0,0.0,0.0,0.0,0.0,0.0,0.0,0.0,0.0,0.0,0.0,0.0,0.0,0.0,0.0,0.0,0.0,0.0,0.0,0.0,0.0,0.0,0.0,0.0,0.0,0.0,0.0,0.0,0.0,0.0,0.0,0.0,0.0,0.0,0.0,0.0,0.0,0.0,0.0,0.0,0.0,0.0,0.0,0.0,0.0,0.0,0.0,0.0,0.0,0.0,0.0,0.0,0.0,0.0,0.0,0.0,0.0,0.0,0.0,0.0,0.0,0.0,0.0,0.0,0.0,0.0,0.0,0.0,0.0,0.0,0.0,0.0,0.0,0.0,0.0,0.0,0.0,0.0,0.0,0.0,0.0,0.0,0.0,0.0,0.0,0.0,0.0,0.0,0.0,0.0,0.0,0.0,0.0,0.0,0.0,0.0,0.0,0.0,0.0,0.0,0.0,0.0,0.0,0.0,0.0,0.0,0.0,0.0,-0.0186,0.0,0.0,0.0,0.0,0.0,0.0,0.0,0.0,0.0,0.0,0.0,0.0,0.0,0.0,0.0,0.0,0.0,0.0,0.0,0.0,0.0,0.0,0.0,0.0,0.0,0.0,0.0,0.0,0.0,0.0,0.0,0.0,0.0,0.0,0.0,0.0,0.0,0.0,0.0,0.0,0.0,0.0,0.0,0.0,0.0,0.0,0.0,0.0,0.0,0.0,0.0,0.0,0.0,0.0,0.0,0.0,0.0,0.0,0.0,0.0,0.0,0.0,0.0,0.0,0.0,0.0,0.0,0.0,0.0,0.0,0.0,0.0,0.0,0.0,0.0,0.0,0.0,0.0,0.0,0.0,0.0,0.0,0.0,0.0,0.0,0.0,0.0,0.0,0.0,0.0,0.0,0.0,0.0,0.0,0.0,0.0,0.0,0.0,0.0,0.0,0.0,0.0,0.0,0.0,0.0,0.0,0.0,0.0,0.0,0.0,0.0,0.0,0.0,0.0,0.0,0.0,0.0,0.0,0.0,0.0,0.0,0.0,0.0,0.0,0.0,0.0,0.0,0.0,0.0,0.0,0.0,0.0,0.0,0.0,0.0,0.0,0.0,0.0,0.0,0.0,0.0,0.0,0.0,0.0,0.0,0.0,0.0,0.0,0.0,0.0,0.0,0.0,0.0,0.0,0.0,0.0,0.0,0.0,0.0,0.0,0.0,0.0,0.0,0.0,0.0,0.0,0.0,0.0,0.0,0.0,0.0,0.0,0.0,0.0,0.0,0.0,0.0,0.0,0.0,0.0,0.0,0.0,0.0,0.0,0.0,0.0,0.0,0.0,0.0,0.0,0.0,0.0,0.0,0.0,0.0,0.0,0.0,0.0,0.0,0.0,0.0,0.0,0.0,0.0,0.0,0.0,0.0,0.0,0.0,0.0,0.0,0.0,0.0,0.0,0.0,0.0,0.0,0.0,0.0,0.0,0.0,0.0,0.0,0.0,0.0,0.0,0.0,0.0,0.0,0.0,0.0,0.0,0.0,0.0,0.0,0.0,0.0,0.0,0.0,0.0,0.0,0.0,0.0,0.0,0.0,0.0,0.0,0.0,0.0,0.0,0.0,0.0,0.0,0.0,0.0,0.0,0.0,0.0,0.0,0.0,0.0,0.0,0.0,0.0,0.0,0.0,0.0,0.0,0.0,0.0,0.0,0.0,0.0,0.0,0.0,0.0,0.0,0.0,0.0,0.0,0.0,0.0,0.0,0.0,0.0,0.0,0.0,0.0,0.0,0.0,0.0,0.0,0.0,0.0,0.0,0.0,0.0,0.0,0.0,0.0,0.0,0.0,0.0,0.0,0.0,0.0,0.0,0.0,0.0,0.0,0.0,0.0,0.0,0.0,0.0,0.0,0.0,0.0,0.0,0.0,0.0,0.0,0.0,0.0,0.0,0.0,0.0,0.0,0.0,0.0,0.0,0.0,0.0,0.0,0.0,0.0,0.0,0.0,0.0,0.0,0.0,0.0,0.0,0.0,0.0,0.0,0.0,0.0,0.0,0.0,0.0,0.0,0.0,0.0,0.0,0.0,0.0,0.0,0.0,0.0,0.0,0.0,0.0,0.0,0.0,0.0,0.0,0.0,0.0,0.0,0.0,0.0,0.0,0.0,0.0,0.0,0.0,0.0,0.0,0.0,0.0,0.0,0.0,0.0,0.0,0.0,0.0,0.0,0.0,0.0,0.0,0.0,0.0,0.0,0.0,0.0,0.0,0.0,0.0,0.0,0.0,0.0,0.0,0.0,0.0,0.0,0.0,0.0,0.0,0.0,0.0,0.0,0.0,0.0,0.0,0.0,0.0,0.0,0.0,0.0,0.0,0.0,0.0,0.0,0.0,0.0,0.0,0.0,0.0,0.0,0.0,0.0,0.0,0.0,0.0,0.0,0.0,0.0,0.0,0.0,0.0,0.0,0.0,0.0,0.0,0.0,0.0,0.0,0.0,0.0,0.0,0.0,0.0,0.0,0.0,0.0,0.0,0.0,0.0,0.0,0.0,0.0,0.0,0.0,0.0,0.0,0.0,0.0,0.0,0.0,0.0,0.0,0.0,0.0,0.0,0.0,0.0,0.0,0.0,0.0,0.0,0.0,0.0,0.0,0.0,0.0,0.0,0.0,0.0,0.0,0.0,0.0,0.0,0.0,0.0,0.0,0.0,0.0,0.0,0.0,0.0,0.0,0.0,0.0,0.0,0.0,0.0,0.0,0.0,0.0,0.0,0.0,0.0,0.0,0.0,0.0,0.0,0.0,0.0,0.0,0.0,0.0,0.0,0.0,0.0,0.0,0.0,0.0,0.0,0.0,0.0,0.0,0.0,0.0,0.0,0.0,0.0,0.0,0.0,0.0,0.0,0.0,0.0,0.0,0.0,0.0,0.0,0.0,0.0,0.0,0.0,0.0,0.0,0.0,0.0,0.0,0.0,0.0,0.0,0.0,0.0,0.0,0.0,0.0,0.0,0.0,0.0,0.0,0.0,0.0,0.0,0.0,0.0,0.0,0.0,0.0,0.0,0.0,0.0,0.0,0.0,0.0,0.0,0.0,0.0,0.0,0.0,0.0,0.0,0.0,0.0,0.0,0.0,0.0,0.0,0.0,0.0,0.0,0.0,0.0,0.0,0.0,0.0,0.0,0.0,0.0,0.0,0.0,0.0,0.0,0.0,0.0,0.0,0.0,0.0,0.0,0.0,0.0,0.0,0.0,0.0,0.0,0.0,0.0,0.0,0.0,0.0,0.0,0.0,0.0,0.0,0.0,0.0,0.0,0.0,0.0,0.0,0.0,0.0,0.0,0.0,0.0,0.0,0.0,0.0,0.0,0.0,0.0,0.0,0.0,0.0,0.0,0.0,0.0,0.0,0.0,0.0,0.0,0.0,0.0,0.0,0.0,0.0,0.0,0.0,0.0,0.0,0.0,0.0,0.0,0.0,0.0,0.0,0.0,0.0,0.0,0.0,0.0,0.0,0.0,0.0,0.0,0.0,0.0,0.0,0.0,0.0,0.0,0.0,0.0,0.0,0.0,0.0,0.0,0.0,0.0,0.0,0.0,0.0,0.0,0.0,0.0,0.0,0.0,0.0,0.0,0.0,0.0,0.0,0.0,0.0,0.0,0.0,0.0,0.0,0.0,0.0,0.0,0.0,0.0,0.0,0.0,0.0,0.0,0.0,0.0,0.0,0.0,0.0,0.0,0.0,0.0,0.0,0.0,0.0,0.0,0.0,0.0,0.0,0.0,0.0,0.0,0.0,0.0,0.0,0.0,0.0,0.0,0.0,0.0,0.0,0.0,0.0,0.0,0.0,0.0,0.0,0.0,0.0,0.0,0.0,0.0,0.0,0.0,0.0,0.0,0.0,0.0,0.0,0.0,0.0,0.0,0.0,0.0,0.0,0.0,0.0,0.0,0.0,0.0,0.0,0.0,0.0,0.0,0.0,0.0,0.0,0.0,0.0,0.0,0.0,0.0,0.0,0.0,0.0,0.0,0.0,0.0,0.0,0.0,0.0,0.0,0.0,0.0,0.0,0.0,0.0,0.0,0.0,0.0,0.0,0.0,0.0,0.0,0.0,0.0,0.0,0.0,0.0,0.0,0.0,0.0,0.0,0.0,0.0,0.0,0.0,0.0,0.0,0.0,0.0,0.0,0.0,0.0,0.0,0.0,0.0,0.0,0.0,0.0,0.0,0.0,0.0,0.0,0.0,0.0,0.0,0.0,0.0,0.0,0.0,0.0,0.0,0.0,0.0,0.0,0.0,0.0,0.0,0.0,0.0,0.0,0.0,0.0,0.0,0.0,0.0,0.0,0.0,0.0,0.0,0.0,0.0,0.0,0.0,0.0,0.0,0.0,0.0,0.0,0.0,0.0,0.0,0.0,0.0,0.0,0.0,0.0,0.0,0.0,0.0,0.0,0.0,0.0,0.0,0.0,0.0,0.0,0.0,0.0,0.0,0.0,0.0,0.0,0.0,0.0,0.0,0.0,0.0,0.0,0.0,0.0,0.0,0.0,0.0,0.0,0.0,0.0,0.0,0.0,0.0,0.0,0.0,0.0,0.0,0.0,0.0,0.0,0.0,0.0,0.0,0.0,0.0,0.0,0.0,0.0,0.0,0.0,0.0,0.0,0.0,0.0,0.0,0.0,0.0,0.0,0.0,0.0,0.0,0.0,0.0,0.0,0.0,0.0,0.0,0.0,0.0,0.0,0.0,0.0,0.0,0.0,0.0,0.0,0.0,0.0,0.0,0.0,-0.4551,0.0,0.0,0.0,0.0,0.0,0.0,0.0,0.0,0.0,0.0,0.0,0.0,0.0,0.0,0.0,0.0,0.0,0.0,0.0,0.0,0.0,0.0,0.0,0.0,0.0,0.0,0.0,0.0,0.0,0.0,0.0,0.0,0.0,0.0,0.0,0.0,0.0,0.0,0.0,0.0,0.0,0.0,0.0,0.0,0.0,0.0,0.0,0.0,0.0,0.0,0.0,0.0,0.0,0.0,0.0,0.0,0.0,0.0,0.0,0.0,0.0,0.0,0.0,0.0,0.0,0.0,0.0,0.0,0.0,0.0,0.0,0.0,0.0,0.0,0.0,0.0,0.0,0.0,0.0,0.0,0.0,0.0,0.0,0.0,0.0,0.0,0.0,0.0,0.0,0.0,0.0,0.0,0.0,0.0,0.0,0.0,0.0,0.0,0.0,0.0,0.0,0.0,0.0,0.0,0.0,0.0,0.0,0.0,0.0,0.0,0.0,0.0,0.0,0.0,0.0,0.0,0.0,0.0,0.0,0.0,0.0,0.0,0.0,0.0,0.0,0.0,0.0,0.0,0.0,0.0,0.0,0.0,0.0,0.0,0.0,0.0,0.0,0.0,0.0,0.0,0.0,0.0,0.0,0.0,0.0,0.0,0.0,0.0,0.0,0.0,0.0,0.0,0.0,0.0,0.0,0.0,0.0,0.0,0.0,0.0,0.0,0.0,0.0,0.0,0.0,0.0,0.0,0.0,0.0,0.0,0.0,0.0,0.0,-0.0386,0.0,0.0,0.0,0.0,0.0,0.0,0.0,0.0,0.0,0.0,0.0,0.0,0.0,0.0,0.0,0.0,0.0,0.0,0.0,0.0,0.0,0.0,0.0,0.0,0.0,0.0,0.0,0.0,0.0,0.0,0.0,0.0,0.0,0.0,0.0,0.0,0.0,0.0,0.0,0.0,0.0,0.0,0.0,0.0,0.0,0.0,-0.2696,-0.3252,0.0,0.0,0.0,0.0,0.0,0.0,0.0,0.0,-0.5681,0.0,0.0,0.0,0.0,0.0,0.0,0.0,0.0,0.0,0.0,0.0,0.0,0.0,0.0,0.0,0.0,0.0,0.0,0.0,0.0,0.0,0.0,0.0,0.0,0.0,0.0,0.0,0.0,0.0,0.0,0.0,0.0,0.0,0.0,0.0,0.0,0.0,0.0,0.0,0.0,0.0,0.0,0.0,0.0,0.0,0.0,0.0,0.0,0.0,0.0,0.0,0.0,0.0,0.0,0.0,0.0,-0.1106,-0.0359,0.0,0.0,0.0,0.0,0.0,0.0,0.0,0.0,0.0,0.0,0.0,0.0,0.0,0.0,0.0,0.0,0.0,0.0,0.0,0.0,0.0,0.0,0.0,0.0,0.0,0.0,0.0,0.0,0.0,0.0,0.0,0.0,0.0,0.0,0.0,0.0,0.0,0.0,0.0,0.0,0.0,0.0,0.0,0.0,0.0,0.0,0.0,-0.3385,-0.373,0.0,0.0,0.0,0.0,0.0,0.0,0.0,0.0,-0.61,0.0,0.0,0.0,0.0,0.0,0.0,0.0,0.0,0.0,0.0,0.0,0.0,0.0,0.0,0.0,0.0,0.0,0.0,0.0,0.0,0.0,0.0,0.0,0.0,0.0,0.0,0.0,0.0,0.0,0.0,0.0,0.0,0.0,0.0,0.0,0.0,0.0,0.0,0.0,0.0,0.0,0.0,0.0,0.0,0.0,0.0,0.0,0.0,0.0,0.0,0.0,0.0,0.0,0.0,0.0,-0.1051,-0.037,0.0,0.0,0.0,0.0,0.0,0.0,0.0,0.0,0.0,0.0,0.0,0.0,0.0,0.0,0.0,0.0,0.0,0.0,0.0,0.0,0.0,0.0,0.0,0.0,0.0,0.0,0.0,0.0,0.0,0.0,0.0,0.0,0.0,0.0,0.0,0.0,0.0,0.0,0.0,0.0,0.0,0.0,0.0,0.0,0.0,0.0,0.0,-0.3607,-0.3856,-0.3733,0.0,0.0,0.0,0.0,0.0,0.0,-0.6317,-0.6153,0.0,0.0,0.0,0.0,0.0,0.0,0.0,0.0,0.0,0.0,0.0,0.0,0.0,0.0,0.0,0.0,0.0,0.0,0.0,0.0,0.0,0.0,0.0,0.0,0.0,0.0,0.0,0.0,0.0,0.0,0.0,0.0,0.0,0.0,0.0,0.0,0.0,0.0,0.0,0.0,0.0,0.0,0.0,0.0,0.0,0.0,0.0,0.0,0.0,0.0,0.0,0.0,0.0,0.0,0.0,-0.109,-0.0373,0.0,0.0,0.0,0.0,0.0,0.0,0.0,0.0,0.0,0.0,0.0,0.0,0.0,0.0,0.0,0.0,0.0,0.0,0.0,0.0,0.0,0.0,0.0,0.0,0.0,0.0,0.0,0.0,0.0,0.0,0.0,0.0,0.0,0.0,0.0,0.0,0.0,0.0,0.0,0.0,0.0,0.0,0.0,0.0,0.0,0.0,0.0,0.0,-0.4043,-0.3866,-0.4239,0.0,0.0,0.0,0.0,-0.6953,-0.6805,0.0,0.0,0.0,0.0,0.0,0.0,0.0,0.0,0.0,0.0,0.0,0.0,0.0,0.0,0.0,0.0,0.0,0.0,0.0,0.0,0.0,0.0,0.0,0.0,0.0,0.0,0.0,0.0,0.0,0.0,0.0,0.0,0.0,0.0,0.0,0.0,0.0,0.0,0.0,0.0,0.0,0.0,0.0,0.0,0.0,0.0,0.0,0.0,0.0,0.0,0.0,0.0,0.0,0.0,0.0,0.0,-0.105,-0.0356,0.0,0.0,0.0,0.0,0.0,0.0,0.0,0.0,0.0,0.0,0.0,0.0,0.0,0.0,0.0,0.0,0.0,0.0,0.0,0.0,0.0,0.0,0.0,0.0,0.0,0.0,0.0,0.0,0.0,0.0,0.0,0.0,0.0,0.0,0.0,0.0,0.0,0.0,0.0,0.0,0.0,0.0,0.0,0.0,0.0,0.0,0.0,0.0,-0.4337,-0.4008,-0.4041,-0.437,0.0,0.0,-0.6684,-0.7344,-0.8012,0.0,0.0,0.0,0.0,0.0,0.0,0.0,0.0,0.0,0.0,0.0,0.0,0.0,0.0,0.0,0.0,0.0,0.0,0.0,0.0,0.0,0.0,0.0,0.0,0.0,0.0,0.0,0.0,0.0,0.0,0.0,0.0,0.0,0.0,0.0,0.0,0.0,0.0,0.0,0.0,0.0,0.0,0.0,0.0,0.0,0.0,0.0,0.0,0.0,0.0,0.0,0.0,0.0,0.0,0.0,-0.0438,-0.0472,-0.0161,0.0,0.0,0.0,0.0,0.0,0.0,0.0,0.0,0.0,0.0,0.0,0.0,0.0,0.0,0.0,0.0,0.0,0.0,0.0,0.0,0.0,0.0,0.0,0.0,0.0,0.0,0.0,0.0,0.0,0.0,0.0,0.0,0.0,0.0,0.0,0.0,0.0,0.0,0.0,0.0,0.0,0.0,0.0,0.0,0.0,0.0,0.0,0.0,0.0,-0.4697,-0.4732,0.0,0.0,0.0,-0.6916,-0.7879,0.0,0.0,0.0,0.0,0.0,0.0,0.0,0.0,0.0,0.0,0.0,0.0,0.0,0.0,0.0,0.0,0.0,0.0,0.0,0.0,0.0,0.0,0.0,0.0,0.0,0.0,0.0,0.0,0.0,0.0,0.0,0.0,0.0,0.0,0.0,0.0,0.0,0.0,0.0,0.0,0.0,0.0,0.0,0.0,0.0,0.0,0.0,0.0,0.0,0.0,0.0,0.0,0.0,0.0,0.0,0.0,0.0,0.0,0.0,0.0,0.0,0.0,0.0,0.0,0.0,0.0,0.0,0.0,0.0,0.0,0.0,0.0,0.0,0.0,0.0,0.0,0.0,0.0,0.0,0.0,0.0,0.0,0.0,0.0,0.0,0.0,0.0,0.0,0.0,0.0,0.0,0.0,-0.1803,0.0,0.0,0.0,0.0,0.0,0.0,0.0,0.0,0.0,0.0,0.0,0.0,0.0,0.0,-0.446,-0.5031,-0.5167,-0.5675,0.0,0.0,-0.7263,-0.8404,-0.8285,-0.7877,0.0,0.0,0.0,0.0,0.0,0.0,0.0,0.0,0.0,0.0,0.0,0.0,0.0,0.0,0.0,0.0,0.0,0.0,0.0,0.0,0.0,0.0,0.0,0.0,0.0,0.0,0.0,0.0,0.0,0.0,0.0,0.0,0.0,0.0,0.0,0.0,0.0,0.0,0.0,0.0,0.0,0.0,0.0,0.0,0.0,0.0,0.0,0.0,0.0,0.0,0.0,0.0,0.0,0.0,0.0,0.0,0.0,0.0,0.0,0.0,0.0,0.0,0.0,0.0,0.0,0.0,0.0,0.0,0.0,0.0,0.0,0.0,0.0,0.0,0.0,0.0,0.0,0.0,0.0,0.0,0.0,0.0,0.0,0.0,0.0,0.0,0.0,0.0,0.0,0.0,0.0,0.0,0.0,0.0,0.0,0.0,0.0,0.0,0.0,0.0,0.0,0.0,0.0,0.0,0.0,-0.4505,-0.4556,-0.4788,-0.5502,0.0,0.0,-0.7977,-0.8981,-0.9582,-0.9362,-0.7765,0.0,0.0,0.0,0.0,0.0,0.0,0.0,0.0,0.0,0.0,0.0,0.0,0.0,0.0,0.0,0.0,0.0,0.0,0.0,0.0,0.0,0.0,0.0,0.0,0.0,0.0,0.0,0.0,0.0,0.0,0.0,0.0,0.0,0.0,0.0,0.0,0.0,0.0,0.0,0.0,0.0,0.0,0.0,0.0,0.0,0.0,0.0,0.0,0.0,0.0,0.0,0.0,0.0,0.0,0.0,0.0,0.0,0.0,0.0,0.0,0.0,0.0,0.0,0.0,0.0,0.0,0.0,0.0,0.0,0.0,0.0,0.0,0.0,0.0,0.0,0.0,0.0,0.0,0.0,0.0,0.0,0.0,0.0,0.0,0.0,0.0,0.0,0.0,0.0,0.0,0.0,-0.2153,-0.2146,-0.1943,0.0,0.0,0.0,0.0,0.0,0.0,0.0,0.0,0.0,0.0,-0.4802,-0.5252,-0.5153,0.0,0.0,-0.7836,-0.8042,-0.9039,-0.9397,-0.9138,-0.7925,-0.7618,0.0,0.0,0.0,0.0,0.0,0.0,0.0,0.0,0.0,0.0,0.0,0.0,0.0,0.0,0.0,0.0,0.0,0.0,0.0,0.0,0.0,0.0,0.0,0.0,0.0,0.0,0.0,0.0,0.0,0.0,0.0,0.0,0.0,0.0,0.0,0.0,0.0,0.0,0.0,0.0,0.0,0.0,0.0,0.0,0.0,0.0,0.0,0.0,0.0,0.0,0.0,0.0,0.0,0.0,0.0,0.0,0.0,0.0,0.0,0.0,0.0,0.0,0.0,0.0,0.0,0.0,0.0,0.0,0.0,0.0,0.0,0.0,0.0,0.0,0.0,0.0,0.0,0.0,0.0,0.0,0.0,0.0,0.0,0.0,0.0,0.0,0.0,0.0,0.0,0.0,-0.2289,-0.2249,-0.1967,0.0,0.0,0.0,0.0,0.0,0.0,0.0,0.0,0.0,0.0,-0.4991,-0.5793,-0.5709,-0.6322,-0.837,-0.8299,-0.8342,-0.9219,-0.9344,-0.9051,-0.8203,0.0,0.0,0.0,0.0,0.0,0.0,0.0,0.0,0.0,0.0,0.0,0.0,0.0,0.0,0.0,0.0,0.0,0.0,0.0,0.0,0.0,0.0,0.0,0.0,0.0,0.0,0.0,0.0,0.0,0.0,0.0,0.0,0.0,0.0,0.0,0.0,0.0,0.0,0.0,0.0,0.0,0.0,0.0,0.0,0.0,0.0,0.0,0.0,0.0,0.0,0.0,0.0,0.0,0.0,0.0,0.0,0.0,0.0,0.0,0.0,0.0,0.0,0.0,0.0,0.0,0.0,0.0,0.0,0.0,0.0,0.0,0.0,0.0,0.0,0.0,0.0,0.0,0.0,0.0,0.0,0.0,0.0,0.0,0.0,0.0,0.0,0.0,0.0,0.0,0.0,-0.2248,-0.2087,-0.1958,0.0,0.0,0.0,0.0,0.0,0.0,0.0,0.0,0.0,0.0,-0.4406,-0.5089,-0.6041,-0.6472,-0.7288,-0.9014,-0.9002,-0.8987,-0.9603,-0.9673,-0.9379,0.0,0.0,0.0,0.0,0.0,0.0,0.0,0.0,0.0,0.0,0.0,0.0,0.0,0.0,0.0,0.0,0.0,0.0,0.0,0.0,0.0,0.0,0.0,0.0,0.0,0.0,0.0,0.0,0.0,0.0,0.0,0.0,0.0,0.0,0.0,0.0,0.0,0.0,0.0,0.0,0.0,0.0,0.0,0.0,0.0,0.0,0.0,0.0,0.0,0.0,0.0,0.0,0.0,0.0,0.0,0.0,0.0,0.0,0.0,0.0,0.0,0.0,0.0,0.0,0.0,0.0,0.0,0.0,0.0,0.0,0.0,0.0,0.0,0.0,0.0,0.0,0.0,0.0,0.0,0.0,0.0,0.0,0.0,0.0,0.0,0.0,0.0,0.0,0.0,0.0,-0.2248,0.0,0.0,0.0,0.0,0.0,0.0,0.0,0.0,0.0,0.0,0.0,-0.3832,-0.4083,-0.5054,-0.5799,-0.6156,-0.6984,-0.7962,0.0,0.0,0.0,0.0,0.0,0.0,0.0,0.0,0.0,0.0,0.0,0.0,0.0,0.0,-0.9651,-0.7923,-0.7501,-0.7543,-0.7875,0.0,0.0,0.0,0.0,0.0,0.0,0.0,0.0,0.0,0.0,0.0,0.0,0.0,0.0,0.0,0.0,0.0,0.0,0.0,0.0,0.0,0.0,0.0,0.0,0.0,0.0,0.0,0.0,0.0,0.0,0.0,0.0,0.0,0.0,0.0,0.0,0.0,0.0,0.0,0.0,0.0,0.0,0.0,0.0,0.0,0.0,0.0,0.0,0.0,0.0,0.0,0.0,0.0,0.0,0.0,0.0,0.0,0.0,0.0,0.0,0.0,0.0,0.0,0.0,0.0,0.0,0.0,0.0,0.0,0.0,0.0,0.0,0.0,0.0,0.0,0.0,0.0,-0.2453,0.0,0.0,0.0,0.0,0.0,0.0,0.0,0.0,0.0,-0.3707,-0.3904,-0.4138,-0.4415,-0.5236,-0.6045,-0.6619,0.0,0.0,0.0,0.0,0.0,0.0,0.0,-0.9733,-0.9439,-0.9291,-0.9171,-0.8964,-0.9171,-0.9653,-1.0531,0.0,0.0,-0.9439,-0.8986,-0.8894,-0.9205,-0.9619,-0.9932,-1.0098,-1.0693,-1.1203,0.0,0.0,0.0,0.0,0.0,0.0,0.0,0.0,0.0,0.0,0.0,0.0,0.0,0.0,0.0,0.0,0.0,0.0,0.0,0.0,0.0,0.0,0.0,0.0,0.0,0.0,0.0,0.0,0.0,0.0,0.0,0.0,0.0,0.0,0.0,0.0,0.0,0.0,0.0,0.0,0.0,0.0,0.0,0.0,0.0,0.0,0.0,0.0,0.0,0.0,0.0,0.0,0.0,0.0,0.0,0.0,0.0,0.0,0.0,0.0,0.0,0.0,0.0,0.0,0.0,0.0,0.0,0.0,0.0,0.0,0.0,-0.2554,0.0,0.0,0.0,0.0,0.0,0.0,0.0,0.0,0.0,0.0,-0.4031,-0.4317,-0.4607,-0.4844,0.0,0.0,0.0,0.0,-0.8646,-1.0352,-1.0327,-1.013,-1.0174,-1.0123,-1.004,-0.978,0.0,0.0,-0.9351,-0.9526,-0.969,-0.9423,-1.0546,-1.1798,-1.3195,-1.2307,-1.1672,-1.1979,-1.1758,-1.177,-1.2086,-1.2363,-1.2744,0.0,0.0,0.0,0.0,0.0,0.0,0.0,0.0,0.0,0.0,0.0,0.0,0.0,0.0,0.0,0.0,0.0,0.0,0.0,0.0,0.0,0.0,0.0,0.0,0.0,0.0,0.0,0.0,0.0,0.0,0.0,0.0,0.0,0.0,0.0,0.0,0.0,0.0,0.0,0.0,0.0,0.0,0.0,0.0,0.0,0.0,0.0,0.0,0.0,0.0,0.0,0.0,0.0,0.0,0.0,0.0,0.0,0.0,0.0,0.0,0.0,0.0,0.0,0.0,0.0,0.0,0.0,0.0,0.0,0.0,-0.2303,-0.2788,-0.304,0.0,0.0,0.0,0.0,0.0,0.0,0.0,0.0,0.0,-0.4591,-0.4636,-0.4701,0.0,0.0,-0.6415,-0.7551,-0.8392,-0.9397,-1.0712,-1.0795,0.0,-1.1015,-1.0701,-1.0506,-1.0595,-1.0553,-1.0405,-1.0244,-1.0285,-1.0666,-1.1659,-1.2014,-1.2583,-1.3982,-1.3414,-1.2533,-1.2272,-1.2363,-1.2422,-1.2272,-1.2578,-1.2915,0.0,0.0,0.0,0.0,0.0,0.0,0.0,0.0,0.0,0.0,0.0,0.0,0.0,0.0,0.0,0.0,0.0,0.0,0.0,0.0,0.0,0.0,0.0,0.0,0.0,0.0,0.0,0.0,0.0,0.0,0.0,0.0,0.0,0.0,0.0,0.0,0.0,0.0,0.0,0.0,0.0,0.0,0.0,0.0,0.0,0.0,0.0,0.0,0.0,0.0,0.0,0.0,0.0,0.0,0.0,0.0,0.0,0.0,0.0,0.0,0.0,0.0,0.0,-0.033,-0.0273,0.0,0.0,0.0,-0.1601,-0.2203,-0.2867,-0.3206,0.0,0.0,0.0,0.0,0.0,0.0,0.0,-0.4206,-0.4439,-0.4668,-0.4935,-0.503,-0.5084,-0.5172,-0.5708,-0.6567,-0.7877,0.0,-0.952,-1.0969,-1.1169,-1.1229,-1.1355,-1.1136,-1.0929,-1.0982,-1.0787,-1.06,-1.0586,-1.0586,-1.0965,-1.1795,-1.2353,-1.2953,-1.392,-1.3938,-1.3682,-1.309,-1.3168,-1.3223,-1.2798,-1.2949,-1.3086,0.0,0.0,0.0,0.0,0.0,0.0,0.0,0.0,0.0,0.0,0.0,0.0,0.0,0.0,0.0,0.0,0.0,0.0,0.0,0.0,0.0,0.0,0.0,0.0,0.0,0.0,0.0,0.0,0.0,0.0,0.0,0.0,0.0,0.0,0.0,0.0,0.0,0.0,0.0,0.0,0.0,0.0,0.0,0.0,0.0,0.0,0.0,0.0,0.0,0.0,0.0,0.0,0.0,0.0,0.0,0.0,0.0,0.0,0.0,0.0,0.0,0.0,0.0,0.0,0.0,0.0,0.0,0.0,-0.246,0.0,-0.3581,-0.3737,0.0,0.0,0.0,-0.3751,-0.4056,-0.4176,-0.4372,-0.4694,0.0,0.0,-0.5133,-0.5413,-0.5599,-0.562,-0.5613,-0.6309,-0.8213,-0.8468,-0.9155,-1.0996,-1.1284,-1.136,-1.1467,-1.1415,-1.1283,-1.1029,-1.078,-1.06,-1.0586,-1.0586,-1.0624,-1.0989,-1.2035,-1.3122,-1.3144,-1.4427,-1.5166,-1.4328,-1.4163,-1.4026,-1.3633,-1.3545,-1.3437,0.0,0.0,0.0,0.0,0.0,0.0,0.0,0.0,0.0,0.0,0.0,0.0,0.0,0.0,0.0,0.0,0.0,0.0,0.0,0.0,0.0,0.0,0.0,0.0,0.0,0.0,0.0,0.0,0.0,0.0,0.0,0.0,0.0,0.0,0.0,0.0,0.0,0.0,0.0,0.0,0.0,0.0,0.0,0.0,0.0,0.0,0.0,0.0,0.0,0.0,0.0,0.0,0.0,0.0,0.0,0.0,0.0,0.0,0.0,0.0,0.0,0.0,0.0,-0.0892,-0.0862,0.0,-0.2233,0.0,-0.3058,-0.3515,-0.3724,-0.3795,0.0,0.0,-0.4175,-0.4223,-0.4657,-0.4636,-0.4701,-0.4989,-0.5056,-0.5187,-0.545,-0.5545,-0.5674,-0.5884,-0.5823,-0.6186,-0.7287,-0.7464,-0.8224,-1.016,-1.0669,-1.1005,-1.1853,-1.1703,-1.1336,-1.1042,-1.078,-1.0593,-1.0586,-1.0586,-1.0965,-1.2128,-1.2704,-1.3433,-1.454,-1.5177,-1.5293,-1.5108,-1.4825,-1.4502,-1.4055,-1.3958,-1.3841,0.0,0.0,0.0,0.0,0.0,0.0,0.0,0.0,0.0,0.0,0.0,0.0,0.0,0.0,0.0,0.0,0.0,0.0,0.0,0.0,0.0,0.0,0.0,0.0,0.0,0.0,0.0,0.0,0.0,0.0,0.0,0.0,0.0,0.0,0.0,0.0,0.0,0.0,0.0,0.0,0.0,0.0,0.0,0.0,0.0,0.0,0.0,0.0,0.0,0.0,0.0,0.0,0.0,0.0,0.0,0.0,0.0,0.0,0.0,0.0,0.0,0.0,0.0,0.0,0.0,0.0,-0.2643,-0.314,-0.3688,-0.403,-0.4105,-0.4212,-0.4395,-0.464,-0.4596,-0.4641,-0.4951,-0.4908,-0.4972,-0.5298,-0.5335,-0.542,-0.5654,-0.5742,-0.584,-0.5973,-0.6013,-0.6374,-0.7253,-0.7759,-0.8675,-1.0298,-1.0943,-1.1473,-1.2211,-1.1924,-1.153,-1.1236,-1.0981,-1.0747,-1.062,-1.0586,-1.0895,-1.1756,-1.252,-1.3243,-1.4145,-1.4991,-1.5381,-1.5381,-1.5225,-1.4922,-1.4512,-1.4424,-1.4307,0.0,0.0,0.0,0.0,0.0,0.0,0.0,0.0,0.0,0.0,0.0,0.0,0.0,0.0,0.0,0.0,0.0,0.0,0.0,0.0,0.0,0.0,0.0,0.0,0.0,0.0,0.0,0.0,0.0,0.0,0.0,0.0,0.0,0.0,0.0,0.0,0.0,0.0,0.0,0.0,0.0,0.0,0.0,0.0,0.0,0.0,0.0,0.0,0.0,0.0,0.0,0.0,0.0,0.0,0.0,0.0,0.0,0.0,0.0,0.0,0.0,0.0,0.0,0.0,0.0,-0.2294,-0.3101,-0.3832,-0.4296,-0.4542,-0.4522,-0.4748,-0.4925,-0.4911,-0.4914,-0.4975,-0.5133,-0.5157,-0.5301,-0.5586,-0.5616,-0.5671,-0.5813,-0.5915,-0.5993,-0.6071,-0.6166,-0.657,-0.7468,-0.8324,-0.9299,-1.0447,-1.1576,-1.2204,-1.2271,-1.2087,-1.1806,-1.151,-1.1189,-1.0909,-1.0707,-1.062,-1.0681,-1.1052,-1.2151,-1.307,-1.3252,-1.4501,-1.5352,-1.541,-1.5391,-1.5273,-1.4961,-1.4853,-1.4717,0.0,0.0,0.0,0.0,0.0,0.0,0.0,0.0,0.0,0.0,0.0,0.0,0.0,0.0,0.0,0.0,0.0,0.0,0.0,0.0,0.0,0.0,0.0,0.0,0.0,0.0,0.0,0.0,0.0,0.0,0.0,0.0,0.0,0.0,0.0,0.0,0.0,0.0,0.0,0.0,0.0,0.0,0.0,0.0,0.0,0.0,0.0,0.0,0.0,0.0,0.0,0.0,0.0,0.0,0.0,0.0,0.0,0.0,0.0,0.0,0.0,0.0,-0.0106,-0.04,-0.1019,-0.2411,-0.3576,-0.4287,-0.4636,-0.4782,-0.4663,-0.4779,-0.4935,-0.5042,-0.5059,-0.5167,-0.5464,-0.5501,-0.5576,-0.5735,-0.5759,-0.582,-0.5925,-0.5976,-0.6078,-0.6228,-0.6282,-0.6374,-0.6567,-0.7518,-0.8461,-0.948,-1.1211,-1.2268,-1.2305,-1.2064,-1.1913,-1.1772,-1.1329,-1.1015,-1.0935,-1.0734,-1.1122,-1.2097,-1.2795,-1.3463,-1.4599,-1.5235,-1.542,-1.542,-1.542,-1.5362,-1.5303,-1.5283,-1.5166,0.0,0.0,0.0,0.0,0.0,0.0,0.0,0.0,0.0,0.0,0.0,0.0,0.0,0.0,0.0,0.0,0.0,0.0,0.0,0.0,0.0,0.0,0.0,0.0,0.0,0.0,0.0,0.0,0.0,0.0,0.0,0.0,0.0,0.0,0.0,0.0,0.0,0.0,0.0,0.0,0.0,0.0,0.0,0.0,0.0,0.0,0.0,0.0,0.0,0.0,0.0,0.0,0.0,0.0,0.0,0.0,0.0,0.0,0.0,0.0,0.0,0.0,0.0,-0.0474,-0.1579,-0.2695,-0.3709,-0.4597,-0.486,-0.4992,-0.4925,-0.5111,-0.5281,-0.5348,-0.5386,-0.5528,-0.5664,-0.5694,-0.5752,-0.5884,-0.5878,-0.5973,-0.6122,-0.6142,-0.6173,-0.6286,-0.63,-0.63,-0.6451,-0.7595,-0.9031,-1.0501,-1.1552,-1.2268,-1.2298,-1.2198,-1.2017,-1.1899,-1.1658,-1.1323,-1.1042,-1.0875,-1.1074,-1.1769,-1.2428,-1.3334,-1.4034,-1.4815,-1.542,-1.542,-1.542,-1.542,-1.542,-1.542,-1.5361,0.0,0.0,0.0,0.0,0.0,0.0,0.0,0.0,0.0,0.0,0.0,0.0,0.0,0.0,0.0,0.0,0.0,0.0,0.0,0.0,0.0,0.0,0.0,0.0,0.0,0.0,0.0,0.0,0.0,0.0,0.0,0.0,0.0,0.0,0.0,0.0,0.0,0.0,0.0,0.0,0.0,0.0,0.0,0.0,0.0,0.0,0.0,0.0,0.0,0.0,0.0,0.0,0.0,0.0,0.0,0.0,0.0,0.0,0.0,0.0,0.0,0.0,0.0,-0.0669,-0.2168,-0.2841,-0.362,-0.4671,-0.501,-0.515,-0.5177,-0.5433,-0.5599,-0.5623,-0.5732,-0.5803,-0.5837,-0.584,-0.5901,-0.6037,-0.603,-0.6115,-0.6272,-0.6289,-0.63,-0.63,-0.63,-0.6412,-0.6756,-0.8084,-0.9895,-1.17,-1.2231,-1.2305,-1.2305,-1.2298,-1.2204,-1.2047,-1.194,-1.1725,-1.1323,-1.1062,-1.0967,-1.1103,-1.2018,-1.2765,-1.3221,-1.4302,-1.5196,-1.5381,-1.542,-1.542,-1.542,-1.542,-1.541,0.0,0.0,0.0,0.0,0.0,0.0,0.0,0.0,0.0,0.0,0.0,0.0,0.0,0.0,0.0,0.0,0.0,0.0,0.0,0.0,0.0,0.0,0.0,0.0,0.0,0.0,0.0,0.0,0.0,0.0,0.0,0.0,0.0,0.0,0.0,0.0,0.0,0.0,0.0,0.0,0.0,0.0,0.0,0.0,0.0,0.0,0.0,0.0,0.0,0.0,0.0,0.0,0.0,0.0,0.0,0.0,0.0,0.0,0.0,0.0,0.0,0.0,0.0,-0.0426,-0.141,-0.2256,-0.3175,-0.4055,-0.4916,-0.5416,-0.5508,-0.5572,-0.5689,-0.5752,-0.5793,-0.585,-0.5979,-0.5959,-0.6054,-0.6196,-0.6265,-0.6262,-0.6289,-0.63,-0.63,-0.63,-0.63,-0.6567,-0.7442,-0.8542,-1.0088,-1.1781,-1.2305,-1.2305,-1.2305,-1.2305,-1.2271,-1.2258,-1.2067,-1.1893,-1.1739,-1.1309,-1.1239,-1.1811,-1.1959,-1.2497,-1.3606,-1.4174,-1.4688,-1.5206,-1.542,-1.542,-1.542,-1.542,-1.541,0.0,0.0,0.0,0.0,0.0,0.0,0.0,0.0,0.0,0.0,0.0,0.0,0.0,0.0,0.0,0.0,0.0,0.0,0.0,0.0,0.0,0.0,0.0,0.0,0.0,0.0,0.0,0.0,0.0,0.0,0.0,0.0,0.0,0.0,0.0,0.0,0.0,0.0,0.0,0.0,0.0,0.0,0.0,0.0,0.0,0.0,0.0,0.0,0.0,0.0,0.0,0.0,0.0,0.0,0.0,0.0,0.0,0.0,0.0,0.0,0.0,0.0,0.0,-0.0172,-0.0575,-0.1951,-0.3377,-0.4722,-0.5343,-0.5627,-0.5701,-0.5779,-0.5854,-0.5918,-0.5996,-0.6115,-0.6139,-0.6156,-0.6224,-0.6286,-0.63,-0.63,-0.63,-0.63,-0.63,-0.63,-0.63,-0.6679,-0.7629,-0.8199,-0.9216,-1.1093,-1.1922,-1.2268,-1.2305,-1.2305,-1.2305,-1.2305,-1.2198,-1.208,-1.1933,-1.1496,-1.1377,-1.1514,-1.1655,-1.2228,-1.3364,-1.3936,-1.4481,-1.5177,-1.542,-1.542,-1.542,-1.542,-1.5332,0.0,0.0,0.0,0.0,0.0,0.0,0.0,0.0,0.0,0.0,0.0,0.0,0.0,0.0,0.0,0.0,0.0,0.0,0.0,0.0,0.0,0.0,0.0,0.0,0.0,0.0,0.0,0.0,0.0,0.0,0.0,0.0,0.0,0.0,0.0,0.0,0.0,0.0,0.0,0.0,0.0,0.0,0.0,0.0,0.0,0.0,0.0,0.0,0.0,0.0,0.0,0.0,0.0,0.0,0.0,0.0,0.0,0.0,0.0,0.0,0.0,0.0,0.0,-0.0071,-0.0389,-0.1669,-0.326,-0.4737,-0.5441,-0.5806,-0.5854,-0.5949,-0.6006,-0.6081,-0.6186,-0.6282,-0.6296,-0.63,-0.63,-0.63,-0.63,-0.63,-0.63,-0.63,-0.63,-0.63,-0.63,-0.6644,-0.7288,-0.7629,-0.8571,-1.0002,-1.1316,-1.1996,-1.2231,-1.2305,-1.2305,-1.2305,-1.2298,-1.2191,-1.1991,-1.173,-1.1436,-1.1263,-1.1367,-1.1993,-1.2797,-1.3455,-1.4234,-1.5089,-1.542,-1.542,-1.542,-1.542,-1.5332,0.0,0.0,0.0,0.0,0.0,0.0,0.0,0.0,0.0,0.0,0.0,0.0,0.0,0.0,0.0,0.0,0.0,0.0,0.0,0.0,0.0,0.0,0.0,0.0,0.0,0.0,0.0,0.0,0.0,0.0,0.0,0.0,0.0,0.0,0.0,0.0,0.0,0.0,0.0,0.0,0.0,0.0,0.0,0.0,0.0,0.0,0.0,0.0,0.0,0.0,0.0,0.0,0.0,0.0,0.0,0.0,0.0,0.0,0.0,0.0,0.0,0.0,0.0,-0.0327,-0.1016,-0.148,-0.2114,-0.3283,-0.4784,-0.5768,-0.5949,-0.5993,-0.6095,-0.6203,-0.6282,-0.63,-0.63,-0.63,-0.63,-0.63,-0.63,-0.63,-0.63,-0.63,-0.63,-0.63,-0.63,-0.6338,-0.6606,-0.7215,-0.8084,-0.9258,-1.0308,-1.1279,-1.204,-1.2305,-1.2305,-1.2305,-1.2305,-1.2271,-1.2171,-1.2013,-1.1765,-1.1464,-1.1176,-1.1603,-1.2585,-1.3152,-1.3696,-1.4991,-1.542,-1.542,-1.542,-1.542,-1.5361,0.0,0.0,0.0,0.0,0.0,0.0,0.0,0.0,0.0,0.0,0.0,0.0,0.0,0.0,0.0,0.0,0.0,0.0,0.0,0.0,0.0,0.0,0.0,0.0,0.0,0.0,0.0,0.0,0.0,0.0,0.0,0.0,0.0,0.0,0.0,0.0,0.0,0.0,0.0,0.0,0.0,0.0,0.0,0.0,0.0,0.0,0.0,0.0,0.0,0.0,0.0,0.0,0.0,0.0,0.0,0.0,0.0,0.0,0.0,0.0,0.0,0.0,0.0,0.0,-0.0522,-0.118,-0.1996,-0.3004,-0.4319,-0.5412,-0.6035,-0.6166,-0.6231,-0.6289,-0.63,-0.63,-0.63,-0.63,-0.63,-0.63,-0.63,-0.63,-0.63,-0.63,-0.63,-0.63,-0.63,-0.63,-0.6338,-0.6683,-0.7557,-0.8917,-0.9669,-1.0571,-1.1892,-1.2305,-1.2305,-1.2305,-1.2305,-1.2305,-1.2265,-1.2064,-1.1852,-1.169,-1.1323,-1.1633,-1.2995,-1.3155,-1.3485,-1.4815,-1.542,-1.542,-1.542,-1.542,-1.542,0.0,0.0,0.0,0.0,0.0,0.0,0.0,0.0,0.0,0.0,0.0,0.0,0.0,0.0,0.0,0.0,0.0,0.0,0.0,0.0,0.0,0.0,0.0,0.0,0.0,0.0,0.0,0.0,0.0,0.0,0.0,0.0,0.0,0.0,0.0,0.0,0.0,0.0,0.0,0.0,0.0,0.0,0.0,0.0,0.0,0.0,0.0,0.0,0.0,0.0,0.0,0.0,0.0,0.0,0.0,0.0,0.0,0.0,0.0,0.0,0.0,0.0,0.0,0.0,0.0,-0.0738,-0.1604,-0.2575,-0.3634,-0.4758,-0.606,-0.63,-0.63,-0.63,-0.63,-0.63,-0.63,-0.63,-0.63,-0.63,-0.63,-0.63,-0.63,-0.63,-0.63,-0.63,-0.63,-0.63,-0.63,-0.6377,-0.7022,-0.8922,-0.9301,-1.0158,-1.1855,-1.2305,-1.2305,-1.2305,-1.2305,-1.2305,-1.2305,-1.2098,-1.1946,-1.1804,-1.143,-1.1824,-1.3171,-1.3492,-1.3601,-1.4843,-1.542,-1.542,-1.542,-1.542,-1.542,0.0,0.0,0.0,0.0,0.0,0.0,0.0,0.0,0.0,0.0,0.0,0.0,0.0,0.0,0.0,0.0,0.0,0.0,0.0,0.0,0.0,0.0,0.0,0.0,0.0,0.0,0.0,0.0,0.0,0.0,0.0,0.0,0.0,0.0,0.0,0.0,0.0,0.0,0.0,0.0,0.0,0.0,0.0,0.0,0.0,0.0,0.0,0.0,0.0,0.0,0.0,0.0,0.0,0.0,0.0,0.0,0.0,0.0,0.0,0.0,0.0,0.0,0.0,0.0,0.0,0.0,-0.0667,-0.1607,-0.2735,-0.41,-0.5828,-0.6219,-0.6296,-0.63,-0.63,-0.63,-0.63,-0.63,-0.63,-0.63,-0.63,-0.63,-0.63,-0.63,-0.63,-0.63,-0.63,-0.6306,-0.6317,-0.631,-0.7219,-0.8632,-0.9425,-0.9976,-1.1818,-1.2305,-1.2305,-1.2305,-1.2305,-1.2305,-1.2298,-1.2258,-1.2104,-1.1977,-1.1826,-1.2247,-1.3445,-1.4049,-1.4259,-1.4872,-1.5313,-1.543,-1.542,-1.542,-1.542,0.0,0.0,0.0,0.0,0.0,0.0,0.0,0.0,0.0,0.0,0.0,0.0,0.0,0.0,0.0,0.0,0.0,0.0,0.0,0.0,0.0,0.0,0.0,0.0,0.0,0.0,0.0,0.0,0.0,0.0,0.0,0.0,0.0,0.0,0.0,0.0,0.0,0.0,0.0,0.0,0.0,0.0,0.0,0.0,0.0,0.0,0.0,0.0,0.0,0.0,0.0,0.0,0.0,0.0,0.0,0.0,0.0,0.0,0.0,0.0,0.0,0.0,0.0,0.0,0.0,0.0,-0.0432,-0.1488,-0.2501,-0.3787,-0.496,-0.5864,-0.63,-0.63,-0.63,-0.63,-0.63,-0.63,-0.63,-0.63,-0.63,-0.63,-0.6306,-0.63,-0.63,-0.63,-0.63,-0.6347,-0.6399,-0.6364,-0.7072,-0.8788,-0.942,-0.997,-1.2003,-1.2305,-1.2305,-1.2305,-1.2305,-1.2305,-1.2305,-1.2305,-1.2184,-1.2131,-1.2024,-1.2283,-1.3316,-1.4301,-1.4599,-1.5212,-1.5613,-1.5605,-1.542,-1.5508,-1.5478,0.0,0.0,0.0,0.0,0.0,0.0,0.0,0.0,0.0,0.0,0.0,0.0,0.0,0.0,0.0,0.0,0.0,0.0,0.0,0.0,0.0,0.0,0.0,0.0,0.0,0.0,0.0,0.0,0.0,0.0,0.0,0.0,0.0,0.0,0.0,0.0,0.0,0.0,0.0,0.0,0.0,0.0,0.0,0.0,0.0,0.0,0.0,0.0,0.0,0.0,0.0,0.0,0.0,0.0,0.0,0.0,0.0,0.0,0.0,0.0,0.0,0.0,0.0,0.0,0.0,0.0,0.0,-0.1097,-0.2035,-0.3052,-0.4141,-0.5218,-0.5957,-0.6197,-0.63,-0.6323,-0.6358,-0.6323,-0.6303,-0.63,-0.63,-0.6317,-0.6358,-0.6368,-0.6399,-0.6433,-0.64,-0.6491,-0.6545,-0.6555,-0.717,-0.9118,-0.9456,-1.0362,-1.1834,-1.2412,-1.2331,-1.2318,-1.2305,-1.2305,-1.2305,-1.2305,-1.2298,-1.2258,-1.234,-1.2499,-1.3162,-1.4239,-1.504,-1.5732,-1.6009,-1.6024,-1.5859,-1.5664,-1.5644,0.0,0.0,0.0,0.0,0.0,0.0,0.0,0.0,0.0,0.0,0.0,0.0,0.0,0.0,0.0,0.0,0.0,0.0,0.0,0.0,0.0,0.0,0.0,0.0,0.0,0.0,0.0,0.0,0.0,0.0,0.0,0.0,0.0,0.0,0.0,0.0,0.0,0.0,0.0,0.0,0.0,0.0,0.0,0.0,0.0,0.0,0.0,0.0,0.0,0.0,0.0,0.0,0.0,0.0,0.0,0.0,0.0,0.0,0.0,0.0,0.0,0.0,0.0,0.0,0.0,0.0,0.0,0.0,-0.1142,-0.2136,-0.3184,-0.4371,-0.5388,-0.6142,-0.6354,-0.6405,-0.646,-0.6395,-0.631,-0.6334,-0.6351,-0.6375,-0.647,-0.6515,-0.6559,-0.661,-0.6644,-0.6661,-0.6688,-0.6661,-0.7652,-0.9099,-0.9727,-1.0373,-1.1516,-1.2525,-1.2412,-1.2325,-1.2311,-1.2305,-1.2305,-1.2305,-1.2305,-1.2278,-1.2278,-1.2494,-1.3204,-1.424,-1.5045,-1.5684,-1.6021,-1.6362,-1.625,-1.6045,-1.5898,0.0,0.0,0.0,0.0,0.0,0.0,0.0,0.0,0.0,0.0,0.0,0.0,0.0,0.0,0.0,0.0,0.0,0.0,0.0,0.0,0.0,0.0,0.0,0.0,0.0,0.0,0.0,0.0,0.0,0.0,0.0,0.0,0.0,0.0,0.0,0.0,0.0,0.0,0.0,0.0,0.0,0.0,0.0,0.0,0.0,0.0,0.0,0.0,0.0,0.0,0.0,0.0,0.0,0.0,0.0,0.0,0.0,0.0,0.0,0.0,0.0,0.0,0.0,0.0,0.0,0.0,0.0,0.0,-0.0965,-0.1823,-0.2308,-0.3853,-0.5205,-0.6444,-0.6563,-0.6603,-0.66,-0.6583,-0.6569,-0.6563,-0.6563,-0.6586,-0.6614,-0.663,-0.6654,-0.6705,-0.6722,-0.6746,-0.682,-0.6783,-0.7212,-0.8592,-0.9227,-1.0242,-1.1455,-1.2441,-1.2672,-1.2512,-1.2418,-1.2318,-1.2305,-1.2305,-1.2305,-1.2305,-1.2305,-1.2581,-1.3344,-1.412,-1.4857,-1.5668,-1.616,-1.6376,-1.6488,-1.6455,-1.6348,0.0,0.0,0.0,0.0,0.0,0.0,0.0,0.0,0.0,0.0,0.0,0.0,0.0,0.0,0.0,0.0,0.0,0.0,0.0,0.0,0.0,0.0,0.0,0.0,0.0,0.0,0.0,0.0,0.0,0.0,0.0,0.0,0.0,0.0,0.0,0.0,0.0,0.0,0.0,0.0,0.0,0.0,0.0,0.0,0.0,0.0,0.0,0.0,0.0,0.0,0.0,0.0,0.0,0.0,0.0,0.0,0.0,0.0,0.0,0.0,0.0,0.0,0.0,0.0,0.0,0.0,0.0,0.0,-0.0577,-0.1204,-0.1816,-0.2799,-0.4422,-0.6044,-0.6499,-0.6667,-0.6709,-0.6756,-0.6742,-0.6709,-0.6688,-0.6725,-0.6766,-0.6787,-0.6814,-0.6802,-0.6865,-0.6881,-0.6923,-0.6929,-0.7543,-0.8339,-0.9405,-1.0434,-1.1485,-1.223,-1.2875,-1.2752,-1.2559,-1.2405,-1.2305,-1.2305,-1.2305,-1.2305,-1.2305,-1.2342,-1.2991,-1.368,-1.4415,-1.5266,-1.6202,-1.6586,-1.6775,-1.6928,-1.6855,0.0,0.0,0.0,0.0,0.0,0.0,0.0,0.0,0.0,0.0,0.0,0.0,0.0,0.0,0.0,0.0,0.0,0.0,0.0,0.0,0.0,0.0,0.0,0.0,0.0,0.0,0.0,0.0,0.0,0.0,0.0,0.0,0.0,0.0,0.0,0.0,0.0,0.0,0.0,0.0,0.0,0.0,0.0,0.0,0.0,0.0,0.0,0.0,0.0,0.0,0.0,0.0,0.0,0.0,0.0,0.0,0.0,0.0,0.0,0.0,0.0,0.0,0.0,0.0,0.0,0.0,0.0,0.0,0.0,-0.051,-0.1339,-0.1953,-0.3105,-0.5039,-0.6264,-0.6699,-0.6746,-0.6822,-0.6881,-0.6787,-0.6739,-0.6776,-0.6922,-0.6896,-0.695,-0.7018,-0.7051,-0.7051,-0.7055,-0.7166,-0.7643,-0.8455,-0.928,-1.0343,-1.1324,-1.256,-1.3154,-1.312,-1.2872,-1.2632,-1.2405,-1.2358,-1.2311,-1.2305,-1.2305,-1.2342,-1.2615,-1.3331,-1.417,-1.5121,-1.5937,-1.6674,-1.714,-1.7319,-1.7344,0.0,0.0,0.0,0.0,0.0,0.0,0.0,0.0,0.0,0.0,0.0,0.0,0.0,0.0,0.0,0.0,0.0,0.0,0.0,0.0,0.0,0.0,0.0,0.0,0.0,0.0,0.0,0.0,0.0,0.0,0.0,0.0,0.0,0.0,0.0,0.0,0.0,0.0,0.0,0.0,0.0,0.0,0.0,0.0,0.0,0.0,0.0,0.0,0.0,0.0,0.0,0.0,0.0,0.0,0.0,0.0,0.0,0.0,0.0,0.0,0.0,0.0,0.0,0.0,0.0,0.0,0.0,0.0,0.0,0.0,0.0,-0.1287,-0.2891,-0.4987,-0.6209,-0.691,-0.6967,-0.7011,-0.7021,-0.6987,-0.6967,-0.6987,-0.7007,-0.7031,-0.7048,-0.7085,-0.7095,-0.7095,-0.7095,-0.7139,-0.7448,-0.8013,-0.8862,-1.0014,-1.124,-1.2585,-1.3365,-1.3393,-1.3253,-1.2959,-1.2692,-1.2516,-1.2385,-1.2305,-1.2305,-1.2305,-1.2629,-1.3106,-1.4019,-1.4914,-1.5764,-1.6562,-1.7406,-1.7822,-1.7783,0.0,0.0,0.0,0.0,0.0,0.0,0.0,0.0,0.0,0.0,0.0,0.0,0.0,0.0,0.0,0.0,0.0,0.0,0.0,0.0,0.0,0.0,0.0,0.0,0.0,0.0,0.0,0.0,0.0,0.0,0.0,0.0,0.0,0.0,0.0,0.0,0.0,0.0,0.0,0.0,0.0,0.0,0.0,0.0,0.0,0.0,0.0,0.0,0.0,0.0,0.0,0.0,0.0,0.0,0.0,0.0,0.0,0.0,0.0,0.0,0.0,0.0,0.0,0.0,0.0,0.0,0.0,0.0,0.0,0.0,0.0,-0.1076,-0.2637,-0.433,-0.5667,-0.6558,-0.7007,-0.7085,-0.7095,-0.7095,-0.7095,-0.7095,-0.7095,-0.7095,-0.7095,-0.7095,-0.7095,-0.7095,-0.7095,-0.7095,-0.7183,-0.7705,-0.8492,-0.9682,-1.0833,-1.2157,-1.3409,-1.3569,-1.3533,-1.3287,-1.3033,-1.277,-1.2596,-1.2465,-1.2378,-1.2378,-1.2592,-1.2952,-1.3665,-1.4557,-1.5508,-1.6472,-1.7329,-1.8008,-1.8008,0.0,0.0,0.0,0.0,0.0,0.0,0.0,0.0,0.0,0.0,0.0,0.0,0.0,0.0,0.0,0.0,0.0,0.0,0.0,0.0,0.0,0.0,0.0,0.0,0.0,0.0,0.0,0.0,0.0,0.0,0.0,0.0,0.0,0.0,0.0,0.0,0.0,0.0,0.0,0.0,0.0,0.0,0.0,0.0,0.0,0.0,0.0,0.0,0.0,0.0,0.0,0.0,0.0,0.0,0.0,0.0,0.0,0.0,0.0,0.0,0.0,0.0,0.0,0.0,0.0,0.0,0.0,0.0,0.0,0.0,0.0,-0.1076,-0.2325,-0.3705,-0.4821,-0.5891,-0.6782,-0.7095,-0.7095,-0.7095,-0.7095,-0.7095,-0.7095,-0.7095,-0.7095,-0.7095,-0.7095,-0.7095,-0.7095,-0.7095,-0.7095,-0.7228,-0.8185,-0.9318,-1.0476,-1.1659,-1.285,-1.3681,-1.3745,-1.3607,-1.34,-1.3172,-1.2911,-1.2737,-1.2596,-1.2418,-1.2342,-1.2842,-1.339,-1.4163,-1.5084,-1.6228,-1.726,-1.7794,-1.8008,0.0,0.0,0.0,0.0,0.0,0.0,0.0,0.0,0.0,0.0,0.0,0.0,0.0,0.0,0.0,0.0,0.0,0.0,0.0,0.0,0.0,0.0,0.0,0.0,0.0,0.0,0.0,0.0,0.0,0.0,0.0,0.0,0.0,0.0,0.0,0.0,0.0,0.0,0.0,0.0,0.0,0.0,0.0,0.0,0.0,0.0,0.0,0.0,0.0,0.0,0.0,0.0,0.0,0.0,0.0,0.0,0.0,0.0,0.0,0.0,0.0,0.0,0.0,0.0,0.0,0.0,0.0,0.0,0.0,0.0,0.0,-0.1076,-0.2236,-0.3438,-0.4596,-0.5758,-0.6786,-0.7095,-0.7095,-0.7095,-0.7095,-0.7095,-0.7095,-0.7095,-0.7095,-0.7095,-0.7095,-0.7095,-0.7095,-0.7095,-0.7095,-0.7095,-0.7753,-0.893,-1.0524,-1.1729,-1.2991,-1.3779,-1.3849,-1.3895,-1.3694,-1.35,-1.3266,-1.2998,-1.275,-1.2623,-1.2518,-1.2425,-1.2956,-1.3811,-1.4768,-1.5876,-1.6868,-1.7474,-1.8184,0.0,0.0,0.0,0.0,0.0,0.0,0.0,0.0,0.0,0.0,0.0,0.0,0.0,0.0,0.0,0.0,0.0,0.0,0.0,0.0,0.0,0.0,0.0,0.0,0.0,0.0,0.0,0.0,0.0,0.0,0.0,0.0,0.0,0.0,0.0,0.0,0.0,0.0,0.0,0.0,0.0,0.0,0.0,0.0,0.0,0.0,0.0,0.0,0.0,0.0,0.0,0.0,0.0,0.0,0.0,0.0,0.0,0.0,0.0,0.0,0.0,0.0,0.0,0.0,0.0,0.0,0.0,0.0,0.0,0.0,0.0,-0.0404,-0.1657,-0.326,-0.4152,-0.5265,-0.6647,-0.7095,-0.7095,-0.7095,-0.7095,-0.7095,-0.7095,-0.7095,-0.7095,-0.7095,-0.7095,-0.7095,-0.7095,-0.7095,-0.7095,-0.7228,-0.7577,-0.8623,-1.0394,-1.1906,-1.3294,-1.3864,-1.4013,-1.4021,-1.3941,-1.3754,-1.3561,-1.3333,-1.3072,-1.2985,-1.2852,-1.2741,-1.2842,-1.3859,-1.4859,-1.576,-1.675,-1.7856,-1.8505,0.0,0.0,0.0,0.0,0.0,0.0,0.0,0.0,0.0,0.0,0.0,0.0,0.0,0.0,0.0,0.0,0.0,0.0,0.0,0.0,0.0,0.0,0.0,0.0,0.0,0.0,0.0,0.0,0.0,0.0,0.0,0.0,0.0,0.0,0.0,0.0,0.0,0.0,0.0,0.0,0.0,0.0,0.0,0.0,0.0,0.0,0.0,0.0,0.0,0.0,0.0,0.0,0.0,0.0,0.0,0.0,0.0,0.0,0.0,0.0,0.0,0.0,0.0,0.0,0.0,0.0,0.0,0.0,0.0,0.0,0.0,0.0,0.0,-0.2725,-0.3392,-0.4639,-0.6201,-0.6962,-0.7095,-0.7095,-0.7095,-0.7095,-0.7095,-0.7095,-0.7095,-0.7095,-0.7095,-0.7095,-0.7095,-0.7095,-0.7095,-0.7095,-0.7404,-0.8536,-1.0308,-1.1729,-1.316,-1.3948,-1.4088,-1.4088,-1.4088,-1.3961,-1.3768,-1.356,-1.3367,-1.3293,-1.314,-1.2985,-1.3331,-1.4139,-1.5011,-1.5958,-1.7078,-1.8273,-1.8768,0.0,0.0,0.0,0.0,0.0,0.0,0.0,0.0,0.0,0.0,0.0,0.0,0.0,0.0,0.0,0.0,0.0,0.0,0.0,0.0,0.0,0.0,0.0,0.0,0.0,0.0,0.0,0.0,0.0,0.0,0.0,0.0,0.0,0.0,0.0,0.0,0.0,0.0,0.0,0.0,0.0,0.0,0.0,0.0,0.0,0.0,0.0,0.0,0.0,0.0,0.0,0.0,0.0,0.0,0.0,0.0,0.0,0.0,0.0,0.0,0.0,0.0,0.0,0.0,0.0,0.0,0.0,0.0,0.0,0.0,0.0,0.0,0.0,-0.1927,-0.3133,-0.4156,-0.5492,-0.6517,-0.7095,-0.7095,-0.7095,-0.7095,-0.7095,-0.7095,-0.7095,-0.7095,-0.7095,-0.7095,-0.7095,-0.7095,-0.7095,-0.7095,-0.7139,-0.8575,-1.0221,-1.1515,-1.2808,-1.3779,-1.4088,-1.4088,-1.4088,-1.4088,-1.3968,-1.374,-1.3606,-1.348,-1.3367,-1.3227,-1.3311,-1.3779,-1.4904,-1.6099,-1.6888,-1.7687,-1.8889,0.0,0.0,0.0,0.0,0.0,0.0,0.0,0.0,0.0,0.0,0.0,0.0,0.0,0.0,0.0,0.0,0.0,0.0,0.0,0.0,0.0,0.0,0.0,0.0,0.0,0.0,0.0,0.0,0.0,0.0,0.0,0.0,0.0,0.0,0.0,0.0,0.0,0.0,0.0,0.0,0.0,0.0,0.0,0.0,0.0,0.0,0.0,0.0,0.0,0.0,0.0,0.0,0.0,0.0,0.0,0.0,0.0,0.0,0.0,0.0,0.0,0.0,0.0,0.0,0.0,0.0,0.0,0.0,0.0,0.0,0.0,0.0,0.0,-0.1687,-0.2857,-0.401,-0.524,-0.6387,-0.6874,-0.7051,-0.7095,-0.7095,-0.7095,-0.7095,-0.7095,-0.7095,-0.7095,-0.7095,-0.7095,-0.7095,-0.7095,-0.7228,-0.7316,-0.8536,-1.0009,-1.1209,-1.2413,-1.3379,-1.4088,-1.4088,-1.4088,-1.4088,-1.4055,-1.3948,-1.3828,-1.3734,-1.3707,-1.3607,-1.352,-1.3507,-1.4709,-1.5756,-1.6303,-1.7119,-1.837,0.0,0.0,0.0,0.0,0.0,0.0,0.0,0.0,0.0,0.0,0.0,0.0,0.0,0.0,0.0,0.0,0.0,0.0,0.0,0.0,0.0,0.0,0.0,0.0,0.0,0.0,0.0,0.0,0.0,0.0,0.0,0.0,0.0,0.0,0.0,0.0,0.0,0.0,0.0,0.0,0.0,0.0,0.0,0.0,0.0,0.0,0.0,0.0,0.0,0.0,0.0,0.0,0.0,0.0,0.0,0.0,0.0,0.0,0.0,0.0,0.0,0.0,0.0,0.0,0.0,0.0,0.0,0.0,0.0,0.0,0.0,0.0,0.0,-0.125,-0.2428,-0.3687,-0.4759,-0.58,-0.6653,-0.6874,-0.7051,-0.7095,-0.7095,-0.7095,-0.7095,-0.7095,-0.7095,-0.7095,-0.7095,-0.7095,-0.7139,-0.7316,-0.7709,-0.8623,-0.9792,-1.0821,-1.1986,-1.3027,-1.373,-1.4088,-1.4088,-1.4088,-1.4048,-1.4021,-1.4028,-1.3948,-1.3961,-1.3941,-1.3821,-1.4015,-1.4803,-1.5443,-1.5973,-1.6947,-1.8171,0.0,0.0,0.0,0.0,0.0,0.0,0.0,0.0,0.0,0.0,0.0,0.0,0.0,0.0,0.0,0.0,0.0,0.0,0.0,0.0,0.0,0.0,0.0,0.0,0.0,0.0,0.0,0.0,0.0,0.0,0.0,0.0,0.0,0.0,0.0,0.0,0.0,0.0,0.0,0.0,0.0,0.0,0.0,0.0,0.0,0.0,0.0,0.0,0.0,0.0,0.0,0.0,0.0,0.0,0.0,0.0,0.0,0.0,0.0,0.0,0.0,0.0,0.0,0.0,0.0,0.0,0.0,0.0,0.0,0.0,0.0,0.0,0.0,-0.0645,-0.1553,-0.2711,-0.384,-0.5356,-0.6204,-0.6874,-0.7095,-0.7095,-0.7095,-0.7095,-0.7095,-0.7095,-0.7095,-0.7095,-0.7095,-0.7095,-0.7095,-0.7228,-0.7448,-0.8277,-0.9192,-1.0265,-1.1423,-1.2547,-1.3203,-1.3906,-1.4088,-1.4088,-1.4088,-1.4075,-1.4088,-1.4088,-1.4048,-1.4021,-1.4021,-1.4274,-1.4683,-1.5165,-1.5685,-1.6764,-1.7779,0.0,0.0,0.0,0.0,0.0,0.0,0.0,0.0,0.0,0.0,0.0,0.0,0.0,0.0,0.0,0.0,0.0,0.0,0.0,0.0,0.0,0.0,0.0,0.0,0.0,0.0,0.0,0.0,0.0,0.0,0.0,0.0,0.0,0.0,0.0,0.0,0.0,0.0,0.0,0.0,0.0,0.0,0.0,0.0,0.0,0.0,0.0,0.0,0.0,0.0,0.0,0.0,0.0,0.0,0.0,0.0,0.0,0.0,0.0,0.0,0.0,0.0,0.0,0.0,0.0,0.0,0.0,0.0,0.0,0.0,0.0,0.0,0.0,0.0,0.0,-0.2121,-0.3357,-0.4645,-0.5802,-0.6517,-0.7095,-0.7095,-0.7095,-0.7095,-0.7095,-0.7095,-0.7095,-0.7095,-0.7095,-0.7095,-0.7095,-0.7139,-0.7316,-0.7665,-0.854,-0.9536,-1.0783,-1.1815,-1.2498,-1.3203,-1.3913,-1.4088,-1.4088,-1.4088,-1.4088,-1.4088,-1.4088,-1.4075,-1.4055,-1.423,-1.4447,-1.4776,-1.5095,-1.5779,-1.6879,0.0,0.0,0.0,0.0,0.0,0.0,0.0,0.0,0.0,0.0,0.0,0.0,0.0,0.0,0.0,0.0,0.0,0.0,0.0,0.0,0.0,0.0,0.0,0.0,0.0,0.0,0.0,0.0,0.0,0.0,0.0,0.0,0.0,0.0,0.0,0.0,0.0,0.0,0.0,0.0,0.0,0.0,0.0,0.0,0.0,0.0,0.0,0.0,0.0,0.0,0.0,0.0,0.0,0.0,0.0,0.0,0.0,0.0,0.0,0.0,0.0,0.0,0.0,0.0,0.0,0.0,0.0,0.0,0.0,0.0,0.0,0.0,0.0,0.0,-0.0734,-0.1904,-0.3051,-0.4158,-0.5223,-0.6027,-0.6605,-0.7095,-0.7095,-0.7095,-0.7095,-0.7095,-0.7095,-0.7095,-0.7095,-0.7095,-0.7095,-0.7095,-0.7183,-0.736,-0.7885,-0.8842,-1.0091,-1.1171,-1.1852,-1.2808,-1.373,-1.4082,-1.4088,-1.4088,-1.4088,-1.4088,-1.4088,-1.4088,-1.4088,-1.4208,-1.4292,-1.4208,-1.4489,-1.5088,-1.5861,0.0,0.0,0.0,0.0,0.0,0.0,0.0,0.0,0.0,0.0,0.0,0.0,0.0,0.0,0.0,0.0,0.0,0.0,0.0,0.0,0.0,0.0,0.0,0.0,0.0,0.0,0.0,0.0,0.0,0.0,0.0,0.0,0.0,0.0,0.0,0.0,0.0,0.0,0.0,0.0,0.0,0.0,0.0,0.0,0.0,0.0,0.0,0.0,0.0,0.0,0.0,0.0,0.0,0.0,0.0,0.0,0.0,0.0,0.0,0.0,0.0,0.0,0.0,0.0,0.0,0.0,0.0,0.0,0.0,0.0,0.0,0.0,0.0,0.0,0.0,-0.113,-0.224,-0.3352,-0.4417,-0.5401,-0.6204,-0.6874,-0.7095,-0.7095,-0.7095,-0.7095,-0.7095,-0.7095,-0.7095,-0.7095,-0.7095,-0.7095,-0.7095,-0.7183,-0.7272,-0.8229,-0.9314,-1.0481,-1.1423,-1.2638,-1.3822,-1.3997,-1.4088,-1.4088,-1.4088,-1.4088,-1.4088,-1.4088,-1.4088,-1.4088,-1.4088,-1.4088,-1.425,-1.4768,-1.5296,0.0,0.0,0.0,0.0,0.0,0.0,0.0,0.0,0.0,0.0,0.0,0.0,0.0,0.0,0.0,0.0,0.0,0.0,0.0,0.0,0.0,0.0,0.0,0.0,0.0,0.0,0.0,0.0,0.0,0.0,0.0,0.0,0.0,0.0,0.0,0.0,0.0,0.0,0.0,0.0,0.0,0.0,0.0,0.0,0.0,0.0,0.0,0.0,0.0,0.0,0.0,0.0,0.0,0.0,0.0,0.0,0.0,0.0,0.0,0.0,0.0,0.0,0.0,0.0,0.0,0.0,0.0,0.0,0.0,0.0,0.0,0.0,0.0,0.0,0.0,0.0,-0.1478,-0.2635,-0.3837,-0.491,-0.6068,-0.7051,-0.7095,-0.7095,-0.7095,-0.7095,-0.7095,-0.7095,-0.7095,-0.7095,-0.7095,-0.7095,-0.7095,-0.7095,-0.7183,-0.7837,-0.8536,-0.9744,-1.0956,-1.2206,-1.3428,-1.4039,-1.4088,-1.4088,-1.4088,-1.4088,-1.4088,-1.4088,-1.4088,-1.4088,-1.4088,-1.4088,-1.4286,-1.4531,-1.4894,0.0,0.0,0.0,0.0,0.0,0.0,0.0,0.0,0.0,0.0,0.0,0.0,0.0,0.0,0.0,0.0,0.0,0.0,0.0,0.0,0.0,0.0,0.0,0.0,0.0,0.0,0.0,0.0,0.0,0.0,0.0,0.0,0.0,0.0,0.0,0.0,0.0,0.0,0.0,0.0,0.0,0.0,0.0,0.0,0.0,0.0,0.0,0.0,0.0,0.0,0.0,0.0,0.0,0.0,0.0,0.0,0.0,0.0,0.0,0.0,0.0,0.0,0.0,0.0,0.0,0.0,0.0,0.0,0.0,0.0,0.0,0.0,0.0,0.0,0.0,-0.0404,-0.1031,-0.2013,-0.3261,-0.4463,-0.5578,-0.6605,-0.7095,-0.7095,-0.7095,-0.7095,-0.7095,-0.7095,-0.7095,-0.7095,-0.7095,-0.7095,-0.7095,-0.7095,-0.7139,-0.7577,-0.8057,-0.9231,-1.0438,-1.1601,-1.2687,-1.347,-1.4082,-1.4088,-1.4088,-1.4088,-1.4088,-1.4088,-1.4088,-1.4088,-1.4088,-1.4088,-1.4124,-1.4328,-1.4489,0.0,0.0,0.0,0.0,0.0,0.0,0.0,0.0,0.0,0.0,0.0,0.0,0.0,0.0,0.0,0.0,0.0,0.0,0.0,0.0,0.0,0.0,0.0,0.0,0.0,0.0,0.0,0.0,0.0,0.0,0.0,0.0,0.0,0.0,0.0,0.0,0.0,0.0,0.0,0.0,0.0,0.0,0.0,0.0,0.0,0.0,0.0,0.0,0.0,0.0,0.0,0.0,0.0,0.0,0.0,0.0,0.0,0.0,0.0,0.0,0.0,0.0,0.0,0.0,0.0,0.0,0.0,0.0,0.0,0.0,0.0,0.0,0.0,0.0,0.0,0.0,0.0,-0.1522,-0.2815,-0.4063,-0.4956,-0.5805,-0.6605,-0.7095,-0.7095,-0.7095,-0.7095,-0.7095,-0.7095,-0.7095,-0.7095,-0.7095,-0.7095,-0.7095,-0.7095,-0.7095,-0.7665,-0.8755,-0.9966,-1.1257,-1.2382,-1.3385,-1.3822,-1.4039,-1.4088,-1.4088,-1.4088,-1.4088,-1.4088,-1.4088,-1.4088,-1.4088,-1.4088,-1.4124,-1.4286,0.0,0.0,0.0,0.0,0.0,0.0,0.0,0.0,0.0,0.0,0.0,0.0,0.0,0.0,0.0,0.0,0.0,0.0,0.0,0.0,0.0,0.0,0.0,0.0,0.0,0.0,0.0,0.0,0.0,0.0,0.0,0.0,0.0,0.0,0.0,0.0,0.0,0.0,0.0,0.0,0.0,0.0,0.0,0.0,0.0,0.0,0.0,0.0,0.0,0.0,0.0,0.0,0.0,0.0,0.0,0.0,0.0,0.0,0.0,0.0,0.0,0.0,0.0,0.0,0.0,0.0,0.0,0.0,0.0,0.0,0.0,0.0,0.0,0.0,0.0,0.0,0.0,0.0,-0.2415,-0.3618,-0.4643,-0.5802,-0.6694,-0.7051,-0.7095,-0.7095,-0.7095,-0.7095,-0.7095,-0.7095,-0.7095,-0.7095,-0.7095,-0.7095,-0.7095,-0.7095,-0.7448,-0.8408,-0.9705,-1.1042,-1.2163,-1.3075,-1.3773,-1.3997,-1.4088,-1.4088,-1.4088,-1.4088,-1.4088,-1.4088,-1.4088,-1.4088,-1.4088,-1.4088,-1.4124,0.0,0.0,0.0,0.0,0.0,0.0,0.0,0.0,0.0,0.0,0.0,0.0,0.0,0.0,0.0,0.0,0.0,0.0,0.0,0.0,0.0,0.0,0.0,0.0,0.0,0.0,0.0,0.0,0.0,0.0,0.0,0.0,0.0,0.0,0.0,0.0,0.0,0.0,0.0,0.0,0.0,0.0,0.0,0.0,0.0,0.0,0.0,0.0,0.0,0.0,0.0,0.0,0.0,0.0,0.0,0.0,0.0,0.0,0.0,0.0,0.0,0.0,0.0,0.0,0.0,0.0,0.0,0.0,0.0,0.0,0.0,0.0,0.0,0.0,0.0,0.0,0.0,0.0,-0.1657,-0.2906,-0.4241,-0.5489,-0.6786,-0.6918,-0.7095,-0.7095,-0.7095,-0.7095,-0.7095,-0.7095,-0.7095,-0.7095,-0.7095,-0.7095,-0.7095,-0.7095,-0.7536,-0.8149,-0.9318,-1.0567,-1.1466,-1.2334,-1.3167,-1.3997,-1.4039,-1.4088,-1.4088,-1.4088,-1.4088,-1.4088,-1.4088,-1.4088,-1.4088,-1.4088,-1.4088,0.0,0.005,0.0,0.0,0.0,0.0,0.0,0.0,0.0,0.0,0.0,0.0,0.0,0.0,0.0,0.0,0.0,0.0,0.0,0.0,0.0,0.0,0.0,0.0,0.0,0.0,0.0,0.0,0.0,0.0,0.0,0.0,0.0,0.0,0.0,0.0,0.0,0.0,0.0,0.0,0.0,0.0,0.0,0.0,0.0,0.0,0.0,0.0,0.0,0.0,0.0,0.0,0.0,0.0,0.0,0.0,0.0,0.0,0.0,0.0,0.0,0.0,0.0,0.0,0.0,0.0,0.0,0.0,0.0,0.0,0.0,0.0,0.0,0.0,0.0,0.0,0.0,0.0,0.0,-0.197,-0.3395,-0.4863,-0.6558,-0.7095,-0.7095,-0.7095,-0.7095,-0.7095,-0.7095,-0.7095,-0.7095,-0.7095,-0.7095,-0.7095,-0.7095,-0.7095,-0.7228,-0.7709,-0.854,-0.9662,-1.0611,-1.1638,-1.2638,-1.3421,-1.3906,-1.4082,-1.4088,-1.4088,-1.4088,-1.4088,-1.4088,-1.4088,-1.4088,-1.4088,-1.4166,0.1411,0.1511,0.2465,0.2313,0.136,0.0404,0.0,0.0,0.0,0.0,0.0,0.0,0.0,0.0,0.0,0.0,0.0,0.0,0.0,0.0,0.0,0.0,0.0,0.0,0.0,0.0,0.0,0.0,0.0,0.0,0.0,0.0,0.0,0.0,0.0,0.0,0.0,0.0,0.0,0.0,0.0,0.0,0.0,0.0,0.0,0.0,0.0,0.0,0.0,0.0,0.0,0.0,0.0,0.0,0.0,0.0,0.0,0.0,0.0,0.0,0.0,0.0,0.0,0.0,0.0,0.0,0.0,0.0,0.0,0.0,0.0,0.0,0.0,0.0,0.0,0.0,0.0,0.0,0.0,-0.2058,-0.3438,-0.4907,-0.6558,-0.7095,-0.7095,-0.7095,-0.7095,-0.7095,-0.7095,-0.7095,-0.7095,-0.7095,-0.7095,-0.7095,-0.7095,-0.7095,-0.7095,-0.7316,-0.8101,-0.893,-0.9879,-1.0956,-1.2072,-1.2984,-1.3688,-1.3997,-1.4088,-1.4088,-1.4088,-1.4088,-1.4088,-1.4088,-1.4088,-1.4088,-1.4124,0.2313,0.2864,0.3667,0.3215,0.2013,0.1159,0.0807,0.0706,0.0252,0.0,0.0,0.0,0.0,0.0,0.0,0.0,0.0,0.0,0.0,0.0,0.0,0.0,0.0,0.0,0.0,0.0,0.0,0.0,0.0,0.0,0.0,0.0,0.0,0.0,0.0,0.0,0.0,0.0,0.0,0.0,0.0,0.0,0.0,0.0,0.0,0.0,0.0,0.0,0.0,0.0,0.0,0.0,0.0,0.0,0.0,0.0,0.0,0.0,0.0,0.0,0.0,0.0,0.0,0.0,0.0,0.0,0.0,0.0,0.0,0.0,0.0,0.0,0.0,0.0,0.0,0.0,0.0,0.0,0.0,0.0,-0.384,-0.522,-0.6245,-0.6738,-0.7095,-0.7095,-0.7095,-0.7095,-0.7095,-0.7095,-0.7095,-0.7095,-0.7095,-0.7095,-0.7095,-0.7095,-0.7095,-0.7139,-0.7445,-0.8273,-0.9231,-1.0486,-1.1772,-1.2814,-1.3695,-1.3913,-1.4088,-1.4088,-1.4088,-1.4088,-1.4088,-1.4088,-1.4088,-1.4088,-1.4124,0.3066,0.4166,0.4168,0.3616,0.2414,0.2264,0.2163,0.2012,0.1008,0.0,0.0,0.0,0.0,0.0,0.0,0.0,0.0,0.0,0.0,0.0,0.0,0.0,0.0,0.0,0.0,0.0,0.0,0.0,0.0,0.0,0.0,0.0,0.0,0.0,0.0,0.0,0.0,0.0,0.0,0.0,0.0,0.0,0.0,0.0,0.0,0.0,0.0,0.0,0.0,0.0,0.0,0.0,0.0,0.0,0.0,0.0,0.0,0.0,0.0,0.0,0.0,0.0,0.0,0.0,0.0,0.0,0.0,0.0,0.0,0.0,0.0,0.0,0.0,0.0,0.0,0.0,0.0,0.0,0.0,-0.2058,-0.2904,-0.4417,-0.598,-0.647,-0.6741,-0.6918,-0.7095,-0.7095,-0.7095,-0.7095,-0.7095,-0.7095,-0.7095,-0.7095,-0.7095,-0.7095,-0.7095,-0.7183,-0.7268,-0.8013,-0.9231,-1.0399,-1.1558,-1.2778,-1.3913,-1.3997,-1.4088,-1.4088,-1.4088,-1.4088,-1.4088,-1.4088,-1.4088,-1.4088,-1.413,0.5225,0.5527,0.5527,0.5325,0.4922,0.3967,0.3515,0.3515,0.3215,0.2413,0.1511,0.0,0.0,0.0,0.0,0.0,0.0,0.0,0.0,0.0,0.0,0.0,0.0,0.0,0.0,0.0,0.0,0.0,0.0,0.0,0.0,0.0,0.0,0.0,0.0,0.0,0.0,0.0,0.0,0.0,0.0,0.0,0.0,0.0,0.0,0.0,0.0,0.0,0.0,0.0,0.0,0.0,0.0,0.0,0.0,0.0,0.0,0.0,0.0,0.0,0.0,0.0,0.0,0.0,0.0,0.0,0.0,0.0,0.0,0.0,0.0,0.0,0.0,0.0,0.0,0.0,0.0,0.0,0.0,-0.1478,-0.219,-0.3527,-0.522,-0.6071,-0.634,-0.665,-0.6962,-0.7095,-0.7095,-0.7095,-0.7095,-0.7095,-0.7095,-0.7095,-0.7095,-0.7095,-0.7095,-0.7095,-0.7183,-0.8101,-0.9231,-1.0697,-1.2072,-1.3167,-1.4088,-1.4088,-1.4088,-1.4088,-1.4088,-1.4088,-1.4088,-1.4088,-1.4088,-1.4088,-1.4088,0.6329,0.6833,0.6883,0.6531,0.5927,0.5175,0.487,0.477,0.4266,0.3967,0.3618,0.2465,0.1762,0.1561,0.1209,0.0908,0.0756,0.0,0.0,0.0,0.0,0.0,0.0,0.0,0.0,0.0,0.0,0.0,0.0,0.0,0.0,0.0,0.0,0.0,0.0,0.0,0.0,0.0,0.0,0.0,0.0535,0.0,0.0,0.0,0.0,0.0,0.0,0.0,0.0,0.0,0.0,0.0,0.0,0.0,0.0,0.0,0.0,0.0,0.0,0.0,0.0,0.0,0.0,0.0,0.0,0.0,0.0,0.0,0.0,0.0,0.0,0.0,0.0,0.0,0.0,0.0,0.0,0.0,0.0,-0.1611,-0.2324,-0.3172,-0.4643,-0.5625,-0.6027,-0.683,-0.7095,-0.7095,-0.7095,-0.7095,-0.7095,-0.7095,-0.7095,-0.7095,-0.7095,-0.7095,-0.7095,-0.7095,-0.7095,-0.8317,-0.9531,-1.1166,-1.2589,-1.3428,-1.3955,-1.4088,-1.4088,-1.4088,-1.4088,-1.4088,-1.4088,-1.4088,-1.4088,-1.4088,-1.4088,0.693,0.7939,0.7988,0.7335,0.6381,0.6229,0.6229,0.6079,0.5072,0.5222,0.5927,0.497,0.4468,0.3616,0.2914,0.2514,0.2063,0.156,0.0,0.0,0.0,0.0,0.0,0.0,0.0,0.0,0.0,0.0,0.0,0.0,0.0,0.0,0.0,0.0,0.0,0.0,0.0,0.0,0.0,0.0,0.09,0.0,0.0,0.0,0.024,0.0192,0.0,0.0,0.0,0.0,0.0,0.0,0.0,0.0,0.0,0.0,0.0,0.0,0.0,0.0,0.0,0.0,0.0,0.0,0.0,0.0,0.0,0.0,0.0,0.0,0.0,0.0,0.0,0.0,0.0,0.0,0.0,0.0,0.0,0.0,0.0,0.0,-0.3933,-0.4917,-0.5802,-0.6605,-0.7095,-0.7095,-0.7095,-0.7095,-0.7095,-0.7095,-0.7095,-0.7095,-0.7095,-0.7095,-0.7095,-0.7095,-0.7272,-0.8532,-0.9831,-1.1252,-1.2419,-1.3294,-1.373,-1.3955,-1.4088,-1.4088,-1.4088,-1.4088,-1.4088,-1.4088,-1.4088,-1.4088,-1.4088,0.7739,0.7988,0.7988,0.7836,0.7587,0.7587,0.7637,0.7587,0.7332,0.7431,0.7385,0.7232,0.6226,0.4016,0.3815,0.3616,0.3516,0.3015,0.3165,0.0,0.2715,0.2964,0.2765,0.1862,0.1009,0.0,0.0,0.0,0.0,0.0,0.0,0.0,0.0,0.0,0.0,0.0,0.0,0.0,0.0,0.0706,0.1762,0.1803,0.1753,0.1645,0.1594,0.0938,0.0,0.0,0.0,0.0,0.0,0.0,0.0,0.0,0.0,0.0,0.0,0.0,0.0,0.0,0.0,0.0,0.0,0.0,0.0,0.0,0.0,0.0,0.0,0.0,0.0,0.0,0.0,0.0,0.0,0.0,0.0,0.0,0.0,0.0,0.0,0.0,-0.3408,-0.4295,-0.5132,-0.6021,-0.7007,-0.7051,-0.7095,-0.7095,-0.7095,-0.7095,-0.7095,-0.7095,-0.7095,-0.7095,-0.7095,-0.7095,-0.7316,-0.8233,-0.9444,-1.1123,-1.2248,-1.2899,-1.3555,-1.3906,-1.3997,-1.4088,-1.4088,-1.4088,-1.4088,-1.4088,-1.4088,-1.4088,-1.4088]}]]